<?xml version="1.0" encoding="UTF-8" standalone="no" ?>
<gpx xmlns="http://www.topografix.com/GPX/1/1" xmlns:xsi="http://www.w3.org/2001/XMLSchema-instance" xsi:schemaLocation="http://www.topografix.com/GPX/1/1 http://www.topografix.com/GPX/1/1/gpx.xsd" version="1.1" creator="VisuGPX - https://www.visugpx.com">
  <metadata>
    <name>rochefortiche</name>
    <desc><![CDATA[randonné super  cool]]></desc>
  </metadata>
  <trk>
    <name><![CDATA[ROCHE FORT]]></name>
    <trkseg>
      <trkpt lat="47.35572" lon="-0.66524">
        <ele>-58.02</ele>
        <time>2013-05-26T06:21:34Z</time>
      </trkpt>
      <trkpt lat="47.35571" lon="-0.66522">
        <ele>-57.54</ele>
        <time>2013-05-26T06:21:35Z</time>
      </trkpt>
      <trkpt lat="47.35571" lon="-0.66522">
        <ele>-54.18</ele>
        <time>2013-05-26T06:21:37Z</time>
      </trkpt>
      <trkpt lat="47.35573" lon="-0.66524">
        <ele>-48.41</ele>
        <time>2013-05-26T06:21:39Z</time>
      </trkpt>
      <trkpt lat="47.35574" lon="-0.66526">
        <ele>-43.12</ele>
        <time>2013-05-26T06:21:41Z</time>
      </trkpt>
      <trkpt lat="47.35575" lon="-0.66528">
        <ele>-38.32</ele>
        <time>2013-05-26T06:21:43Z</time>
      </trkpt>
      <trkpt lat="47.35575" lon="-0.66529">
        <ele>-33.51</ele>
        <time>2013-05-26T06:21:45Z</time>
      </trkpt>
      <trkpt lat="47.35576" lon="-0.66529">
        <ele>-29.18</ele>
        <time>2013-05-26T06:21:47Z</time>
      </trkpt>
      <trkpt lat="47.35576" lon="-0.66529">
        <ele>-25.34</ele>
        <time>2013-05-26T06:21:49Z</time>
      </trkpt>
      <trkpt lat="47.35577" lon="-0.6653">
        <ele>-21.49</ele>
        <time>2013-05-26T06:21:51Z</time>
      </trkpt>
      <trkpt lat="47.35577" lon="-0.66531">
        <ele>-18.61</ele>
        <time>2013-05-26T06:21:53Z</time>
      </trkpt>
      <trkpt lat="47.35577" lon="-0.66531">
        <ele>-15.24</ele>
        <time>2013-05-26T06:21:55Z</time>
      </trkpt>
      <trkpt lat="47.35577" lon="-0.66531">
        <ele>-11.4</ele>
        <time>2013-05-26T06:21:58Z</time>
      </trkpt>
      <trkpt lat="47.35576" lon="-0.66529">
        <ele>-8.03</ele>
        <time>2013-05-26T06:22:01Z</time>
      </trkpt>
      <trkpt lat="47.35575" lon="-0.66527">
        <ele>-4.19</ele>
        <time>2013-05-26T06:22:05Z</time>
      </trkpt>
      <trkpt lat="47.35574" lon="-0.66527">
        <ele>-2.27</ele>
        <time>2013-05-26T06:22:08Z</time>
      </trkpt>
      <trkpt lat="47.35573" lon="-0.66527">
        <ele>1.1</ele>
        <time>2013-05-26T06:22:13Z</time>
      </trkpt>
      <trkpt lat="47.35574" lon="-0.66527">
        <ele>2.06</ele>
        <time>2013-05-26T06:22:15Z</time>
      </trkpt>
      <trkpt lat="47.35575" lon="-0.66526">
        <ele>5.42</ele>
        <time>2013-05-26T06:22:22Z</time>
      </trkpt>
      <trkpt lat="47.35575" lon="-0.66527">
        <ele>7.35</ele>
        <time>2013-05-26T06:22:27Z</time>
      </trkpt>
      <trkpt lat="47.35574" lon="-0.66528">
        <ele>10.71</ele>
        <time>2013-05-26T06:22:39Z</time>
      </trkpt>
      <trkpt lat="47.35573" lon="-0.6653">
        <ele>12.63</ele>
        <time>2013-05-26T06:23:02Z</time>
      </trkpt>
      <trkpt lat="47.35575" lon="-0.6653">
        <ele>14.08</ele>
        <time>2013-05-26T06:23:22Z</time>
      </trkpt>
      <trkpt lat="47.35575" lon="-0.6653">
        <ele>14.08</ele>
        <time>2013-05-26T06:23:37Z</time>
      </trkpt>
      <trkpt lat="47.35575" lon="-0.66529">
        <ele>13.6</ele>
        <time>2013-05-26T06:23:56Z</time>
      </trkpt>
      <trkpt lat="47.35575" lon="-0.66529">
        <ele>13.6</ele>
        <time>2013-05-26T06:24:14Z</time>
      </trkpt>
      <trkpt lat="47.35575" lon="-0.66529">
        <ele>14.08</ele>
        <time>2013-05-26T06:24:36Z</time>
      </trkpt>
      <trkpt lat="47.35575" lon="-0.66529">
        <ele>9.75</ele>
        <time>2013-05-26T06:24:50Z</time>
      </trkpt>
      <trkpt lat="47.35575" lon="-0.66529">
        <ele>10.23</ele>
        <time>2013-05-26T06:24:51Z</time>
      </trkpt>
      <trkpt lat="47.35428" lon="-0.66398">
        <ele>16</ele>
        <time>2013-05-26T06:42:55Z</time>
      </trkpt>
      <trkpt lat="47.35395" lon="-0.66462">
        <ele>16.96</ele>
        <time>2013-05-26T06:43:01Z</time>
      </trkpt>
      <trkpt lat="47.35392" lon="-0.6647">
        <ele>16.48</ele>
        <time>2013-05-26T06:43:04Z</time>
      </trkpt>
      <trkpt lat="47.35391" lon="-0.6647">
        <ele>18.4</ele>
        <time>2013-05-26T06:43:08Z</time>
      </trkpt>
      <trkpt lat="47.35393" lon="-0.66467">
        <ele>18.4</ele>
        <time>2013-05-26T06:43:09Z</time>
      </trkpt>
      <trkpt lat="47.35396" lon="-0.6646">
        <ele>19.84</ele>
        <time>2013-05-26T06:43:15Z</time>
      </trkpt>
      <trkpt lat="47.35398" lon="-0.66462">
        <ele>19.84</ele>
        <time>2013-05-26T06:43:21Z</time>
      </trkpt>
      <trkpt lat="47.35398" lon="-0.66462">
        <ele>20.32</ele>
        <time>2013-05-26T06:43:23Z</time>
      </trkpt>
      <trkpt lat="47.35397" lon="-0.66461">
        <ele>19.84</ele>
        <time>2013-05-26T06:43:37Z</time>
      </trkpt>
      <trkpt lat="47.35396" lon="-0.6646">
        <ele>19.84</ele>
        <time>2013-05-26T06:43:46Z</time>
      </trkpt>
      <trkpt lat="47.35396" lon="-0.66459">
        <ele>19.84</ele>
        <time>2013-05-26T06:43:59Z</time>
      </trkpt>
      <trkpt lat="47.35397" lon="-0.66457">
        <ele>19.84</ele>
        <time>2013-05-26T06:44:13Z</time>
      </trkpt>
      <trkpt lat="47.35397" lon="-0.66458">
        <ele>19.84</ele>
        <time>2013-05-26T06:44:24Z</time>
      </trkpt>
      <trkpt lat="47.35396" lon="-0.66458">
        <ele>19.84</ele>
        <time>2013-05-26T06:44:33Z</time>
      </trkpt>
      <trkpt lat="47.35396" lon="-0.66458">
        <ele>19.84</ele>
        <time>2013-05-26T06:44:43Z</time>
      </trkpt>
      <trkpt lat="47.35396" lon="-0.66458">
        <ele>19.84</ele>
        <time>2013-05-26T06:44:57Z</time>
      </trkpt>
      <trkpt lat="47.35396" lon="-0.66458">
        <ele>19.84</ele>
        <time>2013-05-26T06:45:13Z</time>
      </trkpt>
      <trkpt lat="47.35395" lon="-0.66457">
        <ele>19.84</ele>
        <time>2013-05-26T06:45:31Z</time>
      </trkpt>
      <trkpt lat="47.35395" lon="-0.66457">
        <ele>19.84</ele>
        <time>2013-05-26T06:45:41Z</time>
      </trkpt>
      <trkpt lat="47.35395" lon="-0.66457">
        <ele>19.84</ele>
        <time>2013-05-26T06:45:53Z</time>
      </trkpt>
      <trkpt lat="47.35395" lon="-0.66457">
        <ele>19.84</ele>
        <time>2013-05-26T06:46:00Z</time>
      </trkpt>
      <trkpt lat="47.35395" lon="-0.66456">
        <ele>19.84</ele>
        <time>2013-05-26T06:46:06Z</time>
      </trkpt>
      <trkpt lat="47.35395" lon="-0.66456">
        <ele>19.84</ele>
        <time>2013-05-26T06:46:10Z</time>
      </trkpt>
      <trkpt lat="47.35395" lon="-0.66452">
        <ele>19.36</ele>
        <time>2013-05-26T06:46:13Z</time>
      </trkpt>
      <trkpt lat="47.35395" lon="-0.66438">
        <ele>20.32</ele>
        <time>2013-05-26T06:46:19Z</time>
      </trkpt>
      <trkpt lat="47.35403" lon="-0.66408">
        <ele>20.32</ele>
        <time>2013-05-26T06:46:29Z</time>
      </trkpt>
      <trkpt lat="47.35405" lon="-0.66402">
        <ele>20.32</ele>
        <time>2013-05-26T06:46:31Z</time>
      </trkpt>
      <trkpt lat="47.35398" lon="-0.66394">
        <ele>20.32</ele>
        <time>2013-05-26T06:46:36Z</time>
      </trkpt>
      <trkpt lat="47.3539" lon="-0.664">
        <ele>20.81</ele>
        <time>2013-05-26T06:46:39Z</time>
      </trkpt>
      <trkpt lat="47.35357" lon="-0.66422">
        <ele>20.32</ele>
        <time>2013-05-26T06:46:51Z</time>
      </trkpt>
      <trkpt lat="47.35338" lon="-0.66436">
        <ele>20.32</ele>
        <time>2013-05-26T06:46:59Z</time>
      </trkpt>
      <trkpt lat="47.35324" lon="-0.66449">
        <ele>20.81</ele>
        <time>2013-05-26T06:47:05Z</time>
      </trkpt>
      <trkpt lat="47.35296" lon="-0.66475">
        <ele>20.32</ele>
        <time>2013-05-26T06:47:15Z</time>
      </trkpt>
      <trkpt lat="47.35281" lon="-0.6647">
        <ele>21.77</ele>
        <time>2013-05-26T06:47:20Z</time>
      </trkpt>
      <trkpt lat="47.35264" lon="-0.6645">
        <ele>22.73</ele>
        <time>2013-05-26T06:47:28Z</time>
      </trkpt>
      <trkpt lat="47.35264" lon="-0.66428">
        <ele>23.21</ele>
        <time>2013-05-26T06:47:33Z</time>
      </trkpt>
      <trkpt lat="47.35279" lon="-0.66401">
        <ele>24.65</ele>
        <time>2013-05-26T06:47:40Z</time>
      </trkpt>
      <trkpt lat="47.35302" lon="-0.6638">
        <ele>25.61</ele>
        <time>2013-05-26T06:47:48Z</time>
      </trkpt>
      <trkpt lat="47.35322" lon="-0.66364">
        <ele>26.09</ele>
        <time>2013-05-26T06:47:54Z</time>
      </trkpt>
      <trkpt lat="47.35348" lon="-0.66329">
        <ele>26.09</ele>
        <time>2013-05-26T06:48:03Z</time>
      </trkpt>
      <trkpt lat="47.35363" lon="-0.66283">
        <ele>26.57</ele>
        <time>2013-05-26T06:48:12Z</time>
      </trkpt>
      <trkpt lat="47.35369" lon="-0.6624">
        <ele>27.05</ele>
        <time>2013-05-26T06:48:20Z</time>
      </trkpt>
      <trkpt lat="47.35377" lon="-0.6621">
        <ele>26.09</ele>
        <time>2013-05-26T06:48:26Z</time>
      </trkpt>
      <trkpt lat="47.35381" lon="-0.66201">
        <ele>29.46</ele>
        <time>2013-05-26T06:48:28Z</time>
      </trkpt>
      <trkpt lat="47.35384" lon="-0.66196">
        <ele>27.53</ele>
        <time>2013-05-26T06:48:29Z</time>
      </trkpt>
      <trkpt lat="47.35409" lon="-0.66158">
        <ele>26.57</ele>
        <time>2013-05-26T06:48:37Z</time>
      </trkpt>
      <trkpt lat="47.35415" lon="-0.66146">
        <ele>26.57</ele>
        <time>2013-05-26T06:48:39Z</time>
      </trkpt>
      <trkpt lat="47.35427" lon="-0.66109">
        <ele>27.05</ele>
        <time>2013-05-26T06:48:46Z</time>
      </trkpt>
      <trkpt lat="47.35435" lon="-0.66077">
        <ele>27.53</ele>
        <time>2013-05-26T06:48:53Z</time>
      </trkpt>
      <trkpt lat="47.35442" lon="-0.66045">
        <ele>27.53</ele>
        <time>2013-05-26T06:49:00Z</time>
      </trkpt>
      <trkpt lat="47.35452" lon="-0.65999">
        <ele>27.53</ele>
        <time>2013-05-26T06:49:09Z</time>
      </trkpt>
      <trkpt lat="47.35454" lon="-0.65993">
        <ele>28.02</ele>
        <time>2013-05-26T06:49:10Z</time>
      </trkpt>
      <trkpt lat="47.35475" lon="-0.65958">
        <ele>28.02</ele>
        <time>2013-05-26T06:49:17Z</time>
      </trkpt>
      <trkpt lat="47.35477" lon="-0.65952">
        <ele>27.05</ele>
        <time>2013-05-26T06:49:18Z</time>
      </trkpt>
      <trkpt lat="47.35489" lon="-0.65911">
        <ele>27.05</ele>
        <time>2013-05-26T06:49:25Z</time>
      </trkpt>
      <trkpt lat="47.355" lon="-0.65877">
        <ele>27.05</ele>
        <time>2013-05-26T06:49:31Z</time>
      </trkpt>
      <trkpt lat="47.3552" lon="-0.65828">
        <ele>27.05</ele>
        <time>2013-05-26T06:49:40Z</time>
      </trkpt>
      <trkpt lat="47.3553" lon="-0.65799">
        <ele>28.5</ele>
        <time>2013-05-26T06:49:46Z</time>
      </trkpt>
      <trkpt lat="47.35521" lon="-0.65784">
        <ele>28.98</ele>
        <time>2013-05-26T06:49:51Z</time>
      </trkpt>
      <trkpt lat="47.35505" lon="-0.65771">
        <ele>29.94</ele>
        <time>2013-05-26T06:49:56Z</time>
      </trkpt>
      <trkpt lat="47.35484" lon="-0.65779">
        <ele>30.9</ele>
        <time>2013-05-26T06:50:02Z</time>
      </trkpt>
      <trkpt lat="47.35459" lon="-0.65768">
        <ele>31.86</ele>
        <time>2013-05-26T06:50:09Z</time>
      </trkpt>
      <trkpt lat="47.35431" lon="-0.65752">
        <ele>34.26</ele>
        <time>2013-05-26T06:50:18Z</time>
      </trkpt>
      <trkpt lat="47.35418" lon="-0.65734">
        <ele>35.71</ele>
        <time>2013-05-26T06:50:24Z</time>
      </trkpt>
      <trkpt lat="47.35417" lon="-0.65687">
        <ele>36.19</ele>
        <time>2013-05-26T06:50:33Z</time>
      </trkpt>
      <trkpt lat="47.35422" lon="-0.65643">
        <ele>36.19</ele>
        <time>2013-05-26T06:50:41Z</time>
      </trkpt>
      <trkpt lat="47.35433" lon="-0.65594">
        <ele>36.19</ele>
        <time>2013-05-26T06:50:50Z</time>
      </trkpt>
      <trkpt lat="47.35442" lon="-0.65544">
        <ele>36.67</ele>
        <time>2013-05-26T06:50:59Z</time>
      </trkpt>
      <trkpt lat="47.35442" lon="-0.65533">
        <ele>36.67</ele>
        <time>2013-05-26T06:51:01Z</time>
      </trkpt>
      <trkpt lat="47.35433" lon="-0.65519">
        <ele>38.11</ele>
        <time>2013-05-26T06:51:05Z</time>
      </trkpt>
      <trkpt lat="47.3541" lon="-0.65518">
        <ele>40.03</ele>
        <time>2013-05-26T06:51:12Z</time>
      </trkpt>
      <trkpt lat="47.3539" lon="-0.65508">
        <ele>42.44</ele>
        <time>2013-05-26T06:51:19Z</time>
      </trkpt>
      <trkpt lat="47.35388" lon="-0.65505">
        <ele>42.92</ele>
        <time>2013-05-26T06:51:20Z</time>
      </trkpt>
      <trkpt lat="47.35387" lon="-0.65475">
        <ele>44.36</ele>
        <time>2013-05-26T06:51:27Z</time>
      </trkpt>
      <trkpt lat="47.35386" lon="-0.65464">
        <ele>44.84</ele>
        <time>2013-05-26T06:51:30Z</time>
      </trkpt>
      <trkpt lat="47.35373" lon="-0.65457">
        <ele>45.8</ele>
        <time>2013-05-26T06:51:36Z</time>
      </trkpt>
      <trkpt lat="47.35363" lon="-0.65456">
        <ele>46.28</ele>
        <time>2013-05-26T06:51:40Z</time>
      </trkpt>
      <trkpt lat="47.35346" lon="-0.65461">
        <ele>48.2</ele>
        <time>2013-05-26T06:51:47Z</time>
      </trkpt>
      <trkpt lat="47.35329" lon="-0.65483">
        <ele>49.16</ele>
        <time>2013-05-26T06:51:55Z</time>
      </trkpt>
      <trkpt lat="47.35308" lon="-0.65501">
        <ele>50.13</ele>
        <time>2013-05-26T06:52:04Z</time>
      </trkpt>
      <trkpt lat="47.35292" lon="-0.65517">
        <ele>52.05</ele>
        <time>2013-05-26T06:52:12Z</time>
      </trkpt>
      <trkpt lat="47.35282" lon="-0.65532">
        <ele>53.49</ele>
        <time>2013-05-26T06:52:18Z</time>
      </trkpt>
      <trkpt lat="47.35269" lon="-0.65552">
        <ele>54.93</ele>
        <time>2013-05-26T06:52:25Z</time>
      </trkpt>
      <trkpt lat="47.35257" lon="-0.65575">
        <ele>56.37</ele>
        <time>2013-05-26T06:52:33Z</time>
      </trkpt>
      <trkpt lat="47.35249" lon="-0.65605">
        <ele>57.34</ele>
        <time>2013-05-26T06:52:41Z</time>
      </trkpt>
      <trkpt lat="47.35241" lon="-0.6562">
        <ele>57.34</ele>
        <time>2013-05-26T06:52:46Z</time>
      </trkpt>
      <trkpt lat="47.35226" lon="-0.65613">
        <ele>57.82</ele>
        <time>2013-05-26T06:52:52Z</time>
      </trkpt>
      <trkpt lat="47.35203" lon="-0.65598">
        <ele>59.74</ele>
        <time>2013-05-26T06:53:01Z</time>
      </trkpt>
      <trkpt lat="47.35192" lon="-0.65577">
        <ele>61.18</ele>
        <time>2013-05-26T06:53:08Z</time>
      </trkpt>
      <trkpt lat="47.35196" lon="-0.65545">
        <ele>61.18</ele>
        <time>2013-05-26T06:53:16Z</time>
      </trkpt>
      <trkpt lat="47.35199" lon="-0.65514">
        <ele>61.66</ele>
        <time>2013-05-26T06:53:24Z</time>
      </trkpt>
      <trkpt lat="47.35198" lon="-0.65509">
        <ele>61.66</ele>
        <time>2013-05-26T06:53:25Z</time>
      </trkpt>
      <trkpt lat="47.35178" lon="-0.65487">
        <ele>61.66</ele>
        <time>2013-05-26T06:53:33Z</time>
      </trkpt>
      <trkpt lat="47.35157" lon="-0.65467">
        <ele>63.58</ele>
        <time>2013-05-26T06:53:39Z</time>
      </trkpt>
      <trkpt lat="47.35147" lon="-0.65457">
        <ele>63.58</ele>
        <time>2013-05-26T06:53:43Z</time>
      </trkpt>
      <trkpt lat="47.35123" lon="-0.65433">
        <ele>65.03</ele>
        <time>2013-05-26T06:53:49Z</time>
      </trkpt>
      <trkpt lat="47.35105" lon="-0.65419">
        <ele>65.51</ele>
        <time>2013-05-26T06:53:55Z</time>
      </trkpt>
      <trkpt lat="47.35098" lon="-0.65427">
        <ele>65.99</ele>
        <time>2013-05-26T06:53:58Z</time>
      </trkpt>
      <trkpt lat="47.3508" lon="-0.65458">
        <ele>66.47</ele>
        <time>2013-05-26T06:54:06Z</time>
      </trkpt>
      <trkpt lat="47.35061" lon="-0.65489">
        <ele>65.03</ele>
        <time>2013-05-26T06:54:14Z</time>
      </trkpt>
      <trkpt lat="47.3505" lon="-0.6548">
        <ele>65.03</ele>
        <time>2013-05-26T06:54:19Z</time>
      </trkpt>
      <trkpt lat="47.35045" lon="-0.65463">
        <ele>65.99</ele>
        <time>2013-05-26T06:54:23Z</time>
      </trkpt>
      <trkpt lat="47.35022" lon="-0.65419">
        <ele>65.99</ele>
        <time>2013-05-26T06:54:34Z</time>
      </trkpt>
      <trkpt lat="47.35008" lon="-0.65389">
        <ele>65.03</ele>
        <time>2013-05-26T06:54:41Z</time>
      </trkpt>
      <trkpt lat="47.35009" lon="-0.65377">
        <ele>65.03</ele>
        <time>2013-05-26T06:54:44Z</time>
      </trkpt>
      <trkpt lat="47.35016" lon="-0.65359">
        <ele>66.95</ele>
        <time>2013-05-26T06:54:49Z</time>
      </trkpt>
      <trkpt lat="47.35003" lon="-0.65337">
        <ele>66.95</ele>
        <time>2013-05-26T06:54:56Z</time>
      </trkpt>
      <trkpt lat="47.34999" lon="-0.65329">
        <ele>66.95</ele>
        <time>2013-05-26T06:54:58Z</time>
      </trkpt>
      <trkpt lat="47.34996" lon="-0.65322">
        <ele>67.43</ele>
        <time>2013-05-26T06:55:00Z</time>
      </trkpt>
      <trkpt lat="47.34982" lon="-0.65326">
        <ele>66.47</ele>
        <time>2013-05-26T06:55:05Z</time>
      </trkpt>
      <trkpt lat="47.34977" lon="-0.65318">
        <ele>66.47</ele>
        <time>2013-05-26T06:55:07Z</time>
      </trkpt>
      <trkpt lat="47.34959" lon="-0.65272">
        <ele>65.99</ele>
        <time>2013-05-26T06:55:16Z</time>
      </trkpt>
      <trkpt lat="47.34947" lon="-0.65253">
        <ele>66.47</ele>
        <time>2013-05-26T06:55:22Z</time>
      </trkpt>
      <trkpt lat="47.3493" lon="-0.65244">
        <ele>66.95</ele>
        <time>2013-05-26T06:55:28Z</time>
      </trkpt>
      <trkpt lat="47.34914" lon="-0.65256">
        <ele>65.99</ele>
        <time>2013-05-26T06:55:33Z</time>
      </trkpt>
      <trkpt lat="47.3491" lon="-0.65259">
        <ele>65.99</ele>
        <time>2013-05-26T06:55:34Z</time>
      </trkpt>
      <trkpt lat="47.34888" lon="-0.6526">
        <ele>65.03</ele>
        <time>2013-05-26T06:55:39Z</time>
      </trkpt>
      <trkpt lat="47.34882" lon="-0.65252">
        <ele>63.58</ele>
        <time>2013-05-26T06:55:41Z</time>
      </trkpt>
      <trkpt lat="47.3488" lon="-0.65246">
        <ele>63.58</ele>
        <time>2013-05-26T06:55:42Z</time>
      </trkpt>
      <trkpt lat="47.34876" lon="-0.65231">
        <ele>62.14</ele>
        <time>2013-05-26T06:55:45Z</time>
      </trkpt>
      <trkpt lat="47.3487" lon="-0.65228">
        <ele>61.18</ele>
        <time>2013-05-26T06:55:47Z</time>
      </trkpt>
      <trkpt lat="47.34862" lon="-0.65238">
        <ele>59.74</ele>
        <time>2013-05-26T06:55:50Z</time>
      </trkpt>
      <trkpt lat="47.34858" lon="-0.65247">
        <ele>57.82</ele>
        <time>2013-05-26T06:55:52Z</time>
      </trkpt>
      <trkpt lat="47.34834" lon="-0.65267">
        <ele>54.45</ele>
        <time>2013-05-26T06:55:57Z</time>
      </trkpt>
      <trkpt lat="47.3481" lon="-0.65273">
        <ele>53.49</ele>
        <time>2013-05-26T06:56:01Z</time>
      </trkpt>
      <trkpt lat="47.34797" lon="-0.65289">
        <ele>53.49</ele>
        <time>2013-05-26T06:56:05Z</time>
      </trkpt>
      <trkpt lat="47.3479" lon="-0.65318">
        <ele>53.49</ele>
        <time>2013-05-26T06:56:11Z</time>
      </trkpt>
      <trkpt lat="47.34791" lon="-0.65331">
        <ele>53.01</ele>
        <time>2013-05-26T06:56:14Z</time>
      </trkpt>
      <trkpt lat="47.34784" lon="-0.65339">
        <ele>53.01</ele>
        <time>2013-05-26T06:56:18Z</time>
      </trkpt>
      <trkpt lat="47.3476" lon="-0.65351">
        <ele>54.45</ele>
        <time>2013-05-26T06:56:26Z</time>
      </trkpt>
      <trkpt lat="47.34735" lon="-0.65359">
        <ele>57.34</ele>
        <time>2013-05-26T06:56:34Z</time>
      </trkpt>
      <trkpt lat="47.34719" lon="-0.65361">
        <ele>58.3</ele>
        <time>2013-05-26T06:56:39Z</time>
      </trkpt>
      <trkpt lat="47.34717" lon="-0.65388">
        <ele>57.82</ele>
        <time>2013-05-26T06:56:45Z</time>
      </trkpt>
      <trkpt lat="47.34718" lon="-0.65409">
        <ele>56.37</ele>
        <time>2013-05-26T06:56:48Z</time>
      </trkpt>
      <trkpt lat="47.34719" lon="-0.65438">
        <ele>52.53</ele>
        <time>2013-05-26T06:56:51Z</time>
      </trkpt>
      <trkpt lat="47.3472" lon="-0.65446">
        <ele>51.09</ele>
        <time>2013-05-26T06:56:52Z</time>
      </trkpt>
      <trkpt lat="47.34728" lon="-0.65469">
        <ele>48.68</ele>
        <time>2013-05-26T06:56:56Z</time>
      </trkpt>
      <trkpt lat="47.34721" lon="-0.65475">
        <ele>49.16</ele>
        <time>2013-05-26T06:56:59Z</time>
      </trkpt>
      <trkpt lat="47.34707" lon="-0.65476">
        <ele>50.13</ele>
        <time>2013-05-26T06:57:04Z</time>
      </trkpt>
      <trkpt lat="47.34705" lon="-0.65491">
        <ele>51.09</ele>
        <time>2013-05-26T06:57:07Z</time>
      </trkpt>
      <trkpt lat="47.34702" lon="-0.65525">
        <ele>52.53</ele>
        <time>2013-05-26T06:57:14Z</time>
      </trkpt>
      <trkpt lat="47.34699" lon="-0.65582">
        <ele>52.05</ele>
        <time>2013-05-26T06:57:23Z</time>
      </trkpt>
      <trkpt lat="47.34698" lon="-0.65589">
        <ele>51.57</ele>
        <time>2013-05-26T06:57:24Z</time>
      </trkpt>
      <trkpt lat="47.34688" lon="-0.656">
        <ele>50.61</ele>
        <time>2013-05-26T06:57:29Z</time>
      </trkpt>
      <trkpt lat="47.3467" lon="-0.656">
        <ele>51.09</ele>
        <time>2013-05-26T06:57:35Z</time>
      </trkpt>
      <trkpt lat="47.34647" lon="-0.65588">
        <ele>52.05</ele>
        <time>2013-05-26T06:57:42Z</time>
      </trkpt>
      <trkpt lat="47.34628" lon="-0.65581">
        <ele>52.53</ele>
        <time>2013-05-26T06:57:48Z</time>
      </trkpt>
      <trkpt lat="47.34604" lon="-0.65567">
        <ele>53.97</ele>
        <time>2013-05-26T06:57:56Z</time>
      </trkpt>
      <trkpt lat="47.34583" lon="-0.65556">
        <ele>54.93</ele>
        <time>2013-05-26T06:58:04Z</time>
      </trkpt>
      <trkpt lat="47.34563" lon="-0.65546">
        <ele>55.89</ele>
        <time>2013-05-26T06:58:13Z</time>
      </trkpt>
      <trkpt lat="47.34551" lon="-0.6555">
        <ele>56.37</ele>
        <time>2013-05-26T06:58:19Z</time>
      </trkpt>
      <trkpt lat="47.34543" lon="-0.65557">
        <ele>57.34</ele>
        <time>2013-05-26T06:58:25Z</time>
      </trkpt>
      <trkpt lat="47.34542" lon="-0.65577">
        <ele>57.34</ele>
        <time>2013-05-26T06:58:30Z</time>
      </trkpt>
      <trkpt lat="47.34537" lon="-0.65614">
        <ele>58.3</ele>
        <time>2013-05-26T06:58:39Z</time>
      </trkpt>
      <trkpt lat="47.34534" lon="-0.65646">
        <ele>59.26</ele>
        <time>2013-05-26T06:58:47Z</time>
      </trkpt>
      <trkpt lat="47.34525" lon="-0.65651">
        <ele>59.26</ele>
        <time>2013-05-26T06:58:51Z</time>
      </trkpt>
      <trkpt lat="47.3452" lon="-0.65651">
        <ele>60.22</ele>
        <time>2013-05-26T06:58:53Z</time>
      </trkpt>
      <trkpt lat="47.34499" lon="-0.65644">
        <ele>61.66</ele>
        <time>2013-05-26T06:59:01Z</time>
      </trkpt>
      <trkpt lat="47.34478" lon="-0.65638">
        <ele>62.14</ele>
        <time>2013-05-26T06:59:09Z</time>
      </trkpt>
      <trkpt lat="47.34457" lon="-0.65635">
        <ele>63.58</ele>
        <time>2013-05-26T06:59:17Z</time>
      </trkpt>
      <trkpt lat="47.34452" lon="-0.65634">
        <ele>63.58</ele>
        <time>2013-05-26T06:59:19Z</time>
      </trkpt>
      <trkpt lat="47.34446" lon="-0.65655">
        <ele>65.03</ele>
        <time>2013-05-26T06:59:26Z</time>
      </trkpt>
      <trkpt lat="47.34445" lon="-0.65679">
        <ele>65.99</ele>
        <time>2013-05-26T06:59:33Z</time>
      </trkpt>
      <trkpt lat="47.34444" lon="-0.65707">
        <ele>66.95</ele>
        <time>2013-05-26T06:59:41Z</time>
      </trkpt>
      <trkpt lat="47.34442" lon="-0.65733">
        <ele>68.39</ele>
        <time>2013-05-26T06:59:48Z</time>
      </trkpt>
      <trkpt lat="47.34437" lon="-0.65764">
        <ele>69.35</ele>
        <time>2013-05-26T06:59:57Z</time>
      </trkpt>
      <trkpt lat="47.34435" lon="-0.65777">
        <ele>69.83</ele>
        <time>2013-05-26T07:00:01Z</time>
      </trkpt>
      <trkpt lat="47.34448" lon="-0.65784">
        <ele>68.87</ele>
        <time>2013-05-26T07:00:06Z</time>
      </trkpt>
      <trkpt lat="47.34451" lon="-0.65785">
        <ele>68.87</ele>
        <time>2013-05-26T07:00:07Z</time>
      </trkpt>
      <trkpt lat="47.34454" lon="-0.65805">
        <ele>67.91</ele>
        <time>2013-05-26T07:00:12Z</time>
      </trkpt>
      <trkpt lat="47.34453" lon="-0.65809">
        <ele>68.39</ele>
        <time>2013-05-26T07:00:13Z</time>
      </trkpt>
      <trkpt lat="47.34444" lon="-0.65832">
        <ele>69.83</ele>
        <time>2013-05-26T07:00:19Z</time>
      </trkpt>
      <trkpt lat="47.34437" lon="-0.65854">
        <ele>71.27</ele>
        <time>2013-05-26T07:00:26Z</time>
      </trkpt>
      <trkpt lat="47.34428" lon="-0.65882">
        <ele>72.24</ele>
        <time>2013-05-26T07:00:34Z</time>
      </trkpt>
      <trkpt lat="47.34418" lon="-0.65909">
        <ele>74.16</ele>
        <time>2013-05-26T07:00:42Z</time>
      </trkpt>
      <trkpt lat="47.34417" lon="-0.6591">
        <ele>73.68</ele>
        <time>2013-05-26T07:00:43Z</time>
      </trkpt>
      <trkpt lat="47.3441" lon="-0.65935">
        <ele>75.12</ele>
        <time>2013-05-26T07:00:50Z</time>
      </trkpt>
      <trkpt lat="47.34403" lon="-0.65958">
        <ele>76.56</ele>
        <time>2013-05-26T07:00:58Z</time>
      </trkpt>
      <trkpt lat="47.34394" lon="-0.65985">
        <ele>77.04</ele>
        <time>2013-05-26T07:01:06Z</time>
      </trkpt>
      <trkpt lat="47.34387" lon="-0.66003">
        <ele>77.04</ele>
        <time>2013-05-26T07:01:13Z</time>
      </trkpt>
      <trkpt lat="47.3438" lon="-0.6602">
        <ele>77.04</ele>
        <time>2013-05-26T07:01:19Z</time>
      </trkpt>
      <trkpt lat="47.34357" lon="-0.66021">
        <ele>78.97</ele>
        <time>2013-05-26T07:01:28Z</time>
      </trkpt>
      <trkpt lat="47.34339" lon="-0.66018">
        <ele>80.89</ele>
        <time>2013-05-26T07:01:36Z</time>
      </trkpt>
      <trkpt lat="47.34322" lon="-0.66016">
        <ele>82.33</ele>
        <time>2013-05-26T07:01:43Z</time>
      </trkpt>
      <trkpt lat="47.34304" lon="-0.66012">
        <ele>82.81</ele>
        <time>2013-05-26T07:01:51Z</time>
      </trkpt>
      <trkpt lat="47.34289" lon="-0.66009">
        <ele>83.77</ele>
        <time>2013-05-26T07:01:57Z</time>
      </trkpt>
      <trkpt lat="47.34269" lon="-0.66002">
        <ele>84.73</ele>
        <time>2013-05-26T07:02:05Z</time>
      </trkpt>
      <trkpt lat="47.34264" lon="-0.66001">
        <ele>85.21</ele>
        <time>2013-05-26T07:02:07Z</time>
      </trkpt>
      <trkpt lat="47.3426" lon="-0.66021">
        <ele>85.21</ele>
        <time>2013-05-26T07:02:13Z</time>
      </trkpt>
      <trkpt lat="47.34258" lon="-0.66053">
        <ele>85.21</ele>
        <time>2013-05-26T07:02:20Z</time>
      </trkpt>
      <trkpt lat="47.34256" lon="-0.66082">
        <ele>86.18</ele>
        <time>2013-05-26T07:02:26Z</time>
      </trkpt>
      <trkpt lat="47.34249" lon="-0.66116">
        <ele>86.18</ele>
        <time>2013-05-26T07:02:33Z</time>
      </trkpt>
      <trkpt lat="47.3424" lon="-0.66151">
        <ele>86.18</ele>
        <time>2013-05-26T07:02:41Z</time>
      </trkpt>
      <trkpt lat="47.34224" lon="-0.66199">
        <ele>86.18</ele>
        <time>2013-05-26T07:02:51Z</time>
      </trkpt>
      <trkpt lat="47.34212" lon="-0.66243">
        <ele>86.18</ele>
        <time>2013-05-26T07:02:59Z</time>
      </trkpt>
      <trkpt lat="47.34197" lon="-0.66285">
        <ele>87.14</ele>
        <time>2013-05-26T07:03:08Z</time>
      </trkpt>
      <trkpt lat="47.34186" lon="-0.66307">
        <ele>87.62</ele>
        <time>2013-05-26T07:03:14Z</time>
      </trkpt>
      <trkpt lat="47.34166" lon="-0.66333">
        <ele>88.58</ele>
        <time>2013-05-26T07:03:22Z</time>
      </trkpt>
      <trkpt lat="47.34145" lon="-0.66338">
        <ele>89.06</ele>
        <time>2013-05-26T07:03:29Z</time>
      </trkpt>
      <trkpt lat="47.34128" lon="-0.66328">
        <ele>90.5</ele>
        <time>2013-05-26T07:03:35Z</time>
      </trkpt>
      <trkpt lat="47.34119" lon="-0.66319">
        <ele>91.46</ele>
        <time>2013-05-26T07:03:39Z</time>
      </trkpt>
      <trkpt lat="47.34099" lon="-0.66313">
        <ele>91.46</ele>
        <time>2013-05-26T07:03:47Z</time>
      </trkpt>
      <trkpt lat="47.34062" lon="-0.66324">
        <ele>92.9</ele>
        <time>2013-05-26T07:03:58Z</time>
      </trkpt>
      <trkpt lat="47.34042" lon="-0.6633">
        <ele>92.9</ele>
        <time>2013-05-26T07:04:04Z</time>
      </trkpt>
      <trkpt lat="47.34021" lon="-0.66335">
        <ele>93.87</ele>
        <time>2013-05-26T07:04:10Z</time>
      </trkpt>
      <trkpt lat="47.34002" lon="-0.66339">
        <ele>93.87</ele>
        <time>2013-05-26T07:04:17Z</time>
      </trkpt>
      <trkpt lat="47.33996" lon="-0.66336">
        <ele>94.35</ele>
        <time>2013-05-26T07:04:20Z</time>
      </trkpt>
      <trkpt lat="47.33992" lon="-0.66304">
        <ele>94.35</ele>
        <time>2013-05-26T07:04:27Z</time>
      </trkpt>
      <trkpt lat="47.33981" lon="-0.66239">
        <ele>94.83</ele>
        <time>2013-05-26T07:04:39Z</time>
      </trkpt>
      <trkpt lat="47.33965" lon="-0.66186">
        <ele>94.83</ele>
        <time>2013-05-26T07:04:49Z</time>
      </trkpt>
      <trkpt lat="47.33946" lon="-0.66132">
        <ele>95.31</ele>
        <time>2013-05-26T07:04:59Z</time>
      </trkpt>
      <trkpt lat="47.33932" lon="-0.66096">
        <ele>95.79</ele>
        <time>2013-05-26T07:05:06Z</time>
      </trkpt>
      <trkpt lat="47.33921" lon="-0.66064">
        <ele>95.79</ele>
        <time>2013-05-26T07:05:12Z</time>
      </trkpt>
      <trkpt lat="47.33904" lon="-0.6602">
        <ele>95.79</ele>
        <time>2013-05-26T07:05:20Z</time>
      </trkpt>
      <trkpt lat="47.33902" lon="-0.66014">
        <ele>95.79</ele>
        <time>2013-05-26T07:05:21Z</time>
      </trkpt>
      <trkpt lat="47.33886" lon="-0.65979">
        <ele>96.27</ele>
        <time>2013-05-26T07:05:28Z</time>
      </trkpt>
      <trkpt lat="47.33878" lon="-0.65957">
        <ele>96.27</ele>
        <time>2013-05-26T07:05:32Z</time>
      </trkpt>
      <trkpt lat="47.33856" lon="-0.65899">
        <ele>96.75</ele>
        <time>2013-05-26T07:05:42Z</time>
      </trkpt>
      <trkpt lat="47.33834" lon="-0.65835">
        <ele>95.79</ele>
        <time>2013-05-26T07:05:52Z</time>
      </trkpt>
      <trkpt lat="47.33818" lon="-0.65779">
        <ele>95.31</ele>
        <time>2013-05-26T07:06:00Z</time>
      </trkpt>
      <trkpt lat="47.33813" lon="-0.65757">
        <ele>94.83</ele>
        <time>2013-05-26T07:06:03Z</time>
      </trkpt>
      <trkpt lat="47.33801" lon="-0.65699">
        <ele>95.31</ele>
        <time>2013-05-26T07:06:11Z</time>
      </trkpt>
      <trkpt lat="47.33791" lon="-0.65644">
        <ele>95.79</ele>
        <time>2013-05-26T07:06:19Z</time>
      </trkpt>
      <trkpt lat="47.33787" lon="-0.65624">
        <ele>95.79</ele>
        <time>2013-05-26T07:06:22Z</time>
      </trkpt>
      <trkpt lat="47.3377" lon="-0.65607">
        <ele>95.31</ele>
        <time>2013-05-26T07:06:27Z</time>
      </trkpt>
      <trkpt lat="47.33766" lon="-0.65609">
        <ele>95.79</ele>
        <time>2013-05-26T07:06:28Z</time>
      </trkpt>
      <trkpt lat="47.33745" lon="-0.65614">
        <ele>95.79</ele>
        <time>2013-05-26T07:06:33Z</time>
      </trkpt>
      <trkpt lat="47.33704" lon="-0.6563">
        <ele>95.31</ele>
        <time>2013-05-26T07:06:42Z</time>
      </trkpt>
      <trkpt lat="47.33682" lon="-0.65635">
        <ele>93.87</ele>
        <time>2013-05-26T07:06:46Z</time>
      </trkpt>
      <trkpt lat="47.3363" lon="-0.65635">
        <ele>91.94</ele>
        <time>2013-05-26T07:06:54Z</time>
      </trkpt>
      <trkpt lat="47.33623" lon="-0.65634">
        <ele>91.94</ele>
        <time>2013-05-26T07:06:55Z</time>
      </trkpt>
      <trkpt lat="47.3359" lon="-0.65619">
        <ele>90.98</ele>
        <time>2013-05-26T07:07:00Z</time>
      </trkpt>
      <trkpt lat="47.33554" lon="-0.65583">
        <ele>90.5</ele>
        <time>2013-05-26T07:07:08Z</time>
      </trkpt>
      <trkpt lat="47.33535" lon="-0.65567">
        <ele>91.46</ele>
        <time>2013-05-26T07:07:12Z</time>
      </trkpt>
      <trkpt lat="47.33521" lon="-0.65555">
        <ele>91.46</ele>
        <time>2013-05-26T07:07:15Z</time>
      </trkpt>
      <trkpt lat="47.33479" lon="-0.65528">
        <ele>91.46</ele>
        <time>2013-05-26T07:07:24Z</time>
      </trkpt>
      <trkpt lat="47.33454" lon="-0.65512">
        <ele>91.46</ele>
        <time>2013-05-26T07:07:29Z</time>
      </trkpt>
      <trkpt lat="47.33416" lon="-0.65489">
        <ele>89.54</ele>
        <time>2013-05-26T07:07:36Z</time>
      </trkpt>
      <trkpt lat="47.3337" lon="-0.65487">
        <ele>86.66</ele>
        <time>2013-05-26T07:07:42Z</time>
      </trkpt>
      <trkpt lat="47.33323" lon="-0.65496">
        <ele>85.69</ele>
        <time>2013-05-26T07:07:48Z</time>
      </trkpt>
      <trkpt lat="47.33278" lon="-0.65511">
        <ele>84.25</ele>
        <time>2013-05-26T07:07:54Z</time>
      </trkpt>
      <trkpt lat="47.33222" lon="-0.65544">
        <ele>82.81</ele>
        <time>2013-05-26T07:08:03Z</time>
      </trkpt>
      <trkpt lat="47.33192" lon="-0.65578">
        <ele>82.33</ele>
        <time>2013-05-26T07:08:09Z</time>
      </trkpt>
      <trkpt lat="47.33188" lon="-0.65584">
        <ele>82.33</ele>
        <time>2013-05-26T07:08:10Z</time>
      </trkpt>
      <trkpt lat="47.33157" lon="-0.65613">
        <ele>82.81</ele>
        <time>2013-05-26T07:08:18Z</time>
      </trkpt>
      <trkpt lat="47.33153" lon="-0.65617">
        <ele>82.33</ele>
        <time>2013-05-26T07:08:19Z</time>
      </trkpt>
      <trkpt lat="47.33154" lon="-0.65645">
        <ele>83.29</ele>
        <time>2013-05-26T07:08:24Z</time>
      </trkpt>
      <trkpt lat="47.33168" lon="-0.65699">
        <ele>82.81</ele>
        <time>2013-05-26T07:08:33Z</time>
      </trkpt>
      <trkpt lat="47.33164" lon="-0.65727">
        <ele>83.29</ele>
        <time>2013-05-26T07:08:38Z</time>
      </trkpt>
      <trkpt lat="47.33166" lon="-0.65739">
        <ele>82.81</ele>
        <time>2013-05-26T07:08:40Z</time>
      </trkpt>
      <trkpt lat="47.33176" lon="-0.65806">
        <ele>78.97</ele>
        <time>2013-05-26T07:08:49Z</time>
      </trkpt>
      <trkpt lat="47.33177" lon="-0.65812">
        <ele>78.97</ele>
        <time>2013-05-26T07:08:50Z</time>
      </trkpt>
      <trkpt lat="47.33167" lon="-0.65825">
        <ele>77.52</ele>
        <time>2013-05-26T07:08:54Z</time>
      </trkpt>
      <trkpt lat="47.33151" lon="-0.65833">
        <ele>77.52</ele>
        <time>2013-05-26T07:08:58Z</time>
      </trkpt>
      <trkpt lat="47.33127" lon="-0.65845">
        <ele>77.04</ele>
        <time>2013-05-26T07:09:04Z</time>
      </trkpt>
      <trkpt lat="47.33123" lon="-0.65858">
        <ele>77.04</ele>
        <time>2013-05-26T07:09:08Z</time>
      </trkpt>
      <trkpt lat="47.33129" lon="-0.65886">
        <ele>73.68</ele>
        <time>2013-05-26T07:09:14Z</time>
      </trkpt>
      <trkpt lat="47.3313" lon="-0.6589">
        <ele>73.68</ele>
        <time>2013-05-26T07:09:15Z</time>
      </trkpt>
      <trkpt lat="47.33134" lon="-0.65915">
        <ele>71.27</ele>
        <time>2013-05-26T07:09:22Z</time>
      </trkpt>
      <trkpt lat="47.33136" lon="-0.6593">
        <ele>68.87</ele>
        <time>2013-05-26T07:09:27Z</time>
      </trkpt>
      <trkpt lat="47.33136" lon="-0.6593">
        <ele>68.87</ele>
        <time>2013-05-26T07:09:34Z</time>
      </trkpt>
      <trkpt lat="47.33136" lon="-0.6593">
        <ele>68.87</ele>
        <time>2013-05-26T07:09:36Z</time>
      </trkpt>
      <trkpt lat="47.33137" lon="-0.65935">
        <ele>67.91</ele>
        <time>2013-05-26T07:09:40Z</time>
      </trkpt>
      <trkpt lat="47.33137" lon="-0.6594">
        <ele>66.95</ele>
        <time>2013-05-26T07:09:44Z</time>
      </trkpt>
      <trkpt lat="47.3313" lon="-0.65945">
        <ele>66.95</ele>
        <time>2013-05-26T07:09:47Z</time>
      </trkpt>
      <trkpt lat="47.33105" lon="-0.65954">
        <ele>66.47</ele>
        <time>2013-05-26T07:09:53Z</time>
      </trkpt>
      <trkpt lat="47.33103" lon="-0.65955">
        <ele>66.47</ele>
        <time>2013-05-26T07:09:54Z</time>
      </trkpt>
      <trkpt lat="47.33093" lon="-0.6596">
        <ele>66.47</ele>
        <time>2013-05-26T07:09:59Z</time>
      </trkpt>
      <trkpt lat="47.33093" lon="-0.65975">
        <ele>64.07</ele>
        <time>2013-05-26T07:10:03Z</time>
      </trkpt>
      <trkpt lat="47.33096" lon="-0.65998">
        <ele>60.22</ele>
        <time>2013-05-26T07:10:08Z</time>
      </trkpt>
      <trkpt lat="47.33098" lon="-0.66016">
        <ele>56.86</ele>
        <time>2013-05-26T07:10:11Z</time>
      </trkpt>
      <trkpt lat="47.33103" lon="-0.66046">
        <ele>52.05</ele>
        <time>2013-05-26T07:10:15Z</time>
      </trkpt>
      <trkpt lat="47.33105" lon="-0.66064">
        <ele>50.61</ele>
        <time>2013-05-26T07:10:18Z</time>
      </trkpt>
      <trkpt lat="47.3311" lon="-0.66094">
        <ele>47.72</ele>
        <time>2013-05-26T07:10:23Z</time>
      </trkpt>
      <trkpt lat="47.33112" lon="-0.66105">
        <ele>46.28</ele>
        <time>2013-05-26T07:10:25Z</time>
      </trkpt>
      <trkpt lat="47.33115" lon="-0.66116">
        <ele>45.32</ele>
        <time>2013-05-26T07:10:27Z</time>
      </trkpt>
      <trkpt lat="47.33113" lon="-0.66136">
        <ele>44.36</ele>
        <time>2013-05-26T07:10:32Z</time>
      </trkpt>
      <trkpt lat="47.33101" lon="-0.66146">
        <ele>45.8</ele>
        <time>2013-05-26T07:10:37Z</time>
      </trkpt>
      <trkpt lat="47.33099" lon="-0.66149">
        <ele>45.8</ele>
        <time>2013-05-26T07:10:38Z</time>
      </trkpt>
      <trkpt lat="47.33069" lon="-0.6618">
        <ele>46.28</ele>
        <time>2013-05-26T07:10:49Z</time>
      </trkpt>
      <trkpt lat="47.33059" lon="-0.66187">
        <ele>46.28</ele>
        <time>2013-05-26T07:10:52Z</time>
      </trkpt>
      <trkpt lat="47.33047" lon="-0.66192">
        <ele>45.8</ele>
        <time>2013-05-26T07:10:55Z</time>
      </trkpt>
      <trkpt lat="47.3303" lon="-0.66184">
        <ele>44.84</ele>
        <time>2013-05-26T07:10:59Z</time>
      </trkpt>
      <trkpt lat="47.33022" lon="-0.66168">
        <ele>48.68</ele>
        <time>2013-05-26T07:11:04Z</time>
      </trkpt>
      <trkpt lat="47.33013" lon="-0.66145">
        <ele>50.61</ele>
        <time>2013-05-26T07:11:10Z</time>
      </trkpt>
      <trkpt lat="47.33" lon="-0.66127">
        <ele>53.01</ele>
        <time>2013-05-26T07:11:16Z</time>
      </trkpt>
      <trkpt lat="47.3299" lon="-0.66104">
        <ele>54.93</ele>
        <time>2013-05-26T07:11:23Z</time>
      </trkpt>
      <trkpt lat="47.32984" lon="-0.66084">
        <ele>56.86</ele>
        <time>2013-05-26T07:11:29Z</time>
      </trkpt>
      <trkpt lat="47.32979" lon="-0.66065">
        <ele>59.26</ele>
        <time>2013-05-26T07:11:35Z</time>
      </trkpt>
      <trkpt lat="47.32974" lon="-0.66046">
        <ele>59.74</ele>
        <time>2013-05-26T07:11:41Z</time>
      </trkpt>
      <trkpt lat="47.32969" lon="-0.66019">
        <ele>61.18</ele>
        <time>2013-05-26T07:11:48Z</time>
      </trkpt>
      <trkpt lat="47.32969" lon="-0.66015">
        <ele>61.66</ele>
        <time>2013-05-26T07:11:49Z</time>
      </trkpt>
      <trkpt lat="47.3297" lon="-0.66006">
        <ele>62.14</ele>
        <time>2013-05-26T07:11:51Z</time>
      </trkpt>
      <trkpt lat="47.32973" lon="-0.66001">
        <ele>63.1</ele>
        <time>2013-05-26T07:11:53Z</time>
      </trkpt>
      <trkpt lat="47.3298" lon="-0.65988">
        <ele>65.03</ele>
        <time>2013-05-26T07:11:59Z</time>
      </trkpt>
      <trkpt lat="47.32983" lon="-0.65974">
        <ele>66.47</ele>
        <time>2013-05-26T07:12:05Z</time>
      </trkpt>
      <trkpt lat="47.32991" lon="-0.65973">
        <ele>67.91</ele>
        <time>2013-05-26T07:12:10Z</time>
      </trkpt>
      <trkpt lat="47.33" lon="-0.65967">
        <ele>68.39</ele>
        <time>2013-05-26T07:12:15Z</time>
      </trkpt>
      <trkpt lat="47.33022" lon="-0.65949">
        <ele>69.35</ele>
        <time>2013-05-26T07:12:26Z</time>
      </trkpt>
      <trkpt lat="47.33028" lon="-0.65938">
        <ele>70.31</ele>
        <time>2013-05-26T07:12:31Z</time>
      </trkpt>
      <trkpt lat="47.33023" lon="-0.65914">
        <ele>72.72</ele>
        <time>2013-05-26T07:12:40Z</time>
      </trkpt>
      <trkpt lat="47.33019" lon="-0.65895">
        <ele>73.68</ele>
        <time>2013-05-26T07:12:48Z</time>
      </trkpt>
      <trkpt lat="47.33014" lon="-0.65872">
        <ele>75.6</ele>
        <time>2013-05-26T07:12:57Z</time>
      </trkpt>
      <trkpt lat="47.33011" lon="-0.65852">
        <ele>76.56</ele>
        <time>2013-05-26T07:13:04Z</time>
      </trkpt>
      <trkpt lat="47.33004" lon="-0.65831">
        <ele>77.52</ele>
        <time>2013-05-26T07:13:12Z</time>
      </trkpt>
      <trkpt lat="47.32996" lon="-0.65806">
        <ele>78</ele>
        <time>2013-05-26T07:13:20Z</time>
      </trkpt>
      <trkpt lat="47.32989" lon="-0.65782">
        <ele>77.52</ele>
        <time>2013-05-26T07:13:27Z</time>
      </trkpt>
      <trkpt lat="47.32983" lon="-0.65755">
        <ele>78</ele>
        <time>2013-05-26T07:13:34Z</time>
      </trkpt>
      <trkpt lat="47.3298" lon="-0.65748">
        <ele>76.56</ele>
        <time>2013-05-26T07:13:36Z</time>
      </trkpt>
      <trkpt lat="47.32969" lon="-0.65746">
        <ele>75.6</ele>
        <time>2013-05-26T07:13:40Z</time>
      </trkpt>
      <trkpt lat="47.32951" lon="-0.65755">
        <ele>75.12</ele>
        <time>2013-05-26T07:13:48Z</time>
      </trkpt>
      <trkpt lat="47.32945" lon="-0.65747">
        <ele>74.64</ele>
        <time>2013-05-26T07:13:54Z</time>
      </trkpt>
      <trkpt lat="47.32938" lon="-0.65746">
        <ele>74.64</ele>
        <time>2013-05-26T07:13:59Z</time>
      </trkpt>
      <trkpt lat="47.32938" lon="-0.65746">
        <ele>74.16</ele>
        <time>2013-05-26T07:14:06Z</time>
      </trkpt>
      <trkpt lat="47.32938" lon="-0.65746">
        <ele>74.64</ele>
        <time>2013-05-26T07:14:20Z</time>
      </trkpt>
      <trkpt lat="47.32938" lon="-0.65746">
        <ele>74.64</ele>
        <time>2013-05-26T07:14:34Z</time>
      </trkpt>
      <trkpt lat="47.32938" lon="-0.65746">
        <ele>74.16</ele>
        <time>2013-05-26T07:14:46Z</time>
      </trkpt>
      <trkpt lat="47.32936" lon="-0.65743">
        <ele>73.68</ele>
        <time>2013-05-26T07:14:54Z</time>
      </trkpt>
      <trkpt lat="47.32929" lon="-0.65727">
        <ele>73.2</ele>
        <time>2013-05-26T07:14:58Z</time>
      </trkpt>
      <trkpt lat="47.32915" lon="-0.65699">
        <ele>71.27</ele>
        <time>2013-05-26T07:15:02Z</time>
      </trkpt>
      <trkpt lat="47.32889" lon="-0.65645">
        <ele>67.91</ele>
        <time>2013-05-26T07:15:10Z</time>
      </trkpt>
      <trkpt lat="47.3288" lon="-0.65626">
        <ele>65.51</ele>
        <time>2013-05-26T07:15:14Z</time>
      </trkpt>
      <trkpt lat="47.32868" lon="-0.656">
        <ele>62.14</ele>
        <time>2013-05-26T07:15:19Z</time>
      </trkpt>
      <trkpt lat="47.32866" lon="-0.65598">
        <ele>62.14</ele>
        <time>2013-05-26T07:15:20Z</time>
      </trkpt>
      <trkpt lat="47.32856" lon="-0.65608">
        <ele>61.18</ele>
        <time>2013-05-26T07:15:24Z</time>
      </trkpt>
      <trkpt lat="47.32851" lon="-0.65618">
        <ele>60.7</ele>
        <time>2013-05-26T07:15:26Z</time>
      </trkpt>
      <trkpt lat="47.32841" lon="-0.65611">
        <ele>60.7</ele>
        <time>2013-05-26T07:15:31Z</time>
      </trkpt>
      <trkpt lat="47.32841" lon="-0.65607">
        <ele>61.18</ele>
        <time>2013-05-26T07:15:32Z</time>
      </trkpt>
      <trkpt lat="47.32831" lon="-0.65585">
        <ele>63.58</ele>
        <time>2013-05-26T07:15:38Z</time>
      </trkpt>
      <trkpt lat="47.32818" lon="-0.65559">
        <ele>65.99</ele>
        <time>2013-05-26T07:15:46Z</time>
      </trkpt>
      <trkpt lat="47.32809" lon="-0.65536">
        <ele>67.91</ele>
        <time>2013-05-26T07:15:53Z</time>
      </trkpt>
      <trkpt lat="47.32799" lon="-0.65515">
        <ele>68.87</ele>
        <time>2013-05-26T07:16:00Z</time>
      </trkpt>
      <trkpt lat="47.32787" lon="-0.65492">
        <ele>69.83</ele>
        <time>2013-05-26T07:16:08Z</time>
      </trkpt>
      <trkpt lat="47.32774" lon="-0.65468">
        <ele>69.83</ele>
        <time>2013-05-26T07:16:16Z</time>
      </trkpt>
      <trkpt lat="47.32764" lon="-0.65447">
        <ele>68.87</ele>
        <time>2013-05-26T07:16:21Z</time>
      </trkpt>
      <trkpt lat="47.32755" lon="-0.65433">
        <ele>67.91</ele>
        <time>2013-05-26T07:16:24Z</time>
      </trkpt>
      <trkpt lat="47.32732" lon="-0.65401">
        <ele>64.07</ele>
        <time>2013-05-26T07:16:31Z</time>
      </trkpt>
      <trkpt lat="47.32725" lon="-0.65387">
        <ele>62.14</ele>
        <time>2013-05-26T07:16:35Z</time>
      </trkpt>
      <trkpt lat="47.32734" lon="-0.65372">
        <ele>61.18</ele>
        <time>2013-05-26T07:16:40Z</time>
      </trkpt>
      <trkpt lat="47.32753" lon="-0.65341">
        <ele>60.7</ele>
        <time>2013-05-26T07:16:47Z</time>
      </trkpt>
      <trkpt lat="47.32774" lon="-0.653">
        <ele>59.74</ele>
        <time>2013-05-26T07:16:55Z</time>
      </trkpt>
      <trkpt lat="47.32782" lon="-0.65272">
        <ele>58.78</ele>
        <time>2013-05-26T07:17:01Z</time>
      </trkpt>
      <trkpt lat="47.32778" lon="-0.65266">
        <ele>57.82</ele>
        <time>2013-05-26T07:17:03Z</time>
      </trkpt>
      <trkpt lat="47.32771" lon="-0.65253">
        <ele>55.89</ele>
        <time>2013-05-26T07:17:07Z</time>
      </trkpt>
      <trkpt lat="47.32767" lon="-0.65245">
        <ele>54.93</ele>
        <time>2013-05-26T07:17:09Z</time>
      </trkpt>
      <trkpt lat="47.32756" lon="-0.65228">
        <ele>51.57</ele>
        <time>2013-05-26T07:17:13Z</time>
      </trkpt>
      <trkpt lat="47.32752" lon="-0.65221">
        <ele>50.61</ele>
        <time>2013-05-26T07:17:15Z</time>
      </trkpt>
      <trkpt lat="47.32747" lon="-0.65212">
        <ele>47.72</ele>
        <time>2013-05-26T07:17:19Z</time>
      </trkpt>
      <trkpt lat="47.32742" lon="-0.652">
        <ele>44.84</ele>
        <time>2013-05-26T07:17:23Z</time>
      </trkpt>
      <trkpt lat="47.32742" lon="-0.65178">
        <ele>42.92</ele>
        <time>2013-05-26T07:17:29Z</time>
      </trkpt>
      <trkpt lat="47.32729" lon="-0.65166">
        <ele>42.92</ele>
        <time>2013-05-26T07:17:34Z</time>
      </trkpt>
      <trkpt lat="47.3272" lon="-0.65151">
        <ele>44.36</ele>
        <time>2013-05-26T07:17:39Z</time>
      </trkpt>
      <trkpt lat="47.32716" lon="-0.65128">
        <ele>46.76</ele>
        <time>2013-05-26T07:17:47Z</time>
      </trkpt>
      <trkpt lat="47.32713" lon="-0.6511">
        <ele>48.68</ele>
        <time>2013-05-26T07:17:54Z</time>
      </trkpt>
      <trkpt lat="47.32709" lon="-0.65093">
        <ele>51.09</ele>
        <time>2013-05-26T07:18:01Z</time>
      </trkpt>
      <trkpt lat="47.32705" lon="-0.65074">
        <ele>53.01</ele>
        <time>2013-05-26T07:18:09Z</time>
      </trkpt>
      <trkpt lat="47.32702" lon="-0.65057">
        <ele>54.93</ele>
        <time>2013-05-26T07:18:16Z</time>
      </trkpt>
      <trkpt lat="47.32697" lon="-0.65042">
        <ele>56.37</ele>
        <time>2013-05-26T07:18:23Z</time>
      </trkpt>
      <trkpt lat="47.32696" lon="-0.6504">
        <ele>56.86</ele>
        <time>2013-05-26T07:18:24Z</time>
      </trkpt>
      <trkpt lat="47.32686" lon="-0.65043">
        <ele>57.34</ele>
        <time>2013-05-26T07:18:31Z</time>
      </trkpt>
      <trkpt lat="47.32678" lon="-0.6506">
        <ele>56.86</ele>
        <time>2013-05-26T07:18:39Z</time>
      </trkpt>
      <trkpt lat="47.32668" lon="-0.65074">
        <ele>58.78</ele>
        <time>2013-05-26T07:18:47Z</time>
      </trkpt>
      <trkpt lat="47.32656" lon="-0.65086">
        <ele>59.74</ele>
        <time>2013-05-26T07:18:56Z</time>
      </trkpt>
      <trkpt lat="47.32646" lon="-0.65104">
        <ele>59.74</ele>
        <time>2013-05-26T07:19:03Z</time>
      </trkpt>
      <trkpt lat="47.32639" lon="-0.65128">
        <ele>58.78</ele>
        <time>2013-05-26T07:19:09Z</time>
      </trkpt>
      <trkpt lat="47.32638" lon="-0.65147">
        <ele>56.86</ele>
        <time>2013-05-26T07:19:15Z</time>
      </trkpt>
      <trkpt lat="47.32633" lon="-0.65175">
        <ele>54.93</ele>
        <time>2013-05-26T07:19:22Z</time>
      </trkpt>
      <trkpt lat="47.32626" lon="-0.65209">
        <ele>52.05</ele>
        <time>2013-05-26T07:19:28Z</time>
      </trkpt>
      <trkpt lat="47.32624" lon="-0.65213">
        <ele>52.05</ele>
        <time>2013-05-26T07:19:29Z</time>
      </trkpt>
      <trkpt lat="47.32619" lon="-0.65228">
        <ele>51.09</ele>
        <time>2013-05-26T07:19:32Z</time>
      </trkpt>
      <trkpt lat="47.32617" lon="-0.65241">
        <ele>50.13</ele>
        <time>2013-05-26T07:19:34Z</time>
      </trkpt>
      <trkpt lat="47.32612" lon="-0.65263">
        <ele>48.2</ele>
        <time>2013-05-26T07:19:37Z</time>
      </trkpt>
      <trkpt lat="47.32604" lon="-0.65288">
        <ele>46.28</ele>
        <time>2013-05-26T07:19:40Z</time>
      </trkpt>
      <trkpt lat="47.32597" lon="-0.65305">
        <ele>44.36</ele>
        <time>2013-05-26T07:19:42Z</time>
      </trkpt>
      <trkpt lat="47.32583" lon="-0.65321">
        <ele>41.47</ele>
        <time>2013-05-26T07:19:47Z</time>
      </trkpt>
      <trkpt lat="47.3258" lon="-0.6531">
        <ele>41.95</ele>
        <time>2013-05-26T07:19:51Z</time>
      </trkpt>
      <trkpt lat="47.32571" lon="-0.65298">
        <ele>44.36</ele>
        <time>2013-05-26T07:19:57Z</time>
      </trkpt>
      <trkpt lat="47.32563" lon="-0.65304">
        <ele>45.8</ele>
        <time>2013-05-26T07:20:01Z</time>
      </trkpt>
      <trkpt lat="47.32554" lon="-0.65315">
        <ele>47.24</ele>
        <time>2013-05-26T07:20:07Z</time>
      </trkpt>
      <trkpt lat="47.32548" lon="-0.65325">
        <ele>47.24</ele>
        <time>2013-05-26T07:20:11Z</time>
      </trkpt>
      <trkpt lat="47.32529" lon="-0.65344">
        <ele>47.72</ele>
        <time>2013-05-26T07:20:21Z</time>
      </trkpt>
      <trkpt lat="47.3251" lon="-0.65364">
        <ele>47.72</ele>
        <time>2013-05-26T07:20:28Z</time>
      </trkpt>
      <trkpt lat="47.32489" lon="-0.65386">
        <ele>48.2</ele>
        <time>2013-05-26T07:20:36Z</time>
      </trkpt>
      <trkpt lat="47.32468" lon="-0.65413">
        <ele>48.68</ele>
        <time>2013-05-26T07:20:45Z</time>
      </trkpt>
      <trkpt lat="47.32457" lon="-0.65429">
        <ele>48.68</ele>
        <time>2013-05-26T07:20:50Z</time>
      </trkpt>
      <trkpt lat="47.32442" lon="-0.65454">
        <ele>48.68</ele>
        <time>2013-05-26T07:20:57Z</time>
      </trkpt>
      <trkpt lat="47.3242" lon="-0.65483">
        <ele>47.72</ele>
        <time>2013-05-26T07:21:04Z</time>
      </trkpt>
      <trkpt lat="47.32406" lon="-0.65506">
        <ele>47.24</ele>
        <time>2013-05-26T07:21:10Z</time>
      </trkpt>
      <trkpt lat="47.32396" lon="-0.65516">
        <ele>46.28</ele>
        <time>2013-05-26T07:21:13Z</time>
      </trkpt>
      <trkpt lat="47.32386" lon="-0.6551">
        <ele>46.76</ele>
        <time>2013-05-26T07:21:17Z</time>
      </trkpt>
      <trkpt lat="47.32384" lon="-0.65507">
        <ele>46.76</ele>
        <time>2013-05-26T07:21:18Z</time>
      </trkpt>
      <trkpt lat="47.32367" lon="-0.65475">
        <ele>49.16</ele>
        <time>2013-05-26T07:21:27Z</time>
      </trkpt>
      <trkpt lat="47.32352" lon="-0.65446">
        <ele>51.09</ele>
        <time>2013-05-26T07:21:36Z</time>
      </trkpt>
      <trkpt lat="47.32339" lon="-0.65421">
        <ele>51.09</ele>
        <time>2013-05-26T07:21:43Z</time>
      </trkpt>
      <trkpt lat="47.32328" lon="-0.65398">
        <ele>52.05</ele>
        <time>2013-05-26T07:21:50Z</time>
      </trkpt>
      <trkpt lat="47.3232" lon="-0.65377">
        <ele>52.05</ele>
        <time>2013-05-26T07:21:56Z</time>
      </trkpt>
      <trkpt lat="47.32326" lon="-0.65362">
        <ele>54.45</ele>
        <time>2013-05-26T07:22:02Z</time>
      </trkpt>
      <trkpt lat="47.3233" lon="-0.65359">
        <ele>55.41</ele>
        <time>2013-05-26T07:22:04Z</time>
      </trkpt>
      <trkpt lat="47.32339" lon="-0.65346">
        <ele>57.82</ele>
        <time>2013-05-26T07:22:12Z</time>
      </trkpt>
      <trkpt lat="47.32346" lon="-0.6534">
        <ele>58.78</ele>
        <time>2013-05-26T07:22:17Z</time>
      </trkpt>
      <trkpt lat="47.32343" lon="-0.65328">
        <ele>59.26</ele>
        <time>2013-05-26T07:22:23Z</time>
      </trkpt>
      <trkpt lat="47.32336" lon="-0.65307">
        <ele>60.22</ele>
        <time>2013-05-26T07:22:32Z</time>
      </trkpt>
      <trkpt lat="47.3233" lon="-0.65285">
        <ele>61.66</ele>
        <time>2013-05-26T07:22:41Z</time>
      </trkpt>
      <trkpt lat="47.32324" lon="-0.65263">
        <ele>62.62</ele>
        <time>2013-05-26T07:22:50Z</time>
      </trkpt>
      <trkpt lat="47.32321" lon="-0.65244">
        <ele>64.07</ele>
        <time>2013-05-26T07:22:57Z</time>
      </trkpt>
      <trkpt lat="47.32318" lon="-0.65222">
        <ele>65.03</ele>
        <time>2013-05-26T07:23:05Z</time>
      </trkpt>
      <trkpt lat="47.32324" lon="-0.65207">
        <ele>66.47</ele>
        <time>2013-05-26T07:23:12Z</time>
      </trkpt>
      <trkpt lat="47.32338" lon="-0.65187">
        <ele>68.39</ele>
        <time>2013-05-26T07:23:22Z</time>
      </trkpt>
      <trkpt lat="47.3235" lon="-0.6517">
        <ele>69.83</ele>
        <time>2013-05-26T07:23:31Z</time>
      </trkpt>
      <trkpt lat="47.32362" lon="-0.65154">
        <ele>70.31</ele>
        <time>2013-05-26T07:23:39Z</time>
      </trkpt>
      <trkpt lat="47.3238" lon="-0.65128">
        <ele>71.76</ele>
        <time>2013-05-26T07:23:50Z</time>
      </trkpt>
      <trkpt lat="47.32397" lon="-0.65104">
        <ele>72.24</ele>
        <time>2013-05-26T07:24:00Z</time>
      </trkpt>
      <trkpt lat="47.32411" lon="-0.65086">
        <ele>73.2</ele>
        <time>2013-05-26T07:24:08Z</time>
      </trkpt>
      <trkpt lat="47.32417" lon="-0.65076">
        <ele>74.16</ele>
        <time>2013-05-26T07:24:13Z</time>
      </trkpt>
      <trkpt lat="47.32412" lon="-0.65058">
        <ele>73.68</ele>
        <time>2013-05-26T07:24:20Z</time>
      </trkpt>
      <trkpt lat="47.3241" lon="-0.65054">
        <ele>73.68</ele>
        <time>2013-05-26T07:24:25Z</time>
      </trkpt>
      <trkpt lat="47.3241" lon="-0.65054">
        <ele>73.68</ele>
        <time>2013-05-26T07:24:33Z</time>
      </trkpt>
      <trkpt lat="47.3241" lon="-0.65054">
        <ele>74.16</ele>
        <time>2013-05-26T07:24:45Z</time>
      </trkpt>
      <trkpt lat="47.3241" lon="-0.65053">
        <ele>73.68</ele>
        <time>2013-05-26T07:24:53Z</time>
      </trkpt>
      <trkpt lat="47.32402" lon="-0.65038">
        <ele>73.68</ele>
        <time>2013-05-26T07:25:00Z</time>
      </trkpt>
      <trkpt lat="47.32386" lon="-0.65009">
        <ele>72.72</ele>
        <time>2013-05-26T07:25:07Z</time>
      </trkpt>
      <trkpt lat="47.32367" lon="-0.64976">
        <ele>69.83</ele>
        <time>2013-05-26T07:25:14Z</time>
      </trkpt>
      <trkpt lat="47.32373" lon="-0.64955">
        <ele>70.31</ele>
        <time>2013-05-26T07:25:19Z</time>
      </trkpt>
      <trkpt lat="47.32375" lon="-0.64953">
        <ele>69.83</ele>
        <time>2013-05-26T07:25:20Z</time>
      </trkpt>
      <trkpt lat="47.32402" lon="-0.64923">
        <ele>71.76</ele>
        <time>2013-05-26T07:25:30Z</time>
      </trkpt>
      <trkpt lat="47.32416" lon="-0.64905">
        <ele>73.2</ele>
        <time>2013-05-26T07:25:36Z</time>
      </trkpt>
      <trkpt lat="47.32426" lon="-0.64887">
        <ele>73.68</ele>
        <time>2013-05-26T07:25:41Z</time>
      </trkpt>
      <trkpt lat="47.32422" lon="-0.64841">
        <ele>72.24</ele>
        <time>2013-05-26T07:25:48Z</time>
      </trkpt>
      <trkpt lat="47.32403" lon="-0.64795">
        <ele>68.87</ele>
        <time>2013-05-26T07:25:53Z</time>
      </trkpt>
      <trkpt lat="47.32391" lon="-0.64762">
        <ele>67.43</ele>
        <time>2013-05-26T07:25:56Z</time>
      </trkpt>
      <trkpt lat="47.32395" lon="-0.6474">
        <ele>67.91</ele>
        <time>2013-05-26T07:26:00Z</time>
      </trkpt>
      <trkpt lat="47.32414" lon="-0.64718">
        <ele>69.35</ele>
        <time>2013-05-26T07:26:08Z</time>
      </trkpt>
      <trkpt lat="47.32425" lon="-0.64693">
        <ele>70.31</ele>
        <time>2013-05-26T07:26:16Z</time>
      </trkpt>
      <trkpt lat="47.32416" lon="-0.64676">
        <ele>71.76</ele>
        <time>2013-05-26T07:26:22Z</time>
      </trkpt>
      <trkpt lat="47.32404" lon="-0.6465">
        <ele>74.64</ele>
        <time>2013-05-26T07:26:30Z</time>
      </trkpt>
      <trkpt lat="47.32394" lon="-0.64628">
        <ele>75.6</ele>
        <time>2013-05-26T07:26:38Z</time>
      </trkpt>
      <trkpt lat="47.32382" lon="-0.646">
        <ele>76.08</ele>
        <time>2013-05-26T07:26:47Z</time>
      </trkpt>
      <trkpt lat="47.32367" lon="-0.64568">
        <ele>76.08</ele>
        <time>2013-05-26T07:26:57Z</time>
      </trkpt>
      <trkpt lat="47.32355" lon="-0.6454">
        <ele>76.08</ele>
        <time>2013-05-26T07:27:04Z</time>
      </trkpt>
      <trkpt lat="47.32337" lon="-0.64504">
        <ele>72.72</ele>
        <time>2013-05-26T07:27:11Z</time>
      </trkpt>
      <trkpt lat="47.32335" lon="-0.64499">
        <ele>73.2</ele>
        <time>2013-05-26T07:27:12Z</time>
      </trkpt>
      <trkpt lat="47.32337" lon="-0.6448">
        <ele>71.27</ele>
        <time>2013-05-26T07:27:16Z</time>
      </trkpt>
      <trkpt lat="47.32354" lon="-0.64465">
        <ele>73.68</ele>
        <time>2013-05-26T07:27:23Z</time>
      </trkpt>
      <trkpt lat="47.32375" lon="-0.6445">
        <ele>74.16</ele>
        <time>2013-05-26T07:27:31Z</time>
      </trkpt>
      <trkpt lat="47.32397" lon="-0.64435">
        <ele>73.68</ele>
        <time>2013-05-26T07:27:39Z</time>
      </trkpt>
      <trkpt lat="47.32424" lon="-0.64421">
        <ele>74.16</ele>
        <time>2013-05-26T07:27:48Z</time>
      </trkpt>
      <trkpt lat="47.32432" lon="-0.64424">
        <ele>74.16</ele>
        <time>2013-05-26T07:27:52Z</time>
      </trkpt>
      <trkpt lat="47.32436" lon="-0.6441">
        <ele>72.72</ele>
        <time>2013-05-26T07:27:57Z</time>
      </trkpt>
      <trkpt lat="47.32423" lon="-0.64372">
        <ele>70.79</ele>
        <time>2013-05-26T07:28:05Z</time>
      </trkpt>
      <trkpt lat="47.32422" lon="-0.64367">
        <ele>70.79</ele>
        <time>2013-05-26T07:28:06Z</time>
      </trkpt>
      <trkpt lat="47.3241" lon="-0.64328">
        <ele>68.39</ele>
        <time>2013-05-26T07:28:13Z</time>
      </trkpt>
      <trkpt lat="47.32395" lon="-0.64316">
        <ele>68.39</ele>
        <time>2013-05-26T07:28:18Z</time>
      </trkpt>
      <trkpt lat="47.32372" lon="-0.6431">
        <ele>65.99</ele>
        <time>2013-05-26T07:28:25Z</time>
      </trkpt>
      <trkpt lat="47.32363" lon="-0.64308">
        <ele>65.99</ele>
        <time>2013-05-26T07:28:28Z</time>
      </trkpt>
      <trkpt lat="47.32353" lon="-0.64297">
        <ele>64.55</ele>
        <time>2013-05-26T07:28:34Z</time>
      </trkpt>
      <trkpt lat="47.32337" lon="-0.64297">
        <ele>64.07</ele>
        <time>2013-05-26T07:28:39Z</time>
      </trkpt>
      <trkpt lat="47.32334" lon="-0.64298">
        <ele>64.55</ele>
        <time>2013-05-26T07:28:40Z</time>
      </trkpt>
      <trkpt lat="47.32318" lon="-0.64304">
        <ele>63.1</ele>
        <time>2013-05-26T07:28:45Z</time>
      </trkpt>
      <trkpt lat="47.32314" lon="-0.6429">
        <ele>63.1</ele>
        <time>2013-05-26T07:28:50Z</time>
      </trkpt>
      <trkpt lat="47.32315" lon="-0.64286">
        <ele>63.58</ele>
        <time>2013-05-26T07:28:51Z</time>
      </trkpt>
      <trkpt lat="47.32318" lon="-0.64256">
        <ele>64.07</ele>
        <time>2013-05-26T07:28:58Z</time>
      </trkpt>
      <trkpt lat="47.32321" lon="-0.64233">
        <ele>65.51</ele>
        <time>2013-05-26T07:29:04Z</time>
      </trkpt>
      <trkpt lat="47.32322" lon="-0.64208">
        <ele>66.47</ele>
        <time>2013-05-26T07:29:10Z</time>
      </trkpt>
      <trkpt lat="47.32326" lon="-0.64175">
        <ele>68.39</ele>
        <time>2013-05-26T07:29:19Z</time>
      </trkpt>
      <trkpt lat="47.32327" lon="-0.64144">
        <ele>69.35</ele>
        <time>2013-05-26T07:29:28Z</time>
      </trkpt>
      <trkpt lat="47.3233" lon="-0.64114">
        <ele>69.83</ele>
        <time>2013-05-26T07:29:35Z</time>
      </trkpt>
      <trkpt lat="47.32342" lon="-0.64093">
        <ele>70.31</ele>
        <time>2013-05-26T07:29:42Z</time>
      </trkpt>
      <trkpt lat="47.32357" lon="-0.64081">
        <ele>70.79</ele>
        <time>2013-05-26T07:29:49Z</time>
      </trkpt>
      <trkpt lat="47.32377" lon="-0.64069">
        <ele>72.72</ele>
        <time>2013-05-26T07:29:57Z</time>
      </trkpt>
      <trkpt lat="47.32397" lon="-0.64057">
        <ele>74.64</ele>
        <time>2013-05-26T07:30:06Z</time>
      </trkpt>
      <trkpt lat="47.32414" lon="-0.64051">
        <ele>76.08</ele>
        <time>2013-05-26T07:30:14Z</time>
      </trkpt>
      <trkpt lat="47.32436" lon="-0.6404">
        <ele>77.04</ele>
        <time>2013-05-26T07:30:25Z</time>
      </trkpt>
      <trkpt lat="47.32452" lon="-0.64029">
        <ele>78.97</ele>
        <time>2013-05-26T07:30:33Z</time>
      </trkpt>
      <trkpt lat="47.32464" lon="-0.64018">
        <ele>79.93</ele>
        <time>2013-05-26T07:30:40Z</time>
      </trkpt>
      <trkpt lat="47.32478" lon="-0.64004">
        <ele>81.37</ele>
        <time>2013-05-26T07:30:48Z</time>
      </trkpt>
      <trkpt lat="47.32488" lon="-0.63988">
        <ele>81.37</ele>
        <time>2013-05-26T07:30:55Z</time>
      </trkpt>
      <trkpt lat="47.32497" lon="-0.63962">
        <ele>81.85</ele>
        <time>2013-05-26T07:31:04Z</time>
      </trkpt>
      <trkpt lat="47.32496" lon="-0.63936">
        <ele>81.37</ele>
        <time>2013-05-26T07:31:10Z</time>
      </trkpt>
      <trkpt lat="47.32493" lon="-0.6392">
        <ele>80.41</ele>
        <time>2013-05-26T07:31:13Z</time>
      </trkpt>
      <trkpt lat="47.32489" lon="-0.63889">
        <ele>79.45</ele>
        <time>2013-05-26T07:31:18Z</time>
      </trkpt>
      <trkpt lat="47.32492" lon="-0.63867">
        <ele>77.52</ele>
        <time>2013-05-26T07:31:23Z</time>
      </trkpt>
      <trkpt lat="47.32509" lon="-0.63841">
        <ele>77.52</ele>
        <time>2013-05-26T07:31:32Z</time>
      </trkpt>
      <trkpt lat="47.32519" lon="-0.63819">
        <ele>77.52</ele>
        <time>2013-05-26T07:31:37Z</time>
      </trkpt>
      <trkpt lat="47.32533" lon="-0.63794">
        <ele>77.04</ele>
        <time>2013-05-26T07:31:43Z</time>
      </trkpt>
      <trkpt lat="47.32558" lon="-0.63776">
        <ele>78</ele>
        <time>2013-05-26T07:31:50Z</time>
      </trkpt>
      <trkpt lat="47.32585" lon="-0.63757">
        <ele>77.52</ele>
        <time>2013-05-26T07:31:58Z</time>
      </trkpt>
      <trkpt lat="47.32608" lon="-0.6374">
        <ele>78.97</ele>
        <time>2013-05-26T07:32:06Z</time>
      </trkpt>
      <trkpt lat="47.32626" lon="-0.63734">
        <ele>79.93</ele>
        <time>2013-05-26T07:32:13Z</time>
      </trkpt>
      <trkpt lat="47.32653" lon="-0.63715">
        <ele>80.41</ele>
        <time>2013-05-26T07:32:22Z</time>
      </trkpt>
      <trkpt lat="47.32683" lon="-0.63695">
        <ele>79.93</ele>
        <time>2013-05-26T07:32:31Z</time>
      </trkpt>
      <trkpt lat="47.32709" lon="-0.63681">
        <ele>78.97</ele>
        <time>2013-05-26T07:32:38Z</time>
      </trkpt>
      <trkpt lat="47.32729" lon="-0.63675">
        <ele>78.97</ele>
        <time>2013-05-26T07:32:44Z</time>
      </trkpt>
      <trkpt lat="47.32752" lon="-0.63659">
        <ele>78.48</ele>
        <time>2013-05-26T07:32:51Z</time>
      </trkpt>
      <trkpt lat="47.32773" lon="-0.63644">
        <ele>78.97</ele>
        <time>2013-05-26T07:32:57Z</time>
      </trkpt>
      <trkpt lat="47.32788" lon="-0.63629">
        <ele>78.48</ele>
        <time>2013-05-26T07:33:03Z</time>
      </trkpt>
      <trkpt lat="47.32792" lon="-0.63614">
        <ele>78.97</ele>
        <time>2013-05-26T07:33:07Z</time>
      </trkpt>
      <trkpt lat="47.32791" lon="-0.636">
        <ele>79.45</ele>
        <time>2013-05-26T07:33:11Z</time>
      </trkpt>
      <trkpt lat="47.32786" lon="-0.63578">
        <ele>79.93</ele>
        <time>2013-05-26T07:33:18Z</time>
      </trkpt>
      <trkpt lat="47.32781" lon="-0.63552">
        <ele>80.41</ele>
        <time>2013-05-26T07:33:24Z</time>
      </trkpt>
      <trkpt lat="47.32769" lon="-0.6351">
        <ele>80.89</ele>
        <time>2013-05-26T07:33:33Z</time>
      </trkpt>
      <trkpt lat="47.32763" lon="-0.63484">
        <ele>81.37</ele>
        <time>2013-05-26T07:33:39Z</time>
      </trkpt>
      <trkpt lat="47.32757" lon="-0.63459">
        <ele>81.85</ele>
        <time>2013-05-26T07:33:45Z</time>
      </trkpt>
      <trkpt lat="47.32754" lon="-0.63434">
        <ele>82.33</ele>
        <time>2013-05-26T07:33:51Z</time>
      </trkpt>
      <trkpt lat="47.3275" lon="-0.63395">
        <ele>83.77</ele>
        <time>2013-05-26T07:34:00Z</time>
      </trkpt>
      <trkpt lat="47.32748" lon="-0.63362">
        <ele>85.21</ele>
        <time>2013-05-26T07:34:09Z</time>
      </trkpt>
      <trkpt lat="47.32745" lon="-0.63341">
        <ele>86.66</ele>
        <time>2013-05-26T07:34:16Z</time>
      </trkpt>
      <trkpt lat="47.32743" lon="-0.6332">
        <ele>87.62</ele>
        <time>2013-05-26T07:34:23Z</time>
      </trkpt>
      <trkpt lat="47.32747" lon="-0.63297">
        <ele>88.1</ele>
        <time>2013-05-26T07:34:30Z</time>
      </trkpt>
      <trkpt lat="47.32754" lon="-0.63276">
        <ele>89.06</ele>
        <time>2013-05-26T07:34:37Z</time>
      </trkpt>
      <trkpt lat="47.32759" lon="-0.63264">
        <ele>90.02</ele>
        <time>2013-05-26T07:34:41Z</time>
      </trkpt>
      <trkpt lat="47.32754" lon="-0.63253">
        <ele>90.02</ele>
        <time>2013-05-26T07:34:45Z</time>
      </trkpt>
      <trkpt lat="47.32729" lon="-0.63226">
        <ele>89.54</ele>
        <time>2013-05-26T07:34:55Z</time>
      </trkpt>
      <trkpt lat="47.32714" lon="-0.63211">
        <ele>89.06</ele>
        <time>2013-05-26T07:35:00Z</time>
      </trkpt>
      <trkpt lat="47.32666" lon="-0.63183">
        <ele>86.66</ele>
        <time>2013-05-26T07:35:10Z</time>
      </trkpt>
      <trkpt lat="47.32626" lon="-0.63165">
        <ele>84.25</ele>
        <time>2013-05-26T07:35:17Z</time>
      </trkpt>
      <trkpt lat="47.32581" lon="-0.63167">
        <ele>82.33</ele>
        <time>2013-05-26T07:35:25Z</time>
      </trkpt>
      <trkpt lat="47.32569" lon="-0.63168">
        <ele>81.85</ele>
        <time>2013-05-26T07:35:27Z</time>
      </trkpt>
      <trkpt lat="47.3254" lon="-0.63168">
        <ele>80.89</ele>
        <time>2013-05-26T07:35:32Z</time>
      </trkpt>
      <trkpt lat="47.32502" lon="-0.63171">
        <ele>79.93</ele>
        <time>2013-05-26T07:35:39Z</time>
      </trkpt>
      <trkpt lat="47.32475" lon="-0.63172">
        <ele>78.48</ele>
        <time>2013-05-26T07:35:44Z</time>
      </trkpt>
      <trkpt lat="47.32435" lon="-0.63171">
        <ele>76.08</ele>
        <time>2013-05-26T07:35:51Z</time>
      </trkpt>
      <trkpt lat="47.32391" lon="-0.63172">
        <ele>74.64</ele>
        <time>2013-05-26T07:35:59Z</time>
      </trkpt>
      <trkpt lat="47.32364" lon="-0.63172">
        <ele>73.68</ele>
        <time>2013-05-26T07:36:04Z</time>
      </trkpt>
      <trkpt lat="47.32342" lon="-0.63171">
        <ele>73.68</ele>
        <time>2013-05-26T07:36:09Z</time>
      </trkpt>
      <trkpt lat="47.32314" lon="-0.63165">
        <ele>72.72</ele>
        <time>2013-05-26T07:36:15Z</time>
      </trkpt>
      <trkpt lat="47.323" lon="-0.63159">
        <ele>72.72</ele>
        <time>2013-05-26T07:36:18Z</time>
      </trkpt>
      <trkpt lat="47.3225" lon="-0.63128">
        <ele>71.27</ele>
        <time>2013-05-26T07:36:29Z</time>
      </trkpt>
      <trkpt lat="47.32246" lon="-0.63126">
        <ele>71.27</ele>
        <time>2013-05-26T07:36:30Z</time>
      </trkpt>
      <trkpt lat="47.32212" lon="-0.63117">
        <ele>70.31</ele>
        <time>2013-05-26T07:36:38Z</time>
      </trkpt>
      <trkpt lat="47.32177" lon="-0.63113">
        <ele>68.39</ele>
        <time>2013-05-26T07:36:45Z</time>
      </trkpt>
      <trkpt lat="47.32156" lon="-0.6311">
        <ele>67.91</ele>
        <time>2013-05-26T07:36:50Z</time>
      </trkpt>
      <trkpt lat="47.32134" lon="-0.63103">
        <ele>68.87</ele>
        <time>2013-05-26T07:36:55Z</time>
      </trkpt>
      <trkpt lat="47.32108" lon="-0.63108">
        <ele>69.83</ele>
        <time>2013-05-26T07:37:01Z</time>
      </trkpt>
      <trkpt lat="47.32095" lon="-0.63109">
        <ele>70.31</ele>
        <time>2013-05-26T07:37:04Z</time>
      </trkpt>
      <trkpt lat="47.32068" lon="-0.63119">
        <ele>69.83</ele>
        <time>2013-05-26T07:37:11Z</time>
      </trkpt>
      <trkpt lat="47.32063" lon="-0.63121">
        <ele>69.35</ele>
        <time>2013-05-26T07:37:12Z</time>
      </trkpt>
      <trkpt lat="47.3205" lon="-0.63123">
        <ele>67.91</ele>
        <time>2013-05-26T07:37:15Z</time>
      </trkpt>
      <trkpt lat="47.32041" lon="-0.63125">
        <ele>66.47</ele>
        <time>2013-05-26T07:37:17Z</time>
      </trkpt>
      <trkpt lat="47.32023" lon="-0.63125">
        <ele>64.07</ele>
        <time>2013-05-26T07:37:22Z</time>
      </trkpt>
      <trkpt lat="47.32003" lon="-0.63125">
        <ele>60.7</ele>
        <time>2013-05-26T07:37:28Z</time>
      </trkpt>
      <trkpt lat="47.31997" lon="-0.63125">
        <ele>60.22</ele>
        <time>2013-05-26T07:37:30Z</time>
      </trkpt>
      <trkpt lat="47.31989" lon="-0.63124">
        <ele>58.78</ele>
        <time>2013-05-26T07:37:32Z</time>
      </trkpt>
      <trkpt lat="47.31974" lon="-0.63124">
        <ele>55.41</ele>
        <time>2013-05-26T07:37:36Z</time>
      </trkpt>
      <trkpt lat="47.31962" lon="-0.63123">
        <ele>53.49</ele>
        <time>2013-05-26T07:37:39Z</time>
      </trkpt>
      <trkpt lat="47.31953" lon="-0.63123">
        <ele>52.53</ele>
        <time>2013-05-26T07:37:41Z</time>
      </trkpt>
      <trkpt lat="47.31929" lon="-0.63128">
        <ele>48.68</ele>
        <time>2013-05-26T07:37:46Z</time>
      </trkpt>
      <trkpt lat="47.31908" lon="-0.63136">
        <ele>45.32</ele>
        <time>2013-05-26T07:37:50Z</time>
      </trkpt>
      <trkpt lat="47.31896" lon="-0.63142">
        <ele>44.36</ele>
        <time>2013-05-26T07:37:52Z</time>
      </trkpt>
      <trkpt lat="47.3187" lon="-0.6316">
        <ele>40.51</ele>
        <time>2013-05-26T07:37:56Z</time>
      </trkpt>
      <trkpt lat="47.31852" lon="-0.63173">
        <ele>37.15</ele>
        <time>2013-05-26T07:37:59Z</time>
      </trkpt>
      <trkpt lat="47.31837" lon="-0.632">
        <ele>33.3</ele>
        <time>2013-05-26T07:38:04Z</time>
      </trkpt>
      <trkpt lat="47.31843" lon="-0.63217">
        <ele>33.3</ele>
        <time>2013-05-26T07:38:07Z</time>
      </trkpt>
      <trkpt lat="47.31852" lon="-0.63236">
        <ele>32.82</ele>
        <time>2013-05-26T07:38:12Z</time>
      </trkpt>
      <trkpt lat="47.31845" lon="-0.63239">
        <ele>31.86</ele>
        <time>2013-05-26T07:38:17Z</time>
      </trkpt>
      <trkpt lat="47.31833" lon="-0.6322">
        <ele>29.94</ele>
        <time>2013-05-26T07:38:22Z</time>
      </trkpt>
      <trkpt lat="47.31813" lon="-0.63209">
        <ele>27.05</ele>
        <time>2013-05-26T07:38:26Z</time>
      </trkpt>
      <trkpt lat="47.31798" lon="-0.63201">
        <ele>25.61</ele>
        <time>2013-05-26T07:38:29Z</time>
      </trkpt>
      <trkpt lat="47.31788" lon="-0.63172">
        <ele>24.17</ele>
        <time>2013-05-26T07:38:34Z</time>
      </trkpt>
      <trkpt lat="47.31789" lon="-0.63168">
        <ele>24.65</ele>
        <time>2013-05-26T07:38:35Z</time>
      </trkpt>
      <trkpt lat="47.31791" lon="-0.63157">
        <ele>23.69</ele>
        <time>2013-05-26T07:38:39Z</time>
      </trkpt>
      <trkpt lat="47.31789" lon="-0.63138">
        <ele>22.73</ele>
        <time>2013-05-26T07:38:43Z</time>
      </trkpt>
      <trkpt lat="47.31781" lon="-0.63095">
        <ele>21.29</ele>
        <time>2013-05-26T07:38:50Z</time>
      </trkpt>
      <trkpt lat="47.31777" lon="-0.63079">
        <ele>20.32</ele>
        <time>2013-05-26T07:38:56Z</time>
      </trkpt>
      <trkpt lat="47.31776" lon="-0.63064">
        <ele>20.32</ele>
        <time>2013-05-26T07:39:02Z</time>
      </trkpt>
      <trkpt lat="47.31782" lon="-0.63058">
        <ele>20.32</ele>
        <time>2013-05-26T07:39:09Z</time>
      </trkpt>
      <trkpt lat="47.31783" lon="-0.63058">
        <ele>20.81</ele>
        <time>2013-05-26T07:39:19Z</time>
      </trkpt>
      <trkpt lat="47.31783" lon="-0.63057">
        <ele>20.81</ele>
        <time>2013-05-26T07:39:23Z</time>
      </trkpt>
      <trkpt lat="47.31786" lon="-0.63053">
        <ele>20.81</ele>
        <time>2013-05-26T07:39:26Z</time>
      </trkpt>
      <trkpt lat="47.31796" lon="-0.6304">
        <ele>21.77</ele>
        <time>2013-05-26T07:39:34Z</time>
      </trkpt>
      <trkpt lat="47.31807" lon="-0.63032">
        <ele>21.77</ele>
        <time>2013-05-26T07:39:41Z</time>
      </trkpt>
      <trkpt lat="47.3181" lon="-0.63029">
        <ele>22.25</ele>
        <time>2013-05-26T07:39:45Z</time>
      </trkpt>
      <trkpt lat="47.31822" lon="-0.63018">
        <ele>23.69</ele>
        <time>2013-05-26T07:39:53Z</time>
      </trkpt>
      <trkpt lat="47.31839" lon="-0.63006">
        <ele>24.65</ele>
        <time>2013-05-26T07:40:01Z</time>
      </trkpt>
      <trkpt lat="47.31852" lon="-0.62995">
        <ele>24.65</ele>
        <time>2013-05-26T07:40:07Z</time>
      </trkpt>
      <trkpt lat="47.31862" lon="-0.62984">
        <ele>25.61</ele>
        <time>2013-05-26T07:40:13Z</time>
      </trkpt>
      <trkpt lat="47.31865" lon="-0.6298">
        <ele>25.61</ele>
        <time>2013-05-26T07:40:15Z</time>
      </trkpt>
      <trkpt lat="47.31878" lon="-0.62982">
        <ele>26.09</ele>
        <time>2013-05-26T07:40:22Z</time>
      </trkpt>
      <trkpt lat="47.31882" lon="-0.6298">
        <ele>26.57</ele>
        <time>2013-05-26T07:40:24Z</time>
      </trkpt>
      <trkpt lat="47.31898" lon="-0.62971">
        <ele>27.53</ele>
        <time>2013-05-26T07:40:33Z</time>
      </trkpt>
      <trkpt lat="47.319" lon="-0.6297">
        <ele>28.02</ele>
        <time>2013-05-26T07:40:34Z</time>
      </trkpt>
      <trkpt lat="47.31911" lon="-0.62966">
        <ele>28.98</ele>
        <time>2013-05-26T07:40:39Z</time>
      </trkpt>
      <trkpt lat="47.31932" lon="-0.62957">
        <ele>30.42</ele>
        <time>2013-05-26T07:40:48Z</time>
      </trkpt>
      <trkpt lat="47.31951" lon="-0.62944">
        <ele>30.9</ele>
        <time>2013-05-26T07:40:56Z</time>
      </trkpt>
      <trkpt lat="47.31963" lon="-0.62935">
        <ele>31.38</ele>
        <time>2013-05-26T07:41:02Z</time>
      </trkpt>
      <trkpt lat="47.31977" lon="-0.62922">
        <ele>32.34</ele>
        <time>2013-05-26T07:41:10Z</time>
      </trkpt>
      <trkpt lat="47.31978" lon="-0.6292">
        <ele>32.34</ele>
        <time>2013-05-26T07:41:11Z</time>
      </trkpt>
      <trkpt lat="47.3199" lon="-0.62907">
        <ele>32.82</ele>
        <time>2013-05-26T07:41:19Z</time>
      </trkpt>
      <trkpt lat="47.32008" lon="-0.6289">
        <ele>33.3</ele>
        <time>2013-05-26T07:41:26Z</time>
      </trkpt>
      <trkpt lat="47.3202" lon="-0.62877">
        <ele>33.78</ele>
        <time>2013-05-26T07:41:31Z</time>
      </trkpt>
      <trkpt lat="47.32027" lon="-0.62867">
        <ele>34.74</ele>
        <time>2013-05-26T07:41:35Z</time>
      </trkpt>
      <trkpt lat="47.32031" lon="-0.62842">
        <ele>34.74</ele>
        <time>2013-05-26T07:41:42Z</time>
      </trkpt>
      <trkpt lat="47.32032" lon="-0.62826">
        <ele>35.71</ele>
        <time>2013-05-26T07:41:48Z</time>
      </trkpt>
      <trkpt lat="47.32035" lon="-0.62819">
        <ele>36.19</ele>
        <time>2013-05-26T07:41:52Z</time>
      </trkpt>
      <trkpt lat="47.32046" lon="-0.62803">
        <ele>37.63</ele>
        <time>2013-05-26T07:41:58Z</time>
      </trkpt>
      <trkpt lat="47.32056" lon="-0.62787">
        <ele>39.07</ele>
        <time>2013-05-26T07:42:04Z</time>
      </trkpt>
      <trkpt lat="47.32059" lon="-0.62778">
        <ele>39.55</ele>
        <time>2013-05-26T07:42:08Z</time>
      </trkpt>
      <trkpt lat="47.3207" lon="-0.6276">
        <ele>40.03</ele>
        <time>2013-05-26T07:42:15Z</time>
      </trkpt>
      <trkpt lat="47.32079" lon="-0.62751">
        <ele>40.51</ele>
        <time>2013-05-26T07:42:19Z</time>
      </trkpt>
      <trkpt lat="47.32088" lon="-0.62741">
        <ele>40.99</ele>
        <time>2013-05-26T07:42:24Z</time>
      </trkpt>
      <trkpt lat="47.32096" lon="-0.62731">
        <ele>42.44</ele>
        <time>2013-05-26T07:42:29Z</time>
      </trkpt>
      <trkpt lat="47.32107" lon="-0.62703">
        <ele>43.4</ele>
        <time>2013-05-26T07:42:38Z</time>
      </trkpt>
      <trkpt lat="47.32112" lon="-0.62688">
        <ele>43.88</ele>
        <time>2013-05-26T07:42:43Z</time>
      </trkpt>
      <trkpt lat="47.32114" lon="-0.62681">
        <ele>44.36</ele>
        <time>2013-05-26T07:42:46Z</time>
      </trkpt>
      <trkpt lat="47.32122" lon="-0.62665">
        <ele>44.84</ele>
        <time>2013-05-26T07:42:52Z</time>
      </trkpt>
      <trkpt lat="47.32127" lon="-0.62654">
        <ele>45.32</ele>
        <time>2013-05-26T07:42:56Z</time>
      </trkpt>
      <trkpt lat="47.32129" lon="-0.62649">
        <ele>45.32</ele>
        <time>2013-05-26T07:42:58Z</time>
      </trkpt>
      <trkpt lat="47.32135" lon="-0.62639">
        <ele>46.28</ele>
        <time>2013-05-26T07:43:02Z</time>
      </trkpt>
      <trkpt lat="47.32147" lon="-0.6262">
        <ele>47.24</ele>
        <time>2013-05-26T07:43:10Z</time>
      </trkpt>
      <trkpt lat="47.32158" lon="-0.62603">
        <ele>48.2</ele>
        <time>2013-05-26T07:43:17Z</time>
      </trkpt>
      <trkpt lat="47.32166" lon="-0.62589">
        <ele>49.65</ele>
        <time>2013-05-26T07:43:25Z</time>
      </trkpt>
      <trkpt lat="47.32174" lon="-0.62577">
        <ele>50.13</ele>
        <time>2013-05-26T07:43:31Z</time>
      </trkpt>
      <trkpt lat="47.32177" lon="-0.62571">
        <ele>50.61</ele>
        <time>2013-05-26T07:43:34Z</time>
      </trkpt>
      <trkpt lat="47.32191" lon="-0.62556">
        <ele>51.57</ele>
        <time>2013-05-26T07:43:41Z</time>
      </trkpt>
      <trkpt lat="47.32195" lon="-0.62549">
        <ele>51.57</ele>
        <time>2013-05-26T07:43:44Z</time>
      </trkpt>
      <trkpt lat="47.32208" lon="-0.6253">
        <ele>52.53</ele>
        <time>2013-05-26T07:43:53Z</time>
      </trkpt>
      <trkpt lat="47.32211" lon="-0.62522">
        <ele>53.97</ele>
        <time>2013-05-26T07:43:57Z</time>
      </trkpt>
      <trkpt lat="47.32216" lon="-0.62511">
        <ele>54.93</ele>
        <time>2013-05-26T07:44:03Z</time>
      </trkpt>
      <trkpt lat="47.32218" lon="-0.62506">
        <ele>55.41</ele>
        <time>2013-05-26T07:44:09Z</time>
      </trkpt>
      <trkpt lat="47.32219" lon="-0.62506">
        <ele>54.93</ele>
        <time>2013-05-26T07:44:18Z</time>
      </trkpt>
      <trkpt lat="47.32219" lon="-0.62506">
        <ele>50.13</ele>
        <time>2013-05-26T07:44:19Z</time>
      </trkpt>
      <trkpt lat="47.32219" lon="-0.62506">
        <ele>56.37</ele>
        <time>2013-05-26T07:44:20Z</time>
      </trkpt>
      <trkpt lat="47.32219" lon="-0.62506">
        <ele>53.01</ele>
        <time>2013-05-26T07:44:21Z</time>
      </trkpt>
      <trkpt lat="47.32219" lon="-0.62506">
        <ele>56.37</ele>
        <time>2013-05-26T07:44:22Z</time>
      </trkpt>
      <trkpt lat="47.32219" lon="-0.62506">
        <ele>52.53</ele>
        <time>2013-05-26T07:44:26Z</time>
      </trkpt>
      <trkpt lat="47.32219" lon="-0.62506">
        <ele>59.74</ele>
        <time>2013-05-26T07:44:27Z</time>
      </trkpt>
      <trkpt lat="47.32219" lon="-0.62506">
        <ele>54.45</ele>
        <time>2013-05-26T07:44:28Z</time>
      </trkpt>
      <trkpt lat="47.32219" lon="-0.62505">
        <ele>54.93</ele>
        <time>2013-05-26T07:44:37Z</time>
      </trkpt>
      <trkpt lat="47.32219" lon="-0.62505">
        <ele>54.93</ele>
        <time>2013-05-26T07:44:52Z</time>
      </trkpt>
      <trkpt lat="47.32219" lon="-0.62505">
        <ele>54.45</ele>
        <time>2013-05-26T07:45:05Z</time>
      </trkpt>
      <trkpt lat="47.3222" lon="-0.62505">
        <ele>54.93</ele>
        <time>2013-05-26T07:45:13Z</time>
      </trkpt>
      <trkpt lat="47.32218" lon="-0.62505">
        <ele>54.45</ele>
        <time>2013-05-26T07:45:18Z</time>
      </trkpt>
      <trkpt lat="47.32218" lon="-0.62505">
        <ele>54.45</ele>
        <time>2013-05-26T07:45:38Z</time>
      </trkpt>
      <trkpt lat="47.32218" lon="-0.62505">
        <ele>54.93</ele>
        <time>2013-05-26T07:45:57Z</time>
      </trkpt>
      <trkpt lat="47.32218" lon="-0.62505">
        <ele>54.45</ele>
        <time>2013-05-26T07:46:17Z</time>
      </trkpt>
      <trkpt lat="47.32218" lon="-0.62505">
        <ele>54.45</ele>
        <time>2013-05-26T07:46:34Z</time>
      </trkpt>
      <trkpt lat="47.32218" lon="-0.62505">
        <ele>54.45</ele>
        <time>2013-05-26T07:46:52Z</time>
      </trkpt>
      <trkpt lat="47.32218" lon="-0.62505">
        <ele>54.45</ele>
        <time>2013-05-26T07:47:12Z</time>
      </trkpt>
      <trkpt lat="47.32218" lon="-0.62506">
        <ele>54.93</ele>
        <time>2013-05-26T07:47:33Z</time>
      </trkpt>
      <trkpt lat="47.32218" lon="-0.62506">
        <ele>54.45</ele>
        <time>2013-05-26T07:47:49Z</time>
      </trkpt>
      <trkpt lat="47.32219" lon="-0.62506">
        <ele>54.93</ele>
        <time>2013-05-26T07:48:05Z</time>
      </trkpt>
      <trkpt lat="47.32219" lon="-0.62506">
        <ele>54.93</ele>
        <time>2013-05-26T07:48:21Z</time>
      </trkpt>
      <trkpt lat="47.32219" lon="-0.62506">
        <ele>55.41</ele>
        <time>2013-05-26T07:48:36Z</time>
      </trkpt>
      <trkpt lat="47.32218" lon="-0.62506">
        <ele>54.93</ele>
        <time>2013-05-26T07:48:54Z</time>
      </trkpt>
      <trkpt lat="47.32218" lon="-0.62506">
        <ele>54.45</ele>
        <time>2013-05-26T07:49:11Z</time>
      </trkpt>
      <trkpt lat="47.32218" lon="-0.62507">
        <ele>53.97</ele>
        <time>2013-05-26T07:49:27Z</time>
      </trkpt>
      <trkpt lat="47.3222" lon="-0.62505">
        <ele>54.93</ele>
        <time>2013-05-26T07:49:40Z</time>
      </trkpt>
      <trkpt lat="47.32221" lon="-0.62504">
        <ele>54.93</ele>
        <time>2013-05-26T07:49:45Z</time>
      </trkpt>
      <trkpt lat="47.32221" lon="-0.62503">
        <ele>54.93</ele>
        <time>2013-05-26T07:49:51Z</time>
      </trkpt>
      <trkpt lat="47.32222" lon="-0.62502">
        <ele>54.93</ele>
        <time>2013-05-26T07:49:53Z</time>
      </trkpt>
      <trkpt lat="47.32228" lon="-0.6249">
        <ele>55.89</ele>
        <time>2013-05-26T07:49:59Z</time>
      </trkpt>
      <trkpt lat="47.32235" lon="-0.62481">
        <ele>56.37</ele>
        <time>2013-05-26T07:50:04Z</time>
      </trkpt>
      <trkpt lat="47.32244" lon="-0.62461">
        <ele>57.82</ele>
        <time>2013-05-26T07:50:11Z</time>
      </trkpt>
      <trkpt lat="47.32252" lon="-0.62448">
        <ele>58.3</ele>
        <time>2013-05-26T07:50:16Z</time>
      </trkpt>
      <trkpt lat="47.32262" lon="-0.6243">
        <ele>60.22</ele>
        <time>2013-05-26T07:50:23Z</time>
      </trkpt>
      <trkpt lat="47.32269" lon="-0.62412">
        <ele>60.7</ele>
        <time>2013-05-26T07:50:31Z</time>
      </trkpt>
      <trkpt lat="47.32273" lon="-0.6239">
        <ele>61.66</ele>
        <time>2013-05-26T07:50:38Z</time>
      </trkpt>
      <trkpt lat="47.32276" lon="-0.62372">
        <ele>62.62</ele>
        <time>2013-05-26T07:50:45Z</time>
      </trkpt>
      <trkpt lat="47.32282" lon="-0.62352">
        <ele>63.58</ele>
        <time>2013-05-26T07:50:52Z</time>
      </trkpt>
      <trkpt lat="47.32287" lon="-0.62327">
        <ele>64.55</ele>
        <time>2013-05-26T07:51:00Z</time>
      </trkpt>
      <trkpt lat="47.32288" lon="-0.62321">
        <ele>64.55</ele>
        <time>2013-05-26T07:51:02Z</time>
      </trkpt>
      <trkpt lat="47.32283" lon="-0.62293">
        <ele>65.99</ele>
        <time>2013-05-26T07:51:11Z</time>
      </trkpt>
      <trkpt lat="47.32274" lon="-0.62271">
        <ele>67.43</ele>
        <time>2013-05-26T07:51:20Z</time>
      </trkpt>
      <trkpt lat="47.32268" lon="-0.62254">
        <ele>68.87</ele>
        <time>2013-05-26T07:51:27Z</time>
      </trkpt>
      <trkpt lat="47.32268" lon="-0.62251">
        <ele>68.87</ele>
        <time>2013-05-26T07:51:28Z</time>
      </trkpt>
      <trkpt lat="47.32258" lon="-0.62228">
        <ele>70.79</ele>
        <time>2013-05-26T07:51:39Z</time>
      </trkpt>
      <trkpt lat="47.3225" lon="-0.62207">
        <ele>72.24</ele>
        <time>2013-05-26T07:51:48Z</time>
      </trkpt>
      <trkpt lat="47.32244" lon="-0.62195">
        <ele>74.16</ele>
        <time>2013-05-26T07:51:54Z</time>
      </trkpt>
      <trkpt lat="47.32242" lon="-0.6219">
        <ele>75.12</ele>
        <time>2013-05-26T07:51:57Z</time>
      </trkpt>
      <trkpt lat="47.32239" lon="-0.62187">
        <ele>74.64</ele>
        <time>2013-05-26T07:52:04Z</time>
      </trkpt>
      <trkpt lat="47.32239" lon="-0.62187">
        <ele>74.64</ele>
        <time>2013-05-26T07:52:12Z</time>
      </trkpt>
      <trkpt lat="47.32239" lon="-0.62187">
        <ele>74.64</ele>
        <time>2013-05-26T07:52:25Z</time>
      </trkpt>
      <trkpt lat="47.32239" lon="-0.62187">
        <ele>74.64</ele>
        <time>2013-05-26T07:52:35Z</time>
      </trkpt>
      <trkpt lat="47.32239" lon="-0.62187">
        <ele>74.64</ele>
        <time>2013-05-26T07:52:50Z</time>
      </trkpt>
      <trkpt lat="47.32239" lon="-0.62187">
        <ele>74.64</ele>
        <time>2013-05-26T07:53:02Z</time>
      </trkpt>
      <trkpt lat="47.32238" lon="-0.62191">
        <ele>74.64</ele>
        <time>2013-05-26T07:53:04Z</time>
      </trkpt>
      <trkpt lat="47.32218" lon="-0.62223">
        <ele>76.56</ele>
        <time>2013-05-26T07:53:15Z</time>
      </trkpt>
      <trkpt lat="47.32197" lon="-0.62235">
        <ele>77.04</ele>
        <time>2013-05-26T07:53:23Z</time>
      </trkpt>
      <trkpt lat="47.32179" lon="-0.62244">
        <ele>78</ele>
        <time>2013-05-26T07:53:29Z</time>
      </trkpt>
      <trkpt lat="47.32161" lon="-0.62252">
        <ele>77.52</ele>
        <time>2013-05-26T07:53:34Z</time>
      </trkpt>
      <trkpt lat="47.32132" lon="-0.62264">
        <ele>78.97</ele>
        <time>2013-05-26T07:53:41Z</time>
      </trkpt>
      <trkpt lat="47.32094" lon="-0.62292">
        <ele>79.45</ele>
        <time>2013-05-26T07:53:50Z</time>
      </trkpt>
      <trkpt lat="47.3208" lon="-0.62311">
        <ele>80.41</ele>
        <time>2013-05-26T07:53:54Z</time>
      </trkpt>
      <trkpt lat="47.32065" lon="-0.62351">
        <ele>79.45</ele>
        <time>2013-05-26T07:54:02Z</time>
      </trkpt>
      <trkpt lat="47.32064" lon="-0.62353">
        <ele>79.93</ele>
        <time>2013-05-26T07:54:07Z</time>
      </trkpt>
      <trkpt lat="47.32064" lon="-0.62353">
        <ele>79.93</ele>
        <time>2013-05-26T07:54:17Z</time>
      </trkpt>
      <trkpt lat="47.32064" lon="-0.62353">
        <ele>80.41</ele>
        <time>2013-05-26T07:54:32Z</time>
      </trkpt>
      <trkpt lat="47.32064" lon="-0.62353">
        <ele>79.93</ele>
        <time>2013-05-26T07:54:42Z</time>
      </trkpt>
      <trkpt lat="47.32064" lon="-0.62353">
        <ele>79.45</ele>
        <time>2013-05-26T07:54:54Z</time>
      </trkpt>
      <trkpt lat="47.32064" lon="-0.62353">
        <ele>80.41</ele>
        <time>2013-05-26T07:55:08Z</time>
      </trkpt>
      <trkpt lat="47.32064" lon="-0.62353">
        <ele>79.93</ele>
        <time>2013-05-26T07:55:22Z</time>
      </trkpt>
      <trkpt lat="47.32065" lon="-0.62353">
        <ele>79.93</ele>
        <time>2013-05-26T07:55:34Z</time>
      </trkpt>
      <trkpt lat="47.32065" lon="-0.62353">
        <ele>80.41</ele>
        <time>2013-05-26T07:55:46Z</time>
      </trkpt>
      <trkpt lat="47.32065" lon="-0.62353">
        <ele>79.93</ele>
        <time>2013-05-26T07:55:47Z</time>
      </trkpt>
      <trkpt lat="47.32063" lon="-0.62359">
        <ele>80.41</ele>
        <time>2013-05-26T07:55:51Z</time>
      </trkpt>
      <trkpt lat="47.32057" lon="-0.62383">
        <ele>79.93</ele>
        <time>2013-05-26T07:56:00Z</time>
      </trkpt>
      <trkpt lat="47.32052" lon="-0.62414">
        <ele>79.45</ele>
        <time>2013-05-26T07:56:08Z</time>
      </trkpt>
      <trkpt lat="47.32046" lon="-0.62446">
        <ele>79.45</ele>
        <time>2013-05-26T07:56:15Z</time>
      </trkpt>
      <trkpt lat="47.32041" lon="-0.62462">
        <ele>78.97</ele>
        <time>2013-05-26T07:56:18Z</time>
      </trkpt>
      <trkpt lat="47.32031" lon="-0.62493">
        <ele>77.04</ele>
        <time>2013-05-26T07:56:23Z</time>
      </trkpt>
      <trkpt lat="47.32022" lon="-0.62512">
        <ele>76.56</ele>
        <time>2013-05-26T07:56:26Z</time>
      </trkpt>
      <trkpt lat="47.32011" lon="-0.6254">
        <ele>76.08</ele>
        <time>2013-05-26T07:56:30Z</time>
      </trkpt>
      <trkpt lat="47.32001" lon="-0.62575">
        <ele>74.64</ele>
        <time>2013-05-26T07:56:35Z</time>
      </trkpt>
      <trkpt lat="47.31988" lon="-0.62589">
        <ele>74.16</ele>
        <time>2013-05-26T07:56:39Z</time>
      </trkpt>
      <trkpt lat="47.31973" lon="-0.62595">
        <ele>73.2</ele>
        <time>2013-05-26T07:56:43Z</time>
      </trkpt>
      <trkpt lat="47.31959" lon="-0.62614">
        <ele>72.72</ele>
        <time>2013-05-26T07:56:47Z</time>
      </trkpt>
      <trkpt lat="47.31938" lon="-0.62646">
        <ele>70.79</ele>
        <time>2013-05-26T07:56:52Z</time>
      </trkpt>
      <trkpt lat="47.31934" lon="-0.62652">
        <ele>70.31</ele>
        <time>2013-05-26T07:56:53Z</time>
      </trkpt>
      <trkpt lat="47.3192" lon="-0.62671">
        <ele>68.39</ele>
        <time>2013-05-26T07:56:57Z</time>
      </trkpt>
      <trkpt lat="47.31907" lon="-0.62702">
        <ele>64.55</ele>
        <time>2013-05-26T07:57:02Z</time>
      </trkpt>
      <trkpt lat="47.31904" lon="-0.62709">
        <ele>64.55</ele>
        <time>2013-05-26T07:57:03Z</time>
      </trkpt>
      <trkpt lat="47.31899" lon="-0.62728">
        <ele>61.66</ele>
        <time>2013-05-26T07:57:06Z</time>
      </trkpt>
      <trkpt lat="47.31898" lon="-0.62756">
        <ele>58.3</ele>
        <time>2013-05-26T07:57:10Z</time>
      </trkpt>
      <trkpt lat="47.31898" lon="-0.62761">
        <ele>57.34</ele>
        <time>2013-05-26T07:57:11Z</time>
      </trkpt>
      <trkpt lat="47.31894" lon="-0.62769">
        <ele>56.37</ele>
        <time>2013-05-26T07:57:13Z</time>
      </trkpt>
      <trkpt lat="47.31886" lon="-0.62773">
        <ele>55.89</ele>
        <time>2013-05-26T07:57:15Z</time>
      </trkpt>
      <trkpt lat="47.31866" lon="-0.62778">
        <ele>53.97</ele>
        <time>2013-05-26T07:57:19Z</time>
      </trkpt>
      <trkpt lat="47.3185" lon="-0.62769">
        <ele>53.49</ele>
        <time>2013-05-26T07:57:23Z</time>
      </trkpt>
      <trkpt lat="47.31846" lon="-0.62752">
        <ele>55.41</ele>
        <time>2013-05-26T07:57:28Z</time>
      </trkpt>
      <trkpt lat="47.31841" lon="-0.62732">
        <ele>57.34</ele>
        <time>2013-05-26T07:57:36Z</time>
      </trkpt>
      <trkpt lat="47.31835" lon="-0.62706">
        <ele>57.82</ele>
        <time>2013-05-26T07:57:43Z</time>
      </trkpt>
      <trkpt lat="47.31831" lon="-0.62664">
        <ele>57.82</ele>
        <time>2013-05-26T07:57:52Z</time>
      </trkpt>
      <trkpt lat="47.3183" lon="-0.62636">
        <ele>57.34</ele>
        <time>2013-05-26T07:57:58Z</time>
      </trkpt>
      <trkpt lat="47.31829" lon="-0.62632">
        <ele>57.82</ele>
        <time>2013-05-26T07:57:59Z</time>
      </trkpt>
      <trkpt lat="47.31827" lon="-0.62602">
        <ele>55.89</ele>
        <time>2013-05-26T07:58:03Z</time>
      </trkpt>
      <trkpt lat="47.31823" lon="-0.62571">
        <ele>54.45</ele>
        <time>2013-05-26T07:58:06Z</time>
      </trkpt>
      <trkpt lat="47.31816" lon="-0.62538">
        <ele>51.09</ele>
        <time>2013-05-26T07:58:09Z</time>
      </trkpt>
      <trkpt lat="47.31815" lon="-0.62528">
        <ele>51.57</ele>
        <time>2013-05-26T07:58:10Z</time>
      </trkpt>
      <trkpt lat="47.31812" lon="-0.62508">
        <ele>52.05</ele>
        <time>2013-05-26T07:58:13Z</time>
      </trkpt>
      <trkpt lat="47.3181" lon="-0.62486">
        <ele>51.09</ele>
        <time>2013-05-26T07:58:17Z</time>
      </trkpt>
      <trkpt lat="47.31811" lon="-0.62479">
        <ele>50.61</ele>
        <time>2013-05-26T07:58:19Z</time>
      </trkpt>
      <trkpt lat="47.31822" lon="-0.62475">
        <ele>52.05</ele>
        <time>2013-05-26T07:58:25Z</time>
      </trkpt>
      <trkpt lat="47.31833" lon="-0.62474">
        <ele>53.97</ele>
        <time>2013-05-26T07:58:31Z</time>
      </trkpt>
      <trkpt lat="47.31842" lon="-0.62473">
        <ele>56.37</ele>
        <time>2013-05-26T07:58:38Z</time>
      </trkpt>
      <trkpt lat="47.31844" lon="-0.62473">
        <ele>56.86</ele>
        <time>2013-05-26T07:58:39Z</time>
      </trkpt>
      <trkpt lat="47.3185" lon="-0.62471">
        <ele>58.78</ele>
        <time>2013-05-26T07:58:44Z</time>
      </trkpt>
      <trkpt lat="47.31851" lon="-0.62471">
        <ele>59.26</ele>
        <time>2013-05-26T07:58:50Z</time>
      </trkpt>
      <trkpt lat="47.31852" lon="-0.62471">
        <ele>59.26</ele>
        <time>2013-05-26T07:58:57Z</time>
      </trkpt>
      <trkpt lat="47.31857" lon="-0.6247">
        <ele>60.7</ele>
        <time>2013-05-26T07:59:01Z</time>
      </trkpt>
      <trkpt lat="47.31861" lon="-0.6247">
        <ele>62.14</ele>
        <time>2013-05-26T07:59:05Z</time>
      </trkpt>
      <trkpt lat="47.31868" lon="-0.62469">
        <ele>63.58</ele>
        <time>2013-05-26T07:59:12Z</time>
      </trkpt>
      <trkpt lat="47.31871" lon="-0.62469">
        <ele>65.03</ele>
        <time>2013-05-26T07:59:21Z</time>
      </trkpt>
      <trkpt lat="47.31873" lon="-0.62465">
        <ele>65.03</ele>
        <time>2013-05-26T07:59:35Z</time>
      </trkpt>
      <trkpt lat="47.31876" lon="-0.62457">
        <ele>66.47</ele>
        <time>2013-05-26T07:59:42Z</time>
      </trkpt>
      <trkpt lat="47.31875" lon="-0.62439">
        <ele>66.95</ele>
        <time>2013-05-26T07:59:50Z</time>
      </trkpt>
      <trkpt lat="47.31881" lon="-0.62416">
        <ele>67.91</ele>
        <time>2013-05-26T07:59:59Z</time>
      </trkpt>
      <trkpt lat="47.31886" lon="-0.62401">
        <ele>68.87</ele>
        <time>2013-05-26T08:00:06Z</time>
      </trkpt>
      <trkpt lat="47.31892" lon="-0.62382">
        <ele>68.87</ele>
        <time>2013-05-26T08:00:13Z</time>
      </trkpt>
      <trkpt lat="47.31896" lon="-0.6236">
        <ele>69.83</ele>
        <time>2013-05-26T08:00:20Z</time>
      </trkpt>
      <trkpt lat="47.31901" lon="-0.62334">
        <ele>69.83</ele>
        <time>2013-05-26T08:00:28Z</time>
      </trkpt>
      <trkpt lat="47.31908" lon="-0.6231">
        <ele>70.31</ele>
        <time>2013-05-26T08:00:36Z</time>
      </trkpt>
      <trkpt lat="47.31915" lon="-0.62287">
        <ele>70.79</ele>
        <time>2013-05-26T08:00:43Z</time>
      </trkpt>
      <trkpt lat="47.31918" lon="-0.62261">
        <ele>70.31</ele>
        <time>2013-05-26T08:00:48Z</time>
      </trkpt>
      <trkpt lat="47.31928" lon="-0.62242">
        <ele>69.83</ele>
        <time>2013-05-26T08:00:53Z</time>
      </trkpt>
      <trkpt lat="47.31937" lon="-0.6224">
        <ele>71.27</ele>
        <time>2013-05-26T08:00:56Z</time>
      </trkpt>
      <trkpt lat="47.31941" lon="-0.62238">
        <ele>72.72</ele>
        <time>2013-05-26T08:00:58Z</time>
      </trkpt>
      <trkpt lat="47.31947" lon="-0.62227">
        <ele>73.68</ele>
        <time>2013-05-26T08:01:02Z</time>
      </trkpt>
      <trkpt lat="47.3195" lon="-0.62193">
        <ele>73.68</ele>
        <time>2013-05-26T08:01:11Z</time>
      </trkpt>
      <trkpt lat="47.31959" lon="-0.6217">
        <ele>75.12</ele>
        <time>2013-05-26T08:01:19Z</time>
      </trkpt>
      <trkpt lat="47.31961" lon="-0.62164">
        <ele>74.64</ele>
        <time>2013-05-26T08:01:21Z</time>
      </trkpt>
      <trkpt lat="47.31958" lon="-0.62154">
        <ele>74.16</ele>
        <time>2013-05-26T08:01:24Z</time>
      </trkpt>
      <trkpt lat="47.31954" lon="-0.62125">
        <ele>72.72</ele>
        <time>2013-05-26T08:01:28Z</time>
      </trkpt>
      <trkpt lat="47.31965" lon="-0.62099">
        <ele>72.72</ele>
        <time>2013-05-26T08:01:33Z</time>
      </trkpt>
      <trkpt lat="47.3198" lon="-0.62082">
        <ele>74.64</ele>
        <time>2013-05-26T08:01:41Z</time>
      </trkpt>
      <trkpt lat="47.31982" lon="-0.62068">
        <ele>74.64</ele>
        <time>2013-05-26T08:01:46Z</time>
      </trkpt>
      <trkpt lat="47.31973" lon="-0.62048">
        <ele>70.79</ele>
        <time>2013-05-26T08:01:51Z</time>
      </trkpt>
      <trkpt lat="47.31964" lon="-0.62031">
        <ele>67.43</ele>
        <time>2013-05-26T08:01:56Z</time>
      </trkpt>
      <trkpt lat="47.31962" lon="-0.62028">
        <ele>67.43</ele>
        <time>2013-05-26T08:01:57Z</time>
      </trkpt>
      <trkpt lat="47.31957" lon="-0.6202">
        <ele>67.91</ele>
        <time>2013-05-26T08:02:03Z</time>
      </trkpt>
      <trkpt lat="47.31956" lon="-0.62018">
        <ele>68.39</ele>
        <time>2013-05-26T08:02:04Z</time>
      </trkpt>
      <trkpt lat="47.31948" lon="-0.62011">
        <ele>70.79</ele>
        <time>2013-05-26T08:02:13Z</time>
      </trkpt>
      <trkpt lat="47.31944" lon="-0.62009">
        <ele>70.79</ele>
        <time>2013-05-26T08:02:22Z</time>
      </trkpt>
      <trkpt lat="47.31942" lon="-0.62008">
        <ele>72.24</ele>
        <time>2013-05-26T08:02:28Z</time>
      </trkpt>
      <trkpt lat="47.31936" lon="-0.62007">
        <ele>73.2</ele>
        <time>2013-05-26T08:02:35Z</time>
      </trkpt>
      <trkpt lat="47.31935" lon="-0.62007">
        <ele>73.2</ele>
        <time>2013-05-26T08:02:36Z</time>
      </trkpt>
      <trkpt lat="47.3193" lon="-0.62013">
        <ele>72.72</ele>
        <time>2013-05-26T08:02:43Z</time>
      </trkpt>
      <trkpt lat="47.31917" lon="-0.62038">
        <ele>72.72</ele>
        <time>2013-05-26T08:02:53Z</time>
      </trkpt>
      <trkpt lat="47.31907" lon="-0.62055">
        <ele>73.68</ele>
        <time>2013-05-26T08:02:59Z</time>
      </trkpt>
      <trkpt lat="47.31894" lon="-0.62064">
        <ele>74.16</ele>
        <time>2013-05-26T08:03:05Z</time>
      </trkpt>
      <trkpt lat="47.31886" lon="-0.62066">
        <ele>74.64</ele>
        <time>2013-05-26T08:03:09Z</time>
      </trkpt>
      <trkpt lat="47.31876" lon="-0.62044">
        <ele>75.6</ele>
        <time>2013-05-26T08:03:16Z</time>
      </trkpt>
      <trkpt lat="47.31865" lon="-0.6201">
        <ele>76.08</ele>
        <time>2013-05-26T08:03:24Z</time>
      </trkpt>
      <trkpt lat="47.31858" lon="-0.6198">
        <ele>77.04</ele>
        <time>2013-05-26T08:03:31Z</time>
      </trkpt>
      <trkpt lat="47.31847" lon="-0.61946">
        <ele>78</ele>
        <time>2013-05-26T08:03:39Z</time>
      </trkpt>
      <trkpt lat="47.31837" lon="-0.61914">
        <ele>78</ele>
        <time>2013-05-26T08:03:46Z</time>
      </trkpt>
      <trkpt lat="47.31828" lon="-0.61881">
        <ele>78.97</ele>
        <time>2013-05-26T08:03:54Z</time>
      </trkpt>
      <trkpt lat="47.31823" lon="-0.61863">
        <ele>78.97</ele>
        <time>2013-05-26T08:03:59Z</time>
      </trkpt>
      <trkpt lat="47.31828" lon="-0.61852">
        <ele>79.93</ele>
        <time>2013-05-26T08:04:03Z</time>
      </trkpt>
      <trkpt lat="47.3185" lon="-0.61838">
        <ele>80.89</ele>
        <time>2013-05-26T08:04:13Z</time>
      </trkpt>
      <trkpt lat="47.3187" lon="-0.61823">
        <ele>80.89</ele>
        <time>2013-05-26T08:04:21Z</time>
      </trkpt>
      <trkpt lat="47.31888" lon="-0.61805">
        <ele>81.85</ele>
        <time>2013-05-26T08:04:28Z</time>
      </trkpt>
      <trkpt lat="47.31892" lon="-0.61776">
        <ele>81.85</ele>
        <time>2013-05-26T08:04:35Z</time>
      </trkpt>
      <trkpt lat="47.31899" lon="-0.61746">
        <ele>83.29</ele>
        <time>2013-05-26T08:04:43Z</time>
      </trkpt>
      <trkpt lat="47.31921" lon="-0.61731">
        <ele>83.29</ele>
        <time>2013-05-26T08:04:51Z</time>
      </trkpt>
      <trkpt lat="47.31941" lon="-0.61716">
        <ele>83.29</ele>
        <time>2013-05-26T08:04:58Z</time>
      </trkpt>
      <trkpt lat="47.31945" lon="-0.61714">
        <ele>82.81</ele>
        <time>2013-05-26T08:04:59Z</time>
      </trkpt>
      <trkpt lat="47.31986" lon="-0.61683">
        <ele>81.37</ele>
        <time>2013-05-26T08:05:10Z</time>
      </trkpt>
      <trkpt lat="47.32005" lon="-0.61666">
        <ele>80.41</ele>
        <time>2013-05-26T08:05:15Z</time>
      </trkpt>
      <trkpt lat="47.32034" lon="-0.61643">
        <ele>80.41</ele>
        <time>2013-05-26T08:05:23Z</time>
      </trkpt>
      <trkpt lat="47.32069" lon="-0.6163">
        <ele>80.89</ele>
        <time>2013-05-26T08:05:32Z</time>
      </trkpt>
      <trkpt lat="47.32076" lon="-0.61629">
        <ele>80.89</ele>
        <time>2013-05-26T08:05:34Z</time>
      </trkpt>
      <trkpt lat="47.32098" lon="-0.61624">
        <ele>81.37</ele>
        <time>2013-05-26T08:05:40Z</time>
      </trkpt>
      <trkpt lat="47.32093" lon="-0.61606">
        <ele>82.33</ele>
        <time>2013-05-26T08:05:45Z</time>
      </trkpt>
      <trkpt lat="47.32084" lon="-0.61593">
        <ele>82.81</ele>
        <time>2013-05-26T08:05:48Z</time>
      </trkpt>
      <trkpt lat="47.32069" lon="-0.61558">
        <ele>82.81</ele>
        <time>2013-05-26T08:05:55Z</time>
      </trkpt>
      <trkpt lat="47.32056" lon="-0.61518">
        <ele>83.29</ele>
        <time>2013-05-26T08:06:03Z</time>
      </trkpt>
      <trkpt lat="47.32042" lon="-0.61478">
        <ele>84.25</ele>
        <time>2013-05-26T08:06:11Z</time>
      </trkpt>
      <trkpt lat="47.32027" lon="-0.61432">
        <ele>84.25</ele>
        <time>2013-05-26T08:06:20Z</time>
      </trkpt>
      <trkpt lat="47.32024" lon="-0.61395">
        <ele>84.73</ele>
        <time>2013-05-26T08:06:27Z</time>
      </trkpt>
      <trkpt lat="47.32042" lon="-0.61354">
        <ele>87.14</ele>
        <time>2013-05-26T08:06:36Z</time>
      </trkpt>
      <trkpt lat="47.32047" lon="-0.61325">
        <ele>87.14</ele>
        <time>2013-05-26T08:06:42Z</time>
      </trkpt>
      <trkpt lat="47.32039" lon="-0.61293">
        <ele>87.14</ele>
        <time>2013-05-26T08:06:48Z</time>
      </trkpt>
      <trkpt lat="47.32038" lon="-0.61287">
        <ele>87.14</ele>
        <time>2013-05-26T08:06:49Z</time>
      </trkpt>
      <trkpt lat="47.32035" lon="-0.61276">
        <ele>87.14</ele>
        <time>2013-05-26T08:06:51Z</time>
      </trkpt>
      <trkpt lat="47.32026" lon="-0.61243">
        <ele>86.18</ele>
        <time>2013-05-26T08:06:56Z</time>
      </trkpt>
      <trkpt lat="47.32015" lon="-0.61213">
        <ele>85.21</ele>
        <time>2013-05-26T08:07:00Z</time>
      </trkpt>
      <trkpt lat="47.32009" lon="-0.61197">
        <ele>84.25</ele>
        <time>2013-05-26T08:07:02Z</time>
      </trkpt>
      <trkpt lat="47.32006" lon="-0.61146">
        <ele>82.81</ele>
        <time>2013-05-26T08:07:08Z</time>
      </trkpt>
      <trkpt lat="47.32018" lon="-0.61115">
        <ele>82.33</ele>
        <time>2013-05-26T08:07:12Z</time>
      </trkpt>
      <trkpt lat="47.32046" lon="-0.61067">
        <ele>82.81</ele>
        <time>2013-05-26T08:07:20Z</time>
      </trkpt>
      <trkpt lat="47.32058" lon="-0.61044">
        <ele>84.25</ele>
        <time>2013-05-26T08:07:26Z</time>
      </trkpt>
      <trkpt lat="47.32061" lon="-0.61035">
        <ele>84.25</ele>
        <time>2013-05-26T08:07:29Z</time>
      </trkpt>
      <trkpt lat="47.32051" lon="-0.61017">
        <ele>83.29</ele>
        <time>2013-05-26T08:07:34Z</time>
      </trkpt>
      <trkpt lat="47.32004" lon="-0.60981">
        <ele>82.81</ele>
        <time>2013-05-26T08:07:45Z</time>
      </trkpt>
      <trkpt lat="47.31957" lon="-0.60944">
        <ele>82.33</ele>
        <time>2013-05-26T08:07:55Z</time>
      </trkpt>
      <trkpt lat="47.31939" lon="-0.60929">
        <ele>82.33</ele>
        <time>2013-05-26T08:07:59Z</time>
      </trkpt>
      <trkpt lat="47.31905" lon="-0.60893">
        <ele>82.81</ele>
        <time>2013-05-26T08:08:07Z</time>
      </trkpt>
      <trkpt lat="47.3187" lon="-0.60846">
        <ele>83.29</ele>
        <time>2013-05-26T08:08:16Z</time>
      </trkpt>
      <trkpt lat="47.31843" lon="-0.60799">
        <ele>84.25</ele>
        <time>2013-05-26T08:08:24Z</time>
      </trkpt>
      <trkpt lat="47.31817" lon="-0.60743">
        <ele>84.25</ele>
        <time>2013-05-26T08:08:33Z</time>
      </trkpt>
      <trkpt lat="47.31811" lon="-0.60731">
        <ele>84.73</ele>
        <time>2013-05-26T08:08:35Z</time>
      </trkpt>
      <trkpt lat="47.31796" lon="-0.60709">
        <ele>84.73</ele>
        <time>2013-05-26T08:08:39Z</time>
      </trkpt>
      <trkpt lat="47.31767" lon="-0.60703">
        <ele>85.21</ele>
        <time>2013-05-26T08:08:45Z</time>
      </trkpt>
      <trkpt lat="47.31759" lon="-0.6071">
        <ele>84.73</ele>
        <time>2013-05-26T08:08:47Z</time>
      </trkpt>
      <trkpt lat="47.31751" lon="-0.60718">
        <ele>85.69</ele>
        <time>2013-05-26T08:08:49Z</time>
      </trkpt>
      <trkpt lat="47.31719" lon="-0.60747">
        <ele>86.18</ele>
        <time>2013-05-26T08:08:57Z</time>
      </trkpt>
      <trkpt lat="47.31712" lon="-0.60753">
        <ele>86.18</ele>
        <time>2013-05-26T08:08:59Z</time>
      </trkpt>
      <trkpt lat="47.31676" lon="-0.60765">
        <ele>86.18</ele>
        <time>2013-05-26T08:09:07Z</time>
      </trkpt>
      <trkpt lat="47.31633" lon="-0.60785">
        <ele>84.73</ele>
        <time>2013-05-26T08:09:16Z</time>
      </trkpt>
      <trkpt lat="47.31609" lon="-0.60796">
        <ele>83.29</ele>
        <time>2013-05-26T08:09:20Z</time>
      </trkpt>
      <trkpt lat="47.31575" lon="-0.6081">
        <ele>80.41</ele>
        <time>2013-05-26T08:09:25Z</time>
      </trkpt>
      <trkpt lat="47.31567" lon="-0.60811">
        <ele>78.48</ele>
        <time>2013-05-26T08:09:26Z</time>
      </trkpt>
      <trkpt lat="47.31559" lon="-0.60812">
        <ele>78</ele>
        <time>2013-05-26T08:09:27Z</time>
      </trkpt>
      <trkpt lat="47.31552" lon="-0.60811">
        <ele>76.56</ele>
        <time>2013-05-26T08:09:28Z</time>
      </trkpt>
      <trkpt lat="47.31545" lon="-0.60809">
        <ele>76.08</ele>
        <time>2013-05-26T08:09:29Z</time>
      </trkpt>
      <trkpt lat="47.3154" lon="-0.6081">
        <ele>76.08</ele>
        <time>2013-05-26T08:09:30Z</time>
      </trkpt>
      <trkpt lat="47.31534" lon="-0.60812">
        <ele>75.12</ele>
        <time>2013-05-26T08:09:31Z</time>
      </trkpt>
      <trkpt lat="47.31527" lon="-0.60816">
        <ele>74.16</ele>
        <time>2013-05-26T08:09:32Z</time>
      </trkpt>
      <trkpt lat="47.3152" lon="-0.6082">
        <ele>72.24</ele>
        <time>2013-05-26T08:09:33Z</time>
      </trkpt>
      <trkpt lat="47.31511" lon="-0.60824">
        <ele>71.27</ele>
        <time>2013-05-26T08:09:34Z</time>
      </trkpt>
      <trkpt lat="47.3148" lon="-0.60843">
        <ele>66.95</ele>
        <time>2013-05-26T08:09:38Z</time>
      </trkpt>
      <trkpt lat="47.31459" lon="-0.60859">
        <ele>64.07</ele>
        <time>2013-05-26T08:09:41Z</time>
      </trkpt>
      <trkpt lat="47.31443" lon="-0.60873">
        <ele>61.18</ele>
        <time>2013-05-26T08:09:44Z</time>
      </trkpt>
      <trkpt lat="47.31435" lon="-0.6088">
        <ele>59.74</ele>
        <time>2013-05-26T08:09:46Z</time>
      </trkpt>
      <trkpt lat="47.31431" lon="-0.60882">
        <ele>58.78</ele>
        <time>2013-05-26T08:09:47Z</time>
      </trkpt>
      <trkpt lat="47.31426" lon="-0.60882">
        <ele>58.3</ele>
        <time>2013-05-26T08:09:48Z</time>
      </trkpt>
      <trkpt lat="47.3142" lon="-0.60882">
        <ele>57.34</ele>
        <time>2013-05-26T08:09:49Z</time>
      </trkpt>
      <trkpt lat="47.31414" lon="-0.60882">
        <ele>55.89</ele>
        <time>2013-05-26T08:09:50Z</time>
      </trkpt>
      <trkpt lat="47.31408" lon="-0.60883">
        <ele>54.93</ele>
        <time>2013-05-26T08:09:51Z</time>
      </trkpt>
      <trkpt lat="47.31402" lon="-0.60885">
        <ele>53.97</ele>
        <time>2013-05-26T08:09:52Z</time>
      </trkpt>
      <trkpt lat="47.31396" lon="-0.60888">
        <ele>53.49</ele>
        <time>2013-05-26T08:09:53Z</time>
      </trkpt>
      <trkpt lat="47.31391" lon="-0.6089">
        <ele>52.53</ele>
        <time>2013-05-26T08:09:54Z</time>
      </trkpt>
      <trkpt lat="47.31385" lon="-0.60891">
        <ele>52.05</ele>
        <time>2013-05-26T08:09:55Z</time>
      </trkpt>
      <trkpt lat="47.31379" lon="-0.60892">
        <ele>52.05</ele>
        <time>2013-05-26T08:09:56Z</time>
      </trkpt>
      <trkpt lat="47.31369" lon="-0.60891">
        <ele>50.61</ele>
        <time>2013-05-26T08:09:58Z</time>
      </trkpt>
      <trkpt lat="47.31365" lon="-0.6089">
        <ele>49.16</ele>
        <time>2013-05-26T08:09:59Z</time>
      </trkpt>
      <trkpt lat="47.31361" lon="-0.60888">
        <ele>48.68</ele>
        <time>2013-05-26T08:10:00Z</time>
      </trkpt>
      <trkpt lat="47.31358" lon="-0.60888">
        <ele>48.2</ele>
        <time>2013-05-26T08:10:01Z</time>
      </trkpt>
      <trkpt lat="47.31355" lon="-0.60889">
        <ele>47.72</ele>
        <time>2013-05-26T08:10:02Z</time>
      </trkpt>
      <trkpt lat="47.31354" lon="-0.6089">
        <ele>47.24</ele>
        <time>2013-05-26T08:10:03Z</time>
      </trkpt>
      <trkpt lat="47.31353" lon="-0.60892">
        <ele>47.24</ele>
        <time>2013-05-26T08:10:04Z</time>
      </trkpt>
      <trkpt lat="47.31353" lon="-0.60895">
        <ele>46.76</ele>
        <time>2013-05-26T08:10:05Z</time>
      </trkpt>
      <trkpt lat="47.31355" lon="-0.609">
        <ele>46.76</ele>
        <time>2013-05-26T08:10:06Z</time>
      </trkpt>
      <trkpt lat="47.31362" lon="-0.60913">
        <ele>45.32</ele>
        <time>2013-05-26T08:10:08Z</time>
      </trkpt>
      <trkpt lat="47.31373" lon="-0.60926">
        <ele>44.36</ele>
        <time>2013-05-26T08:10:10Z</time>
      </trkpt>
      <trkpt lat="47.31401" lon="-0.60969">
        <ele>41.47</ele>
        <time>2013-05-26T08:10:15Z</time>
      </trkpt>
      <trkpt lat="47.31407" lon="-0.60984">
        <ele>40.51</ele>
        <time>2013-05-26T08:10:17Z</time>
      </trkpt>
      <trkpt lat="47.31409" lon="-0.60992">
        <ele>38.59</ele>
        <time>2013-05-26T08:10:18Z</time>
      </trkpt>
      <trkpt lat="47.3141" lon="-0.61">
        <ele>37.63</ele>
        <time>2013-05-26T08:10:19Z</time>
      </trkpt>
      <trkpt lat="47.31409" lon="-0.61007">
        <ele>37.15</ele>
        <time>2013-05-26T08:10:20Z</time>
      </trkpt>
      <trkpt lat="47.31408" lon="-0.61012">
        <ele>37.15</ele>
        <time>2013-05-26T08:10:21Z</time>
      </trkpt>
      <trkpt lat="47.31406" lon="-0.61016">
        <ele>36.19</ele>
        <time>2013-05-26T08:10:22Z</time>
      </trkpt>
      <trkpt lat="47.31405" lon="-0.6102">
        <ele>35.71</ele>
        <time>2013-05-26T08:10:23Z</time>
      </trkpt>
      <trkpt lat="47.31406" lon="-0.61024">
        <ele>36.19</ele>
        <time>2013-05-26T08:10:24Z</time>
      </trkpt>
      <trkpt lat="47.3141" lon="-0.61033">
        <ele>35.71</ele>
        <time>2013-05-26T08:10:26Z</time>
      </trkpt>
      <trkpt lat="47.31434" lon="-0.61078">
        <ele>33.78</ele>
        <time>2013-05-26T08:10:33Z</time>
      </trkpt>
      <trkpt lat="47.31454" lon="-0.61135">
        <ele>32.34</ele>
        <time>2013-05-26T08:10:39Z</time>
      </trkpt>
      <trkpt lat="47.31457" lon="-0.61147">
        <ele>31.38</ele>
        <time>2013-05-26T08:10:40Z</time>
      </trkpt>
      <trkpt lat="47.3147" lon="-0.61187">
        <ele>28.98</ele>
        <time>2013-05-26T08:10:45Z</time>
      </trkpt>
      <trkpt lat="47.31463" lon="-0.61203">
        <ele>26.57</ele>
        <time>2013-05-26T08:10:49Z</time>
      </trkpt>
      <trkpt lat="47.31462" lon="-0.6121">
        <ele>26.57</ele>
        <time>2013-05-26T08:10:50Z</time>
      </trkpt>
      <trkpt lat="47.31461" lon="-0.61227">
        <ele>25.61</ele>
        <time>2013-05-26T08:10:52Z</time>
      </trkpt>
      <trkpt lat="47.31457" lon="-0.61263">
        <ele>21.29</ele>
        <time>2013-05-26T08:10:57Z</time>
      </trkpt>
      <trkpt lat="47.31455" lon="-0.61283">
        <ele>19.36</ele>
        <time>2013-05-26T08:11:03Z</time>
      </trkpt>
      <trkpt lat="47.31457" lon="-0.61294">
        <ele>17.92</ele>
        <time>2013-05-26T08:11:09Z</time>
      </trkpt>
      <trkpt lat="47.31457" lon="-0.61294">
        <ele>17.92</ele>
        <time>2013-05-26T08:11:13Z</time>
      </trkpt>
      <trkpt lat="47.3146" lon="-0.61301">
        <ele>17.44</ele>
        <time>2013-05-26T08:11:19Z</time>
      </trkpt>
      <trkpt lat="47.31465" lon="-0.61308">
        <ele>17.44</ele>
        <time>2013-05-26T08:11:28Z</time>
      </trkpt>
      <trkpt lat="47.31465" lon="-0.61307">
        <ele>16.96</ele>
        <time>2013-05-26T08:11:34Z</time>
      </trkpt>
      <trkpt lat="47.31465" lon="-0.61307">
        <ele>17.44</ele>
        <time>2013-05-26T08:11:50Z</time>
      </trkpt>
      <trkpt lat="47.31465" lon="-0.61307">
        <ele>16.96</ele>
        <time>2013-05-26T08:12:12Z</time>
      </trkpt>
      <trkpt lat="47.31465" lon="-0.61307">
        <ele>17.44</ele>
        <time>2013-05-26T08:12:32Z</time>
      </trkpt>
      <trkpt lat="47.31465" lon="-0.61307">
        <ele>17.44</ele>
        <time>2013-05-26T08:12:54Z</time>
      </trkpt>
      <trkpt lat="47.31465" lon="-0.61307">
        <ele>17.44</ele>
        <time>2013-05-26T08:13:16Z</time>
      </trkpt>
      <trkpt lat="47.31465" lon="-0.61307">
        <ele>17.44</ele>
        <time>2013-05-26T08:13:36Z</time>
      </trkpt>
      <trkpt lat="47.31465" lon="-0.61307">
        <ele>16.96</ele>
        <time>2013-05-26T08:13:54Z</time>
      </trkpt>
      <trkpt lat="47.31465" lon="-0.61307">
        <ele>17.44</ele>
        <time>2013-05-26T08:14:15Z</time>
      </trkpt>
      <trkpt lat="47.31465" lon="-0.61307">
        <ele>16.96</ele>
        <time>2013-05-26T08:14:38Z</time>
      </trkpt>
      <trkpt lat="47.31465" lon="-0.61307">
        <ele>17.44</ele>
        <time>2013-05-26T08:14:53Z</time>
      </trkpt>
      <trkpt lat="47.31465" lon="-0.61307">
        <ele>17.44</ele>
        <time>2013-05-26T08:15:12Z</time>
      </trkpt>
      <trkpt lat="47.31465" lon="-0.61307">
        <ele>16.96</ele>
        <time>2013-05-26T08:15:34Z</time>
      </trkpt>
      <trkpt lat="47.31465" lon="-0.61307">
        <ele>17.44</ele>
        <time>2013-05-26T08:15:54Z</time>
      </trkpt>
      <trkpt lat="47.31465" lon="-0.61307">
        <ele>17.44</ele>
        <time>2013-05-26T08:16:13Z</time>
      </trkpt>
      <trkpt lat="47.31465" lon="-0.61307">
        <ele>16.96</ele>
        <time>2013-05-26T08:16:32Z</time>
      </trkpt>
      <trkpt lat="47.31465" lon="-0.61307">
        <ele>17.44</ele>
        <time>2013-05-26T08:16:49Z</time>
      </trkpt>
      <trkpt lat="47.31465" lon="-0.61307">
        <ele>17.92</ele>
        <time>2013-05-26T08:17:03Z</time>
      </trkpt>
      <trkpt lat="47.31461" lon="-0.61308">
        <ele>17.92</ele>
        <time>2013-05-26T08:17:10Z</time>
      </trkpt>
      <trkpt lat="47.31461" lon="-0.61308">
        <ele>16.96</ele>
        <time>2013-05-26T08:17:15Z</time>
      </trkpt>
      <trkpt lat="47.31457" lon="-0.6131">
        <ele>17.44</ele>
        <time>2013-05-26T08:17:22Z</time>
      </trkpt>
      <trkpt lat="47.31444" lon="-0.61308">
        <ele>16.48</ele>
        <time>2013-05-26T08:17:29Z</time>
      </trkpt>
      <trkpt lat="47.31434" lon="-0.61307">
        <ele>16.48</ele>
        <time>2013-05-26T08:17:32Z</time>
      </trkpt>
      <trkpt lat="47.31421" lon="-0.61291">
        <ele>17.44</ele>
        <time>2013-05-26T08:17:39Z</time>
      </trkpt>
      <trkpt lat="47.31414" lon="-0.61278">
        <ele>17.92</ele>
        <time>2013-05-26T08:17:44Z</time>
      </trkpt>
      <trkpt lat="47.31411" lon="-0.61271">
        <ele>18.88</ele>
        <time>2013-05-26T08:17:46Z</time>
      </trkpt>
      <trkpt lat="47.314" lon="-0.61271">
        <ele>19.84</ele>
        <time>2013-05-26T08:17:53Z</time>
      </trkpt>
      <trkpt lat="47.31397" lon="-0.61277">
        <ele>19.84</ele>
        <time>2013-05-26T08:17:55Z</time>
      </trkpt>
      <trkpt lat="47.31394" lon="-0.61284">
        <ele>19.84</ele>
        <time>2013-05-26T08:17:58Z</time>
      </trkpt>
      <trkpt lat="47.3139" lon="-0.613">
        <ele>19.84</ele>
        <time>2013-05-26T08:18:04Z</time>
      </trkpt>
      <trkpt lat="47.31382" lon="-0.61319">
        <ele>19.84</ele>
        <time>2013-05-26T08:18:10Z</time>
      </trkpt>
      <trkpt lat="47.31378" lon="-0.61327">
        <ele>19.36</ele>
        <time>2013-05-26T08:18:14Z</time>
      </trkpt>
      <trkpt lat="47.31372" lon="-0.61346">
        <ele>18.4</ele>
        <time>2013-05-26T08:18:20Z</time>
      </trkpt>
      <trkpt lat="47.31366" lon="-0.61357">
        <ele>17.92</ele>
        <time>2013-05-26T08:18:25Z</time>
      </trkpt>
      <trkpt lat="47.31361" lon="-0.6136">
        <ele>18.4</ele>
        <time>2013-05-26T08:18:33Z</time>
      </trkpt>
      <trkpt lat="47.31359" lon="-0.61364">
        <ele>19.36</ele>
        <time>2013-05-26T08:18:37Z</time>
      </trkpt>
      <trkpt lat="47.31359" lon="-0.61368">
        <ele>19.84</ele>
        <time>2013-05-26T08:18:43Z</time>
      </trkpt>
      <trkpt lat="47.31353" lon="-0.61374">
        <ele>19.84</ele>
        <time>2013-05-26T08:18:46Z</time>
      </trkpt>
      <trkpt lat="47.31345" lon="-0.61384">
        <ele>20.32</ele>
        <time>2013-05-26T08:18:51Z</time>
      </trkpt>
      <trkpt lat="47.31332" lon="-0.61405">
        <ele>20.81</ele>
        <time>2013-05-26T08:18:59Z</time>
      </trkpt>
      <trkpt lat="47.31317" lon="-0.61423">
        <ele>21.77</ele>
        <time>2013-05-26T08:19:05Z</time>
      </trkpt>
      <trkpt lat="47.31302" lon="-0.61445">
        <ele>22.73</ele>
        <time>2013-05-26T08:19:12Z</time>
      </trkpt>
      <trkpt lat="47.31282" lon="-0.61473">
        <ele>23.21</ele>
        <time>2013-05-26T08:19:20Z</time>
      </trkpt>
      <trkpt lat="47.31266" lon="-0.61488">
        <ele>24.17</ele>
        <time>2013-05-26T08:19:26Z</time>
      </trkpt>
      <trkpt lat="47.31249" lon="-0.61505">
        <ele>25.13</ele>
        <time>2013-05-26T08:19:33Z</time>
      </trkpt>
      <trkpt lat="47.31236" lon="-0.61522">
        <ele>27.05</ele>
        <time>2013-05-26T08:19:40Z</time>
      </trkpt>
      <trkpt lat="47.31222" lon="-0.61538">
        <ele>27.53</ele>
        <time>2013-05-26T08:19:47Z</time>
      </trkpt>
      <trkpt lat="47.31209" lon="-0.61563">
        <ele>28.98</ele>
        <time>2013-05-26T08:19:55Z</time>
      </trkpt>
      <trkpt lat="47.31197" lon="-0.61583">
        <ele>30.42</ele>
        <time>2013-05-26T08:20:03Z</time>
      </trkpt>
      <trkpt lat="47.31181" lon="-0.61605">
        <ele>31.86</ele>
        <time>2013-05-26T08:20:14Z</time>
      </trkpt>
      <trkpt lat="47.31173" lon="-0.6162">
        <ele>32.82</ele>
        <time>2013-05-26T08:20:22Z</time>
      </trkpt>
      <trkpt lat="47.31173" lon="-0.61626">
        <ele>33.3</ele>
        <time>2013-05-26T08:20:29Z</time>
      </trkpt>
      <trkpt lat="47.31173" lon="-0.61626">
        <ele>32.82</ele>
        <time>2013-05-26T08:20:39Z</time>
      </trkpt>
      <trkpt lat="47.31173" lon="-0.61626">
        <ele>32.34</ele>
        <time>2013-05-26T08:20:41Z</time>
      </trkpt>
      <trkpt lat="47.31184" lon="-0.61639">
        <ele>33.78</ele>
        <time>2013-05-26T08:20:47Z</time>
      </trkpt>
      <trkpt lat="47.31191" lon="-0.61646">
        <ele>35.23</ele>
        <time>2013-05-26T08:20:50Z</time>
      </trkpt>
      <trkpt lat="47.31213" lon="-0.61667">
        <ele>36.67</ele>
        <time>2013-05-26T08:21:00Z</time>
      </trkpt>
      <trkpt lat="47.31234" lon="-0.61691">
        <ele>38.11</ele>
        <time>2013-05-26T08:21:10Z</time>
      </trkpt>
      <trkpt lat="47.31252" lon="-0.61714">
        <ele>38.59</ele>
        <time>2013-05-26T08:21:18Z</time>
      </trkpt>
      <trkpt lat="47.31278" lon="-0.6174">
        <ele>39.55</ele>
        <time>2013-05-26T08:21:28Z</time>
      </trkpt>
      <trkpt lat="47.3129" lon="-0.61768">
        <ele>39.55</ele>
        <time>2013-05-26T08:21:34Z</time>
      </trkpt>
      <trkpt lat="47.3129" lon="-0.618">
        <ele>39.07</ele>
        <time>2013-05-26T08:21:39Z</time>
      </trkpt>
      <trkpt lat="47.31287" lon="-0.61805">
        <ele>39.55</ele>
        <time>2013-05-26T08:21:40Z</time>
      </trkpt>
      <trkpt lat="47.31281" lon="-0.61816">
        <ele>39.55</ele>
        <time>2013-05-26T08:21:42Z</time>
      </trkpt>
      <trkpt lat="47.31276" lon="-0.61847">
        <ele>38.11</ele>
        <time>2013-05-26T08:21:46Z</time>
      </trkpt>
      <trkpt lat="47.3128" lon="-0.6188">
        <ele>36.19</ele>
        <time>2013-05-26T08:21:49Z</time>
      </trkpt>
      <trkpt lat="47.31282" lon="-0.61893">
        <ele>35.23</ele>
        <time>2013-05-26T08:21:50Z</time>
      </trkpt>
      <trkpt lat="47.313" lon="-0.61957">
        <ele>35.23</ele>
        <time>2013-05-26T08:21:56Z</time>
      </trkpt>
      <trkpt lat="47.3131" lon="-0.61983">
        <ele>36.67</ele>
        <time>2013-05-26T08:22:00Z</time>
      </trkpt>
      <trkpt lat="47.3133" lon="-0.6205">
        <ele>37.63</ele>
        <time>2013-05-26T08:22:11Z</time>
      </trkpt>
      <trkpt lat="47.31327" lon="-0.62068">
        <ele>38.11</ele>
        <time>2013-05-26T08:22:15Z</time>
      </trkpt>
      <trkpt lat="47.31308" lon="-0.62081">
        <ele>38.59</ele>
        <time>2013-05-26T08:22:21Z</time>
      </trkpt>
      <trkpt lat="47.31291" lon="-0.62094">
        <ele>39.07</ele>
        <time>2013-05-26T08:22:26Z</time>
      </trkpt>
      <trkpt lat="47.31278" lon="-0.62109">
        <ele>39.55</ele>
        <time>2013-05-26T08:22:30Z</time>
      </trkpt>
      <trkpt lat="47.31253" lon="-0.62157">
        <ele>40.03</ele>
        <time>2013-05-26T08:22:39Z</time>
      </trkpt>
      <trkpt lat="47.31219" lon="-0.62184">
        <ele>39.55</ele>
        <time>2013-05-26T08:22:46Z</time>
      </trkpt>
      <trkpt lat="47.31214" lon="-0.62189">
        <ele>39.55</ele>
        <time>2013-05-26T08:22:47Z</time>
      </trkpt>
      <trkpt lat="47.31202" lon="-0.62204">
        <ele>39.07</ele>
        <time>2013-05-26T08:22:50Z</time>
      </trkpt>
      <trkpt lat="47.31184" lon="-0.62223">
        <ele>39.07</ele>
        <time>2013-05-26T08:22:54Z</time>
      </trkpt>
      <trkpt lat="47.31147" lon="-0.6226">
        <ele>40.51</ele>
        <time>2013-05-26T08:23:02Z</time>
      </trkpt>
      <trkpt lat="47.31115" lon="-0.62295">
        <ele>41.95</ele>
        <time>2013-05-26T08:23:10Z</time>
      </trkpt>
      <trkpt lat="47.31101" lon="-0.62323">
        <ele>42.44</ele>
        <time>2013-05-26T08:23:15Z</time>
      </trkpt>
      <trkpt lat="47.31079" lon="-0.62382">
        <ele>42.44</ele>
        <time>2013-05-26T08:23:24Z</time>
      </trkpt>
      <trkpt lat="47.31073" lon="-0.62395">
        <ele>42.92</ele>
        <time>2013-05-26T08:23:26Z</time>
      </trkpt>
      <trkpt lat="47.31052" lon="-0.62461">
        <ele>43.4</ele>
        <time>2013-05-26T08:23:36Z</time>
      </trkpt>
      <trkpt lat="47.3105" lon="-0.62467">
        <ele>43.4</ele>
        <time>2013-05-26T08:23:37Z</time>
      </trkpt>
      <trkpt lat="47.31023" lon="-0.62518">
        <ele>44.84</ele>
        <time>2013-05-26T08:23:46Z</time>
      </trkpt>
      <trkpt lat="47.31004" lon="-0.62548">
        <ele>45.32</ele>
        <time>2013-05-26T08:23:52Z</time>
      </trkpt>
      <trkpt lat="47.30993" lon="-0.62568">
        <ele>45.32</ele>
        <time>2013-05-26T08:23:56Z</time>
      </trkpt>
      <trkpt lat="47.30974" lon="-0.62611">
        <ele>47.24</ele>
        <time>2013-05-26T08:24:06Z</time>
      </trkpt>
      <trkpt lat="47.30963" lon="-0.62633">
        <ele>47.24</ele>
        <time>2013-05-26T08:24:11Z</time>
      </trkpt>
      <trkpt lat="47.30946" lon="-0.62655">
        <ele>47.24</ele>
        <time>2013-05-26T08:24:17Z</time>
      </trkpt>
      <trkpt lat="47.3095" lon="-0.62664">
        <ele>47.72</ele>
        <time>2013-05-26T08:24:19Z</time>
      </trkpt>
      <trkpt lat="47.30975" lon="-0.62688">
        <ele>50.13</ele>
        <time>2013-05-26T08:24:29Z</time>
      </trkpt>
      <trkpt lat="47.30992" lon="-0.62704">
        <ele>51.57</ele>
        <time>2013-05-26T08:24:38Z</time>
      </trkpt>
      <trkpt lat="47.31004" lon="-0.62717">
        <ele>52.53</ele>
        <time>2013-05-26T08:24:45Z</time>
      </trkpt>
      <trkpt lat="47.31019" lon="-0.62733">
        <ele>53.49</ele>
        <time>2013-05-26T08:24:54Z</time>
      </trkpt>
      <trkpt lat="47.31033" lon="-0.62751">
        <ele>54.45</ele>
        <time>2013-05-26T08:25:02Z</time>
      </trkpt>
      <trkpt lat="47.31056" lon="-0.62771">
        <ele>55.41</ele>
        <time>2013-05-26T08:25:11Z</time>
      </trkpt>
      <trkpt lat="47.31077" lon="-0.62784">
        <ele>55.41</ele>
        <time>2013-05-26T08:25:18Z</time>
      </trkpt>
      <trkpt lat="47.31089" lon="-0.62814">
        <ele>54.93</ele>
        <time>2013-05-26T08:25:24Z</time>
      </trkpt>
      <trkpt lat="47.31095" lon="-0.62836">
        <ele>55.89</ele>
        <time>2013-05-26T08:25:28Z</time>
      </trkpt>
      <trkpt lat="47.31108" lon="-0.62874">
        <ele>55.41</ele>
        <time>2013-05-26T08:25:35Z</time>
      </trkpt>
      <trkpt lat="47.31124" lon="-0.62922">
        <ele>53.49</ele>
        <time>2013-05-26T08:25:43Z</time>
      </trkpt>
      <trkpt lat="47.31126" lon="-0.62925">
        <ele>53.49</ele>
        <time>2013-05-26T08:25:44Z</time>
      </trkpt>
      <trkpt lat="47.31141" lon="-0.62923">
        <ele>52.53</ele>
        <time>2013-05-26T08:25:48Z</time>
      </trkpt>
      <trkpt lat="47.31171" lon="-0.6291">
        <ele>51.09</ele>
        <time>2013-05-26T08:25:54Z</time>
      </trkpt>
      <trkpt lat="47.31211" lon="-0.62908">
        <ele>49.65</ele>
        <time>2013-05-26T08:26:00Z</time>
      </trkpt>
      <trkpt lat="47.31232" lon="-0.62913">
        <ele>48.2</ele>
        <time>2013-05-26T08:26:03Z</time>
      </trkpt>
      <trkpt lat="47.31282" lon="-0.62925">
        <ele>45.8</ele>
        <time>2013-05-26T08:26:10Z</time>
      </trkpt>
      <trkpt lat="47.31324" lon="-0.62935">
        <ele>43.88</ele>
        <time>2013-05-26T08:26:16Z</time>
      </trkpt>
      <trkpt lat="47.31343" lon="-0.6294">
        <ele>42.92</ele>
        <time>2013-05-26T08:26:19Z</time>
      </trkpt>
      <trkpt lat="47.31365" lon="-0.62956">
        <ele>42.92</ele>
        <time>2013-05-26T08:26:23Z</time>
      </trkpt>
      <trkpt lat="47.314" lon="-0.62986">
        <ele>39.55</ele>
        <time>2013-05-26T08:26:29Z</time>
      </trkpt>
      <trkpt lat="47.31405" lon="-0.62991">
        <ele>39.55</ele>
        <time>2013-05-26T08:26:30Z</time>
      </trkpt>
      <trkpt lat="47.31414" lon="-0.62998">
        <ele>38.11</ele>
        <time>2013-05-26T08:26:32Z</time>
      </trkpt>
      <trkpt lat="47.31418" lon="-0.63016">
        <ele>37.63</ele>
        <time>2013-05-26T08:26:36Z</time>
      </trkpt>
      <trkpt lat="47.31415" lon="-0.63018">
        <ele>38.11</ele>
        <time>2013-05-26T08:26:37Z</time>
      </trkpt>
      <trkpt lat="47.31402" lon="-0.63024">
        <ele>38.59</ele>
        <time>2013-05-26T08:26:40Z</time>
      </trkpt>
      <trkpt lat="47.31385" lon="-0.63032">
        <ele>40.51</ele>
        <time>2013-05-26T08:26:44Z</time>
      </trkpt>
      <trkpt lat="47.31351" lon="-0.63051">
        <ele>41.95</ele>
        <time>2013-05-26T08:26:53Z</time>
      </trkpt>
      <trkpt lat="47.31341" lon="-0.63057">
        <ele>42.92</ele>
        <time>2013-05-26T08:26:56Z</time>
      </trkpt>
      <trkpt lat="47.31311" lon="-0.63071">
        <ele>44.36</ele>
        <time>2013-05-26T08:27:05Z</time>
      </trkpt>
      <trkpt lat="47.31281" lon="-0.63088">
        <ele>45.8</ele>
        <time>2013-05-26T08:27:15Z</time>
      </trkpt>
      <trkpt lat="47.3125" lon="-0.6311">
        <ele>45.8</ele>
        <time>2013-05-26T08:27:24Z</time>
      </trkpt>
      <trkpt lat="47.31224" lon="-0.63133">
        <ele>46.76</ele>
        <time>2013-05-26T08:27:33Z</time>
      </trkpt>
      <trkpt lat="47.31208" lon="-0.63149">
        <ele>48.2</ele>
        <time>2013-05-26T08:27:39Z</time>
      </trkpt>
      <trkpt lat="47.31194" lon="-0.63137">
        <ele>48.68</ele>
        <time>2013-05-26T08:27:45Z</time>
      </trkpt>
      <trkpt lat="47.31178" lon="-0.63116">
        <ele>50.13</ele>
        <time>2013-05-26T08:27:53Z</time>
      </trkpt>
      <trkpt lat="47.31166" lon="-0.63104">
        <ele>51.09</ele>
        <time>2013-05-26T08:27:59Z</time>
      </trkpt>
      <trkpt lat="47.31162" lon="-0.63111">
        <ele>51.09</ele>
        <time>2013-05-26T08:28:03Z</time>
      </trkpt>
      <trkpt lat="47.31157" lon="-0.63126">
        <ele>51.57</ele>
        <time>2013-05-26T08:28:08Z</time>
      </trkpt>
      <trkpt lat="47.31142" lon="-0.63141">
        <ele>52.53</ele>
        <time>2013-05-26T08:28:15Z</time>
      </trkpt>
      <trkpt lat="47.31123" lon="-0.63149">
        <ele>53.49</ele>
        <time>2013-05-26T08:28:23Z</time>
      </trkpt>
      <trkpt lat="47.31107" lon="-0.63156">
        <ele>54.45</ele>
        <time>2013-05-26T08:28:30Z</time>
      </trkpt>
      <trkpt lat="47.31091" lon="-0.63158">
        <ele>55.89</ele>
        <time>2013-05-26T08:28:36Z</time>
      </trkpt>
      <trkpt lat="47.31064" lon="-0.6316">
        <ele>56.86</ele>
        <time>2013-05-26T08:28:46Z</time>
      </trkpt>
      <trkpt lat="47.31062" lon="-0.63159">
        <ele>56.86</ele>
        <time>2013-05-26T08:28:47Z</time>
      </trkpt>
      <trkpt lat="47.31059" lon="-0.63138">
        <ele>57.82</ele>
        <time>2013-05-26T08:28:53Z</time>
      </trkpt>
      <trkpt lat="47.31051" lon="-0.63127">
        <ele>57.34</ele>
        <time>2013-05-26T08:28:57Z</time>
      </trkpt>
      <trkpt lat="47.31015" lon="-0.63112">
        <ele>58.3</ele>
        <time>2013-05-26T08:29:09Z</time>
      </trkpt>
      <trkpt lat="47.30994" lon="-0.63103">
        <ele>58.78</ele>
        <time>2013-05-26T08:29:16Z</time>
      </trkpt>
      <trkpt lat="47.30987" lon="-0.63101">
        <ele>58.78</ele>
        <time>2013-05-26T08:29:18Z</time>
      </trkpt>
      <trkpt lat="47.30979" lon="-0.63124">
        <ele>59.26</ele>
        <time>2013-05-26T08:29:24Z</time>
      </trkpt>
      <trkpt lat="47.3097" lon="-0.6316">
        <ele>59.26</ele>
        <time>2013-05-26T08:29:32Z</time>
      </trkpt>
      <trkpt lat="47.30963" lon="-0.63193">
        <ele>59.74</ele>
        <time>2013-05-26T08:29:39Z</time>
      </trkpt>
      <trkpt lat="47.30956" lon="-0.63224">
        <ele>60.22</ele>
        <time>2013-05-26T08:29:45Z</time>
      </trkpt>
      <trkpt lat="47.30948" lon="-0.63261">
        <ele>60.7</ele>
        <time>2013-05-26T08:29:52Z</time>
      </trkpt>
      <trkpt lat="47.3094" lon="-0.63301">
        <ele>60.7</ele>
        <time>2013-05-26T08:30:00Z</time>
      </trkpt>
      <trkpt lat="47.30952" lon="-0.63316">
        <ele>60.22</ele>
        <time>2013-05-26T08:30:05Z</time>
      </trkpt>
      <trkpt lat="47.30961" lon="-0.6332">
        <ele>60.22</ele>
        <time>2013-05-26T08:30:08Z</time>
      </trkpt>
      <trkpt lat="47.30967" lon="-0.6333">
        <ele>59.26</ele>
        <time>2013-05-26T08:30:11Z</time>
      </trkpt>
      <trkpt lat="47.3096" lon="-0.63363">
        <ele>60.22</ele>
        <time>2013-05-26T08:30:18Z</time>
      </trkpt>
      <trkpt lat="47.30953" lon="-0.63401">
        <ele>60.7</ele>
        <time>2013-05-26T08:30:26Z</time>
      </trkpt>
      <trkpt lat="47.30945" lon="-0.6344">
        <ele>61.66</ele>
        <time>2013-05-26T08:30:35Z</time>
      </trkpt>
      <trkpt lat="47.30929" lon="-0.6347">
        <ele>61.66</ele>
        <time>2013-05-26T08:30:43Z</time>
      </trkpt>
      <trkpt lat="47.30912" lon="-0.63477">
        <ele>62.14</ele>
        <time>2013-05-26T08:30:49Z</time>
      </trkpt>
      <trkpt lat="47.3089" lon="-0.63473">
        <ele>62.14</ele>
        <time>2013-05-26T08:30:56Z</time>
      </trkpt>
      <trkpt lat="47.3086" lon="-0.63468">
        <ele>63.1</ele>
        <time>2013-05-26T08:31:05Z</time>
      </trkpt>
      <trkpt lat="47.3083" lon="-0.6346">
        <ele>62.62</ele>
        <time>2013-05-26T08:31:13Z</time>
      </trkpt>
      <trkpt lat="47.30823" lon="-0.63463">
        <ele>63.1</ele>
        <time>2013-05-26T08:31:15Z</time>
      </trkpt>
      <trkpt lat="47.30819" lon="-0.63487">
        <ele>63.1</ele>
        <time>2013-05-26T08:31:20Z</time>
      </trkpt>
      <trkpt lat="47.30818" lon="-0.63531">
        <ele>63.1</ele>
        <time>2013-05-26T08:31:28Z</time>
      </trkpt>
      <trkpt lat="47.30817" lon="-0.6356">
        <ele>63.1</ele>
        <time>2013-05-26T08:31:33Z</time>
      </trkpt>
      <trkpt lat="47.30815" lon="-0.63611">
        <ele>62.62</ele>
        <time>2013-05-26T08:31:42Z</time>
      </trkpt>
      <trkpt lat="47.30813" lon="-0.63638">
        <ele>62.14</ele>
        <time>2013-05-26T08:31:47Z</time>
      </trkpt>
      <trkpt lat="47.30822" lon="-0.63648">
        <ele>62.14</ele>
        <time>2013-05-26T08:31:51Z</time>
      </trkpt>
      <trkpt lat="47.30829" lon="-0.63648">
        <ele>63.1</ele>
        <time>2013-05-26T08:31:53Z</time>
      </trkpt>
      <trkpt lat="47.30861" lon="-0.6365">
        <ele>62.14</ele>
        <time>2013-05-26T08:32:01Z</time>
      </trkpt>
      <trkpt lat="47.30907" lon="-0.6365">
        <ele>61.18</ele>
        <time>2013-05-26T08:32:11Z</time>
      </trkpt>
      <trkpt lat="47.30924" lon="-0.63651">
        <ele>59.74</ele>
        <time>2013-05-26T08:32:14Z</time>
      </trkpt>
      <trkpt lat="47.30965" lon="-0.63659">
        <ele>58.3</ele>
        <time>2013-05-26T08:32:21Z</time>
      </trkpt>
      <trkpt lat="47.31017" lon="-0.6367">
        <ele>56.37</ele>
        <time>2013-05-26T08:32:29Z</time>
      </trkpt>
      <trkpt lat="47.31035" lon="-0.63691">
        <ele>55.89</ele>
        <time>2013-05-26T08:32:33Z</time>
      </trkpt>
      <trkpt lat="47.31037" lon="-0.63719">
        <ele>56.86</ele>
        <time>2013-05-26T08:32:37Z</time>
      </trkpt>
      <trkpt lat="47.31034" lon="-0.63745">
        <ele>56.86</ele>
        <time>2013-05-26T08:32:41Z</time>
      </trkpt>
      <trkpt lat="47.31032" lon="-0.63769">
        <ele>57.34</ele>
        <time>2013-05-26T08:32:45Z</time>
      </trkpt>
      <trkpt lat="47.31031" lon="-0.63815">
        <ele>58.3</ele>
        <time>2013-05-26T08:32:53Z</time>
      </trkpt>
      <trkpt lat="47.3103" lon="-0.63867">
        <ele>57.82</ele>
        <time>2013-05-26T08:33:02Z</time>
      </trkpt>
      <trkpt lat="47.31031" lon="-0.63908">
        <ele>57.82</ele>
        <time>2013-05-26T08:33:09Z</time>
      </trkpt>
      <trkpt lat="47.31028" lon="-0.63962">
        <ele>57.34</ele>
        <time>2013-05-26T08:33:18Z</time>
      </trkpt>
      <trkpt lat="47.31027" lon="-0.63973">
        <ele>57.34</ele>
        <time>2013-05-26T08:33:20Z</time>
      </trkpt>
      <trkpt lat="47.31021" lon="-0.64031">
        <ele>56.86</ele>
        <time>2013-05-26T08:33:30Z</time>
      </trkpt>
      <trkpt lat="47.31014" lon="-0.64052">
        <ele>56.86</ele>
        <time>2013-05-26T08:33:35Z</time>
      </trkpt>
      <trkpt lat="47.3098" lon="-0.6408">
        <ele>56.37</ele>
        <time>2013-05-26T08:33:44Z</time>
      </trkpt>
      <trkpt lat="47.30954" lon="-0.64099">
        <ele>56.37</ele>
        <time>2013-05-26T08:33:50Z</time>
      </trkpt>
      <trkpt lat="47.30929" lon="-0.6412">
        <ele>55.41</ele>
        <time>2013-05-26T08:33:56Z</time>
      </trkpt>
      <trkpt lat="47.30915" lon="-0.64156">
        <ele>53.49</ele>
        <time>2013-05-26T08:34:01Z</time>
      </trkpt>
      <trkpt lat="47.30911" lon="-0.64198">
        <ele>52.05</ele>
        <time>2013-05-26T08:34:05Z</time>
      </trkpt>
      <trkpt lat="47.30897" lon="-0.64272">
        <ele>53.49</ele>
        <time>2013-05-26T08:34:13Z</time>
      </trkpt>
      <trkpt lat="47.30894" lon="-0.64304">
        <ele>54.45</ele>
        <time>2013-05-26T08:34:17Z</time>
      </trkpt>
      <trkpt lat="47.30892" lon="-0.64339">
        <ele>55.41</ele>
        <time>2013-05-26T08:34:22Z</time>
      </trkpt>
      <trkpt lat="47.30886" lon="-0.64365">
        <ele>55.89</ele>
        <time>2013-05-26T08:34:26Z</time>
      </trkpt>
      <trkpt lat="47.30879" lon="-0.64381">
        <ele>55.89</ele>
        <time>2013-05-26T08:34:29Z</time>
      </trkpt>
      <trkpt lat="47.30876" lon="-0.64404">
        <ele>51.57</ele>
        <time>2013-05-26T08:34:33Z</time>
      </trkpt>
      <trkpt lat="47.30878" lon="-0.6441">
        <ele>52.05</ele>
        <time>2013-05-26T08:34:34Z</time>
      </trkpt>
      <trkpt lat="47.30881" lon="-0.64416">
        <ele>57.82</ele>
        <time>2013-05-26T08:34:35Z</time>
      </trkpt>
      <trkpt lat="47.30884" lon="-0.64421">
        <ele>56.86</ele>
        <time>2013-05-26T08:34:36Z</time>
      </trkpt>
      <trkpt lat="47.30897" lon="-0.64442">
        <ele>56.37</ele>
        <time>2013-05-26T08:34:40Z</time>
      </trkpt>
      <trkpt lat="47.3092" lon="-0.64449">
        <ele>55.89</ele>
        <time>2013-05-26T08:34:45Z</time>
      </trkpt>
      <trkpt lat="47.30929" lon="-0.64449">
        <ele>55.89</ele>
        <time>2013-05-26T08:34:47Z</time>
      </trkpt>
      <trkpt lat="47.30941" lon="-0.64468">
        <ele>55.41</ele>
        <time>2013-05-26T08:34:51Z</time>
      </trkpt>
      <trkpt lat="47.30945" lon="-0.64481">
        <ele>55.89</ele>
        <time>2013-05-26T08:34:53Z</time>
      </trkpt>
      <trkpt lat="47.30957" lon="-0.64486">
        <ele>55.41</ele>
        <time>2013-05-26T08:34:57Z</time>
      </trkpt>
      <trkpt lat="47.3096" lon="-0.64482">
        <ele>54.93</ele>
        <time>2013-05-26T08:34:58Z</time>
      </trkpt>
      <trkpt lat="47.30966" lon="-0.64468">
        <ele>55.41</ele>
        <time>2013-05-26T08:35:01Z</time>
      </trkpt>
      <trkpt lat="47.30983" lon="-0.64461">
        <ele>54.93</ele>
        <time>2013-05-26T08:35:06Z</time>
      </trkpt>
      <trkpt lat="47.31026" lon="-0.64461">
        <ele>53.97</ele>
        <time>2013-05-26T08:35:15Z</time>
      </trkpt>
      <trkpt lat="47.31066" lon="-0.64461">
        <ele>53.49</ele>
        <time>2013-05-26T08:35:23Z</time>
      </trkpt>
      <trkpt lat="47.31096" lon="-0.64462">
        <ele>52.53</ele>
        <time>2013-05-26T08:35:29Z</time>
      </trkpt>
      <trkpt lat="47.31111" lon="-0.64463">
        <ele>52.53</ele>
        <time>2013-05-26T08:35:32Z</time>
      </trkpt>
      <trkpt lat="47.31134" lon="-0.64461">
        <ele>52.05</ele>
        <time>2013-05-26T08:35:36Z</time>
      </trkpt>
      <trkpt lat="47.31177" lon="-0.64447">
        <ele>51.57</ele>
        <time>2013-05-26T08:35:45Z</time>
      </trkpt>
      <trkpt lat="47.31223" lon="-0.64426">
        <ele>51.09</ele>
        <time>2013-05-26T08:35:56Z</time>
      </trkpt>
      <trkpt lat="47.31231" lon="-0.64447">
        <ele>50.61</ele>
        <time>2013-05-26T08:36:01Z</time>
      </trkpt>
      <trkpt lat="47.31235" lon="-0.64471">
        <ele>50.61</ele>
        <time>2013-05-26T08:36:05Z</time>
      </trkpt>
      <trkpt lat="47.31239" lon="-0.64501">
        <ele>50.13</ele>
        <time>2013-05-26T08:36:10Z</time>
      </trkpt>
      <trkpt lat="47.31245" lon="-0.64541">
        <ele>48.2</ele>
        <time>2013-05-26T08:36:16Z</time>
      </trkpt>
      <trkpt lat="47.31248" lon="-0.64563">
        <ele>46.28</ele>
        <time>2013-05-26T08:36:19Z</time>
      </trkpt>
      <trkpt lat="47.31252" lon="-0.64593">
        <ele>43.4</ele>
        <time>2013-05-26T08:36:23Z</time>
      </trkpt>
      <trkpt lat="47.31254" lon="-0.64604">
        <ele>41.47</ele>
        <time>2013-05-26T08:36:25Z</time>
      </trkpt>
      <trkpt lat="47.3126" lon="-0.64609">
        <ele>40.99</ele>
        <time>2013-05-26T08:36:27Z</time>
      </trkpt>
      <trkpt lat="47.31269" lon="-0.64607">
        <ele>41.47</ele>
        <time>2013-05-26T08:36:29Z</time>
      </trkpt>
      <trkpt lat="47.31292" lon="-0.64593">
        <ele>40.51</ele>
        <time>2013-05-26T08:36:35Z</time>
      </trkpt>
      <trkpt lat="47.31292" lon="-0.6459">
        <ele>40.99</ele>
        <time>2013-05-26T08:36:36Z</time>
      </trkpt>
      <trkpt lat="47.31293" lon="-0.64583">
        <ele>41.47</ele>
        <time>2013-05-26T08:36:38Z</time>
      </trkpt>
      <trkpt lat="47.31296" lon="-0.64578">
        <ele>42.44</ele>
        <time>2013-05-26T08:36:40Z</time>
      </trkpt>
      <trkpt lat="47.31301" lon="-0.64574">
        <ele>41.95</ele>
        <time>2013-05-26T08:36:42Z</time>
      </trkpt>
      <trkpt lat="47.31317" lon="-0.64567">
        <ele>41.47</ele>
        <time>2013-05-26T08:36:47Z</time>
      </trkpt>
      <trkpt lat="47.31325" lon="-0.64574">
        <ele>40.51</ele>
        <time>2013-05-26T08:36:51Z</time>
      </trkpt>
      <trkpt lat="47.31322" lon="-0.64608">
        <ele>36.19</ele>
        <time>2013-05-26T08:36:57Z</time>
      </trkpt>
      <trkpt lat="47.31309" lon="-0.64611">
        <ele>36.19</ele>
        <time>2013-05-26T08:37:00Z</time>
      </trkpt>
      <trkpt lat="47.31274" lon="-0.64619">
        <ele>37.63</ele>
        <time>2013-05-26T08:37:09Z</time>
      </trkpt>
      <trkpt lat="47.31242" lon="-0.64634">
        <ele>38.59</ele>
        <time>2013-05-26T08:37:18Z</time>
      </trkpt>
      <trkpt lat="47.31233" lon="-0.64657">
        <ele>39.55</ele>
        <time>2013-05-26T08:37:23Z</time>
      </trkpt>
      <trkpt lat="47.31229" lon="-0.64702">
        <ele>40.99</ele>
        <time>2013-05-26T08:37:31Z</time>
      </trkpt>
      <trkpt lat="47.31219" lon="-0.64741">
        <ele>41.47</ele>
        <time>2013-05-26T08:37:39Z</time>
      </trkpt>
      <trkpt lat="47.31211" lon="-0.64769">
        <ele>41.95</ele>
        <time>2013-05-26T08:37:45Z</time>
      </trkpt>
      <trkpt lat="47.31221" lon="-0.64786">
        <ele>41.47</ele>
        <time>2013-05-26T08:37:50Z</time>
      </trkpt>
      <trkpt lat="47.31246" lon="-0.64812">
        <ele>40.99</ele>
        <time>2013-05-26T08:37:57Z</time>
      </trkpt>
      <trkpt lat="47.31277" lon="-0.64853">
        <ele>39.55</ele>
        <time>2013-05-26T08:38:05Z</time>
      </trkpt>
      <trkpt lat="47.3128" lon="-0.64859">
        <ele>39.07</ele>
        <time>2013-05-26T08:38:06Z</time>
      </trkpt>
      <trkpt lat="47.31304" lon="-0.64898">
        <ele>37.63</ele>
        <time>2013-05-26T08:38:13Z</time>
      </trkpt>
      <trkpt lat="47.3132" lon="-0.64919">
        <ele>36.67</ele>
        <time>2013-05-26T08:38:19Z</time>
      </trkpt>
      <trkpt lat="47.31322" lon="-0.64922">
        <ele>36.19</ele>
        <time>2013-05-26T08:38:20Z</time>
      </trkpt>
      <trkpt lat="47.3132" lon="-0.64936">
        <ele>36.19</ele>
        <time>2013-05-26T08:38:24Z</time>
      </trkpt>
      <trkpt lat="47.31303" lon="-0.6495">
        <ele>38.59</ele>
        <time>2013-05-26T08:38:31Z</time>
      </trkpt>
      <trkpt lat="47.31294" lon="-0.64964">
        <ele>39.07</ele>
        <time>2013-05-26T08:38:37Z</time>
      </trkpt>
      <trkpt lat="47.31294" lon="-0.64968">
        <ele>39.55</ele>
        <time>2013-05-26T08:38:38Z</time>
      </trkpt>
      <trkpt lat="47.31308" lon="-0.65">
        <ele>39.07</ele>
        <time>2013-05-26T08:38:46Z</time>
      </trkpt>
      <trkpt lat="47.31312" lon="-0.65014">
        <ele>39.07</ele>
        <time>2013-05-26T08:38:49Z</time>
      </trkpt>
      <trkpt lat="47.31314" lon="-0.65042">
        <ele>38.11</ele>
        <time>2013-05-26T08:38:54Z</time>
      </trkpt>
      <trkpt lat="47.31309" lon="-0.65052">
        <ele>37.63</ele>
        <time>2013-05-26T08:38:56Z</time>
      </trkpt>
      <trkpt lat="47.31278" lon="-0.65099">
        <ele>37.15</ele>
        <time>2013-05-26T08:39:06Z</time>
      </trkpt>
      <trkpt lat="47.31252" lon="-0.65147">
        <ele>34.26</ele>
        <time>2013-05-26T08:39:12Z</time>
      </trkpt>
      <trkpt lat="47.31241" lon="-0.65168">
        <ele>32.82</ele>
        <time>2013-05-26T08:39:14Z</time>
      </trkpt>
      <trkpt lat="47.31236" lon="-0.65178">
        <ele>31.86</ele>
        <time>2013-05-26T08:39:15Z</time>
      </trkpt>
      <trkpt lat="47.31213" lon="-0.65222">
        <ele>32.82</ele>
        <time>2013-05-26T08:39:21Z</time>
      </trkpt>
      <trkpt lat="47.31205" lon="-0.65239">
        <ele>33.3</ele>
        <time>2013-05-26T08:39:25Z</time>
      </trkpt>
      <trkpt lat="47.31219" lon="-0.65249">
        <ele>32.82</ele>
        <time>2013-05-26T08:39:30Z</time>
      </trkpt>
      <trkpt lat="47.31258" lon="-0.65265">
        <ele>32.82</ele>
        <time>2013-05-26T08:39:39Z</time>
      </trkpt>
      <trkpt lat="47.31276" lon="-0.6528">
        <ele>34.26</ele>
        <time>2013-05-26T08:39:45Z</time>
      </trkpt>
      <trkpt lat="47.31287" lon="-0.65304">
        <ele>35.71</ele>
        <time>2013-05-26T08:39:51Z</time>
      </trkpt>
      <trkpt lat="47.31291" lon="-0.65339">
        <ele>37.15</ele>
        <time>2013-05-26T08:39:59Z</time>
      </trkpt>
      <trkpt lat="47.31283" lon="-0.65377">
        <ele>39.07</ele>
        <time>2013-05-26T08:40:08Z</time>
      </trkpt>
      <trkpt lat="47.31273" lon="-0.65416">
        <ele>41.47</ele>
        <time>2013-05-26T08:40:17Z</time>
      </trkpt>
      <trkpt lat="47.31263" lon="-0.65449">
        <ele>42.92</ele>
        <time>2013-05-26T08:40:25Z</time>
      </trkpt>
      <trkpt lat="47.31257" lon="-0.65476">
        <ele>44.36</ele>
        <time>2013-05-26T08:40:32Z</time>
      </trkpt>
      <trkpt lat="47.31256" lon="-0.65479">
        <ele>44.36</ele>
        <time>2013-05-26T08:40:33Z</time>
      </trkpt>
      <trkpt lat="47.31243" lon="-0.65479">
        <ele>44.84</ele>
        <time>2013-05-26T08:40:38Z</time>
      </trkpt>
      <trkpt lat="47.31219" lon="-0.6547">
        <ele>45.32</ele>
        <time>2013-05-26T08:40:47Z</time>
      </trkpt>
      <trkpt lat="47.31197" lon="-0.65471">
        <ele>45.8</ele>
        <time>2013-05-26T08:40:54Z</time>
      </trkpt>
      <trkpt lat="47.31163" lon="-0.65481">
        <ele>45.8</ele>
        <time>2013-05-26T08:41:03Z</time>
      </trkpt>
      <trkpt lat="47.31147" lon="-0.65485">
        <ele>46.76</ele>
        <time>2013-05-26T08:41:08Z</time>
      </trkpt>
      <trkpt lat="47.31144" lon="-0.65502">
        <ele>47.72</ele>
        <time>2013-05-26T08:41:13Z</time>
      </trkpt>
      <trkpt lat="47.31148" lon="-0.65514">
        <ele>48.2</ele>
        <time>2013-05-26T08:41:16Z</time>
      </trkpt>
      <trkpt lat="47.3116" lon="-0.65547">
        <ele>49.65</ele>
        <time>2013-05-26T08:41:24Z</time>
      </trkpt>
      <trkpt lat="47.31171" lon="-0.65581">
        <ele>51.09</ele>
        <time>2013-05-26T08:41:33Z</time>
      </trkpt>
      <trkpt lat="47.3118" lon="-0.65612">
        <ele>52.05</ele>
        <time>2013-05-26T08:41:41Z</time>
      </trkpt>
      <trkpt lat="47.31168" lon="-0.65624">
        <ele>51.57</ele>
        <time>2013-05-26T08:41:46Z</time>
      </trkpt>
      <trkpt lat="47.31145" lon="-0.6564">
        <ele>53.01</ele>
        <time>2013-05-26T08:41:54Z</time>
      </trkpt>
      <trkpt lat="47.31118" lon="-0.65667">
        <ele>53.49</ele>
        <time>2013-05-26T08:42:04Z</time>
      </trkpt>
      <trkpt lat="47.31111" lon="-0.65676">
        <ele>53.97</ele>
        <time>2013-05-26T08:42:07Z</time>
      </trkpt>
      <trkpt lat="47.31112" lon="-0.65696">
        <ele>54.93</ele>
        <time>2013-05-26T08:42:12Z</time>
      </trkpt>
      <trkpt lat="47.31122" lon="-0.65732">
        <ele>56.86</ele>
        <time>2013-05-26T08:42:21Z</time>
      </trkpt>
      <trkpt lat="47.31133" lon="-0.65765">
        <ele>56.86</ele>
        <time>2013-05-26T08:42:29Z</time>
      </trkpt>
      <trkpt lat="47.31133" lon="-0.65774">
        <ele>56.86</ele>
        <time>2013-05-26T08:42:31Z</time>
      </trkpt>
      <trkpt lat="47.31122" lon="-0.65785">
        <ele>57.34</ele>
        <time>2013-05-26T08:42:35Z</time>
      </trkpt>
      <trkpt lat="47.31117" lon="-0.65788">
        <ele>57.82</ele>
        <time>2013-05-26T08:42:37Z</time>
      </trkpt>
      <trkpt lat="47.311" lon="-0.65798">
        <ele>57.82</ele>
        <time>2013-05-26T08:42:45Z</time>
      </trkpt>
      <trkpt lat="47.31099" lon="-0.65814">
        <ele>58.3</ele>
        <time>2013-05-26T08:42:50Z</time>
      </trkpt>
      <trkpt lat="47.31109" lon="-0.65847">
        <ele>59.26</ele>
        <time>2013-05-26T08:43:00Z</time>
      </trkpt>
      <trkpt lat="47.31111" lon="-0.65853">
        <ele>59.26</ele>
        <time>2013-05-26T08:43:02Z</time>
      </trkpt>
      <trkpt lat="47.3112" lon="-0.65856">
        <ele>59.74</ele>
        <time>2013-05-26T08:43:06Z</time>
      </trkpt>
      <trkpt lat="47.31148" lon="-0.65842">
        <ele>58.78</ele>
        <time>2013-05-26T08:43:16Z</time>
      </trkpt>
      <trkpt lat="47.3117" lon="-0.65824">
        <ele>59.26</ele>
        <time>2013-05-26T08:43:24Z</time>
      </trkpt>
      <trkpt lat="47.31193" lon="-0.65808">
        <ele>58.3</ele>
        <time>2013-05-26T08:43:31Z</time>
      </trkpt>
      <trkpt lat="47.31206" lon="-0.658">
        <ele>57.82</ele>
        <time>2013-05-26T08:43:35Z</time>
      </trkpt>
      <trkpt lat="47.31213" lon="-0.65811">
        <ele>57.82</ele>
        <time>2013-05-26T08:43:39Z</time>
      </trkpt>
      <trkpt lat="47.31222" lon="-0.65848">
        <ele>58.78</ele>
        <time>2013-05-26T08:43:48Z</time>
      </trkpt>
      <trkpt lat="47.31231" lon="-0.65879">
        <ele>59.74</ele>
        <time>2013-05-26T08:43:56Z</time>
      </trkpt>
      <trkpt lat="47.31238" lon="-0.65907">
        <ele>60.7</ele>
        <time>2013-05-26T08:44:03Z</time>
      </trkpt>
      <trkpt lat="47.31228" lon="-0.6592">
        <ele>60.7</ele>
        <time>2013-05-26T08:44:08Z</time>
      </trkpt>
      <trkpt lat="47.31223" lon="-0.65923">
        <ele>61.66</ele>
        <time>2013-05-26T08:44:10Z</time>
      </trkpt>
      <trkpt lat="47.31199" lon="-0.65945">
        <ele>62.14</ele>
        <time>2013-05-26T08:44:20Z</time>
      </trkpt>
      <trkpt lat="47.31191" lon="-0.65962">
        <ele>62.62</ele>
        <time>2013-05-26T08:44:26Z</time>
      </trkpt>
      <trkpt lat="47.31191" lon="-0.65988">
        <ele>63.1</ele>
        <time>2013-05-26T08:44:33Z</time>
      </trkpt>
      <trkpt lat="47.31186" lon="-0.66027">
        <ele>64.07</ele>
        <time>2013-05-26T08:44:43Z</time>
      </trkpt>
      <trkpt lat="47.31182" lon="-0.66066">
        <ele>64.55</ele>
        <time>2013-05-26T08:44:52Z</time>
      </trkpt>
      <trkpt lat="47.31184" lon="-0.66094">
        <ele>65.03</ele>
        <time>2013-05-26T08:44:58Z</time>
      </trkpt>
      <trkpt lat="47.31188" lon="-0.66125">
        <ele>65.51</ele>
        <time>2013-05-26T08:45:05Z</time>
      </trkpt>
      <trkpt lat="47.31191" lon="-0.66156">
        <ele>65.99</ele>
        <time>2013-05-26T08:45:12Z</time>
      </trkpt>
      <trkpt lat="47.31194" lon="-0.66191">
        <ele>66.47</ele>
        <time>2013-05-26T08:45:20Z</time>
      </trkpt>
      <trkpt lat="47.31195" lon="-0.6622">
        <ele>65.99</ele>
        <time>2013-05-26T08:45:26Z</time>
      </trkpt>
      <trkpt lat="47.31199" lon="-0.66244">
        <ele>66.47</ele>
        <time>2013-05-26T08:45:31Z</time>
      </trkpt>
      <trkpt lat="47.31205" lon="-0.66274">
        <ele>65.51</ele>
        <time>2013-05-26T08:45:37Z</time>
      </trkpt>
      <trkpt lat="47.31211" lon="-0.66302">
        <ele>65.03</ele>
        <time>2013-05-26T08:45:42Z</time>
      </trkpt>
      <trkpt lat="47.31198" lon="-0.66316">
        <ele>64.07</ele>
        <time>2013-05-26T08:45:47Z</time>
      </trkpt>
      <trkpt lat="47.31194" lon="-0.66317">
        <ele>64.07</ele>
        <time>2013-05-26T08:45:48Z</time>
      </trkpt>
      <trkpt lat="47.31169" lon="-0.66322">
        <ele>64.55</ele>
        <time>2013-05-26T08:45:55Z</time>
      </trkpt>
      <trkpt lat="47.31155" lon="-0.66327">
        <ele>64.07</ele>
        <time>2013-05-26T08:45:59Z</time>
      </trkpt>
      <trkpt lat="47.31156" lon="-0.66347">
        <ele>63.58</ele>
        <time>2013-05-26T08:46:03Z</time>
      </trkpt>
      <trkpt lat="47.31158" lon="-0.66352">
        <ele>63.58</ele>
        <time>2013-05-26T08:46:04Z</time>
      </trkpt>
      <trkpt lat="47.31173" lon="-0.66375">
        <ele>63.58</ele>
        <time>2013-05-26T08:46:10Z</time>
      </trkpt>
      <trkpt lat="47.31184" lon="-0.66388">
        <ele>63.1</ele>
        <time>2013-05-26T08:46:14Z</time>
      </trkpt>
      <trkpt lat="47.312" lon="-0.66457">
        <ele>60.7</ele>
        <time>2013-05-26T08:46:25Z</time>
      </trkpt>
      <trkpt lat="47.31202" lon="-0.66464">
        <ele>60.22</ele>
        <time>2013-05-26T08:46:26Z</time>
      </trkpt>
      <trkpt lat="47.31209" lon="-0.66496">
        <ele>58.78</ele>
        <time>2013-05-26T08:46:31Z</time>
      </trkpt>
      <trkpt lat="47.31227" lon="-0.66505">
        <ele>58.3</ele>
        <time>2013-05-26T08:46:35Z</time>
      </trkpt>
      <trkpt lat="47.3125" lon="-0.665">
        <ele>56.86</ele>
        <time>2013-05-26T08:46:40Z</time>
      </trkpt>
      <trkpt lat="47.31252" lon="-0.66516">
        <ele>55.89</ele>
        <time>2013-05-26T08:46:43Z</time>
      </trkpt>
      <trkpt lat="47.31241" lon="-0.66531">
        <ele>56.37</ele>
        <time>2013-05-26T08:46:47Z</time>
      </trkpt>
      <trkpt lat="47.31226" lon="-0.66536">
        <ele>58.3</ele>
        <time>2013-05-26T08:46:52Z</time>
      </trkpt>
      <trkpt lat="47.31223" lon="-0.66538">
        <ele>58.78</ele>
        <time>2013-05-26T08:46:53Z</time>
      </trkpt>
      <trkpt lat="47.31209" lon="-0.66551">
        <ele>60.7</ele>
        <time>2013-05-26T08:47:00Z</time>
      </trkpt>
      <trkpt lat="47.31192" lon="-0.66555">
        <ele>61.66</ele>
        <time>2013-05-26T08:47:06Z</time>
      </trkpt>
      <trkpt lat="47.31172" lon="-0.66549">
        <ele>61.66</ele>
        <time>2013-05-26T08:47:13Z</time>
      </trkpt>
      <trkpt lat="47.31156" lon="-0.66557">
        <ele>62.14</ele>
        <time>2013-05-26T08:47:19Z</time>
      </trkpt>
      <trkpt lat="47.31134" lon="-0.66586">
        <ele>62.14</ele>
        <time>2013-05-26T08:47:28Z</time>
      </trkpt>
      <trkpt lat="47.31124" lon="-0.66613">
        <ele>63.1</ele>
        <time>2013-05-26T08:47:34Z</time>
      </trkpt>
      <trkpt lat="47.31121" lon="-0.66633">
        <ele>62.62</ele>
        <time>2013-05-26T08:47:38Z</time>
      </trkpt>
      <trkpt lat="47.31115" lon="-0.66669">
        <ele>62.14</ele>
        <time>2013-05-26T08:47:45Z</time>
      </trkpt>
      <trkpt lat="47.31115" lon="-0.66686">
        <ele>62.14</ele>
        <time>2013-05-26T08:47:48Z</time>
      </trkpt>
      <trkpt lat="47.31101" lon="-0.66702">
        <ele>62.14</ele>
        <time>2013-05-26T08:47:53Z</time>
      </trkpt>
      <trkpt lat="47.31098" lon="-0.66704">
        <ele>62.14</ele>
        <time>2013-05-26T08:47:54Z</time>
      </trkpt>
      <trkpt lat="47.31078" lon="-0.66713">
        <ele>63.58</ele>
        <time>2013-05-26T08:48:01Z</time>
      </trkpt>
      <trkpt lat="47.31059" lon="-0.6672">
        <ele>64.55</ele>
        <time>2013-05-26T08:48:08Z</time>
      </trkpt>
      <trkpt lat="47.31042" lon="-0.66729">
        <ele>65.99</ele>
        <time>2013-05-26T08:48:15Z</time>
      </trkpt>
      <trkpt lat="47.31037" lon="-0.66732">
        <ele>65.99</ele>
        <time>2013-05-26T08:48:17Z</time>
      </trkpt>
      <trkpt lat="47.3102" lon="-0.66723">
        <ele>64.55</ele>
        <time>2013-05-26T08:48:23Z</time>
      </trkpt>
      <trkpt lat="47.31004" lon="-0.66697">
        <ele>63.1</ele>
        <time>2013-05-26T08:48:29Z</time>
      </trkpt>
      <trkpt lat="47.31003" lon="-0.66693">
        <ele>62.62</ele>
        <time>2013-05-26T08:48:30Z</time>
      </trkpt>
      <trkpt lat="47.30997" lon="-0.66703">
        <ele>62.62</ele>
        <time>2013-05-26T08:48:35Z</time>
      </trkpt>
      <trkpt lat="47.31006" lon="-0.66725">
        <ele>61.66</ele>
        <time>2013-05-26T08:48:40Z</time>
      </trkpt>
      <trkpt lat="47.31013" lon="-0.66744">
        <ele>60.22</ele>
        <time>2013-05-26T08:48:43Z</time>
      </trkpt>
      <trkpt lat="47.31026" lon="-0.66785">
        <ele>58.3</ele>
        <time>2013-05-26T08:48:48Z</time>
      </trkpt>
      <trkpt lat="47.31041" lon="-0.66813">
        <ele>57.82</ele>
        <time>2013-05-26T08:48:52Z</time>
      </trkpt>
      <trkpt lat="47.31047" lon="-0.66826">
        <ele>57.34</ele>
        <time>2013-05-26T08:48:54Z</time>
      </trkpt>
      <trkpt lat="47.31051" lon="-0.66839">
        <ele>57.34</ele>
        <time>2013-05-26T08:48:56Z</time>
      </trkpt>
      <trkpt lat="47.31052" lon="-0.6688">
        <ele>56.37</ele>
        <time>2013-05-26T08:49:03Z</time>
      </trkpt>
      <trkpt lat="47.31059" lon="-0.6689">
        <ele>56.37</ele>
        <time>2013-05-26T08:49:07Z</time>
      </trkpt>
      <trkpt lat="47.31062" lon="-0.6689">
        <ele>57.34</ele>
        <time>2013-05-26T08:49:08Z</time>
      </trkpt>
      <trkpt lat="47.31091" lon="-0.66891">
        <ele>57.82</ele>
        <time>2013-05-26T08:49:17Z</time>
      </trkpt>
      <trkpt lat="47.31113" lon="-0.66901">
        <ele>58.3</ele>
        <time>2013-05-26T08:49:24Z</time>
      </trkpt>
      <trkpt lat="47.31134" lon="-0.66913">
        <ele>59.26</ele>
        <time>2013-05-26T08:49:32Z</time>
      </trkpt>
      <trkpt lat="47.31154" lon="-0.66917">
        <ele>59.74</ele>
        <time>2013-05-26T08:49:39Z</time>
      </trkpt>
      <trkpt lat="47.31179" lon="-0.66916">
        <ele>59.74</ele>
        <time>2013-05-26T08:49:47Z</time>
      </trkpt>
      <trkpt lat="47.31201" lon="-0.66901">
        <ele>59.74</ele>
        <time>2013-05-26T08:49:55Z</time>
      </trkpt>
      <trkpt lat="47.3122" lon="-0.66874">
        <ele>60.22</ele>
        <time>2013-05-26T08:50:03Z</time>
      </trkpt>
      <trkpt lat="47.3124" lon="-0.66839">
        <ele>59.74</ele>
        <time>2013-05-26T08:50:12Z</time>
      </trkpt>
      <trkpt lat="47.31242" lon="-0.66835">
        <ele>59.74</ele>
        <time>2013-05-26T08:50:13Z</time>
      </trkpt>
      <trkpt lat="47.31263" lon="-0.66803">
        <ele>59.26</ele>
        <time>2013-05-26T08:50:20Z</time>
      </trkpt>
      <trkpt lat="47.31277" lon="-0.66784">
        <ele>58.3</ele>
        <time>2013-05-26T08:50:25Z</time>
      </trkpt>
      <trkpt lat="47.31301" lon="-0.66765">
        <ele>57.34</ele>
        <time>2013-05-26T08:50:32Z</time>
      </trkpt>
      <trkpt lat="47.3133" lon="-0.66746">
        <ele>57.82</ele>
        <time>2013-05-26T08:50:40Z</time>
      </trkpt>
      <trkpt lat="47.31353" lon="-0.6673">
        <ele>57.82</ele>
        <time>2013-05-26T08:50:47Z</time>
      </trkpt>
      <trkpt lat="47.31358" lon="-0.66726">
        <ele>57.82</ele>
        <time>2013-05-26T08:50:49Z</time>
      </trkpt>
      <trkpt lat="47.31357" lon="-0.6671">
        <ele>56.86</ele>
        <time>2013-05-26T08:50:53Z</time>
      </trkpt>
      <trkpt lat="47.31354" lon="-0.66699">
        <ele>56.37</ele>
        <time>2013-05-26T08:50:55Z</time>
      </trkpt>
      <trkpt lat="47.31351" lon="-0.66685">
        <ele>55.89</ele>
        <time>2013-05-26T08:50:57Z</time>
      </trkpt>
      <trkpt lat="47.31344" lon="-0.66661">
        <ele>53.01</ele>
        <time>2013-05-26T08:51:01Z</time>
      </trkpt>
      <trkpt lat="47.31343" lon="-0.66649">
        <ele>52.05</ele>
        <time>2013-05-26T08:51:03Z</time>
      </trkpt>
      <trkpt lat="47.31347" lon="-0.66638">
        <ele>52.05</ele>
        <time>2013-05-26T08:51:06Z</time>
      </trkpt>
      <trkpt lat="47.31363" lon="-0.66619">
        <ele>53.49</ele>
        <time>2013-05-26T08:51:13Z</time>
      </trkpt>
      <trkpt lat="47.31371" lon="-0.66612">
        <ele>53.01</ele>
        <time>2013-05-26T08:51:16Z</time>
      </trkpt>
      <trkpt lat="47.31375" lon="-0.66604">
        <ele>52.53</ele>
        <time>2013-05-26T08:51:21Z</time>
      </trkpt>
      <trkpt lat="47.31373" lon="-0.66598">
        <ele>49.65</ele>
        <time>2013-05-26T08:51:24Z</time>
      </trkpt>
      <trkpt lat="47.31373" lon="-0.66588">
        <ele>48.2</ele>
        <time>2013-05-26T08:51:26Z</time>
      </trkpt>
      <trkpt lat="47.31376" lon="-0.6658">
        <ele>48.2</ele>
        <time>2013-05-26T08:51:28Z</time>
      </trkpt>
      <trkpt lat="47.314" lon="-0.6656">
        <ele>48.68</ele>
        <time>2013-05-26T08:51:36Z</time>
      </trkpt>
      <trkpt lat="47.31411" lon="-0.66559">
        <ele>49.65</ele>
        <time>2013-05-26T08:51:40Z</time>
      </trkpt>
      <trkpt lat="47.31437" lon="-0.6657">
        <ele>51.57</ele>
        <time>2013-05-26T08:51:49Z</time>
      </trkpt>
      <trkpt lat="47.31451" lon="-0.66575">
        <ele>53.01</ele>
        <time>2013-05-26T08:51:56Z</time>
      </trkpt>
      <trkpt lat="47.31471" lon="-0.66579">
        <ele>55.89</ele>
        <time>2013-05-26T08:52:06Z</time>
      </trkpt>
      <trkpt lat="47.31484" lon="-0.66582">
        <ele>56.86</ele>
        <time>2013-05-26T08:52:13Z</time>
      </trkpt>
      <trkpt lat="47.31502" lon="-0.66586">
        <ele>57.82</ele>
        <time>2013-05-26T08:52:22Z</time>
      </trkpt>
      <trkpt lat="47.31525" lon="-0.66594">
        <ele>57.82</ele>
        <time>2013-05-26T08:52:30Z</time>
      </trkpt>
      <trkpt lat="47.31549" lon="-0.66599">
        <ele>57.82</ele>
        <time>2013-05-26T08:52:38Z</time>
      </trkpt>
      <trkpt lat="47.31582" lon="-0.66605">
        <ele>57.82</ele>
        <time>2013-05-26T08:52:48Z</time>
      </trkpt>
      <trkpt lat="47.31606" lon="-0.66613">
        <ele>57.34</ele>
        <time>2013-05-26T08:52:55Z</time>
      </trkpt>
      <trkpt lat="47.3163" lon="-0.66617">
        <ele>57.82</ele>
        <time>2013-05-26T08:53:02Z</time>
      </trkpt>
      <trkpt lat="47.31667" lon="-0.6662">
        <ele>57.34</ele>
        <time>2013-05-26T08:53:11Z</time>
      </trkpt>
      <trkpt lat="47.31698" lon="-0.66619">
        <ele>56.37</ele>
        <time>2013-05-26T08:53:18Z</time>
      </trkpt>
      <trkpt lat="47.31703" lon="-0.66618">
        <ele>55.89</ele>
        <time>2013-05-26T08:53:19Z</time>
      </trkpt>
      <trkpt lat="47.3172" lon="-0.66609">
        <ele>56.37</ele>
        <time>2013-05-26T08:53:23Z</time>
      </trkpt>
      <trkpt lat="47.31748" lon="-0.66574">
        <ele>54.45</ele>
        <time>2013-05-26T08:53:31Z</time>
      </trkpt>
      <trkpt lat="47.31777" lon="-0.66533">
        <ele>53.97</ele>
        <time>2013-05-26T08:53:39Z</time>
      </trkpt>
      <trkpt lat="47.31789" lon="-0.66518">
        <ele>53.97</ele>
        <time>2013-05-26T08:53:42Z</time>
      </trkpt>
      <trkpt lat="47.31804" lon="-0.66496">
        <ele>52.53</ele>
        <time>2013-05-26T08:53:46Z</time>
      </trkpt>
      <trkpt lat="47.31838" lon="-0.66442">
        <ele>52.53</ele>
        <time>2013-05-26T08:53:56Z</time>
      </trkpt>
      <trkpt lat="47.31864" lon="-0.66386">
        <ele>51.09</ele>
        <time>2013-05-26T08:54:05Z</time>
      </trkpt>
      <trkpt lat="47.31877" lon="-0.6636">
        <ele>49.65</ele>
        <time>2013-05-26T08:54:09Z</time>
      </trkpt>
      <trkpt lat="47.31897" lon="-0.66308">
        <ele>48.2</ele>
        <time>2013-05-26T08:54:16Z</time>
      </trkpt>
      <trkpt lat="47.31928" lon="-0.66248">
        <ele>46.28</ele>
        <time>2013-05-26T08:54:24Z</time>
      </trkpt>
      <trkpt lat="47.31955" lon="-0.662">
        <ele>44.84</ele>
        <time>2013-05-26T08:54:30Z</time>
      </trkpt>
      <trkpt lat="47.31978" lon="-0.66166">
        <ele>42.44</ele>
        <time>2013-05-26T08:54:34Z</time>
      </trkpt>
      <trkpt lat="47.3202" lon="-0.66113">
        <ele>40.03</ele>
        <time>2013-05-26T08:54:41Z</time>
      </trkpt>
      <trkpt lat="47.32025" lon="-0.66106">
        <ele>40.03</ele>
        <time>2013-05-26T08:54:42Z</time>
      </trkpt>
      <trkpt lat="47.32033" lon="-0.66063">
        <ele>38.59</ele>
        <time>2013-05-26T08:54:47Z</time>
      </trkpt>
      <trkpt lat="47.32034" lon="-0.66027">
        <ele>37.15</ele>
        <time>2013-05-26T08:54:51Z</time>
      </trkpt>
      <trkpt lat="47.3205" lon="-0.66004">
        <ele>36.19</ele>
        <time>2013-05-26T08:54:55Z</time>
      </trkpt>
      <trkpt lat="47.32061" lon="-0.65996">
        <ele>35.23</ele>
        <time>2013-05-26T08:54:57Z</time>
      </trkpt>
      <trkpt lat="47.32096" lon="-0.6597">
        <ele>31.86</ele>
        <time>2013-05-26T08:55:03Z</time>
      </trkpt>
      <trkpt lat="47.32113" lon="-0.65975">
        <ele>30.9</ele>
        <time>2013-05-26T08:55:07Z</time>
      </trkpt>
      <trkpt lat="47.32123" lon="-0.65993">
        <ele>29.46</ele>
        <time>2013-05-26T08:55:11Z</time>
      </trkpt>
      <trkpt lat="47.32138" lon="-0.65985">
        <ele>28.02</ele>
        <time>2013-05-26T08:55:14Z</time>
      </trkpt>
      <trkpt lat="47.32144" lon="-0.65981">
        <ele>27.53</ele>
        <time>2013-05-26T08:55:15Z</time>
      </trkpt>
      <trkpt lat="47.32164" lon="-0.65969">
        <ele>26.09</ele>
        <time>2013-05-26T08:55:18Z</time>
      </trkpt>
      <trkpt lat="47.32193" lon="-0.65952">
        <ele>23.69</ele>
        <time>2013-05-26T08:55:23Z</time>
      </trkpt>
      <trkpt lat="47.32197" lon="-0.6595">
        <ele>23.69</ele>
        <time>2013-05-26T08:55:24Z</time>
      </trkpt>
      <trkpt lat="47.32206" lon="-0.65947">
        <ele>21.77</ele>
        <time>2013-05-26T08:55:28Z</time>
      </trkpt>
      <trkpt lat="47.32211" lon="-0.65958">
        <ele>21.77</ele>
        <time>2013-05-26T08:55:32Z</time>
      </trkpt>
      <trkpt lat="47.32217" lon="-0.66008">
        <ele>21.77</ele>
        <time>2013-05-26T08:55:40Z</time>
      </trkpt>
      <trkpt lat="47.32227" lon="-0.6607">
        <ele>20.81</ele>
        <time>2013-05-26T08:55:49Z</time>
      </trkpt>
      <trkpt lat="47.32238" lon="-0.66126">
        <ele>21.77</ele>
        <time>2013-05-26T08:55:58Z</time>
      </trkpt>
      <trkpt lat="47.32242" lon="-0.66138">
        <ele>21.77</ele>
        <time>2013-05-26T08:56:00Z</time>
      </trkpt>
      <trkpt lat="47.32245" lon="-0.6615">
        <ele>22.25</ele>
        <time>2013-05-26T08:56:02Z</time>
      </trkpt>
      <trkpt lat="47.32249" lon="-0.66161">
        <ele>22.25</ele>
        <time>2013-05-26T08:56:04Z</time>
      </trkpt>
      <trkpt lat="47.32254" lon="-0.66171">
        <ele>22.25</ele>
        <time>2013-05-26T08:56:06Z</time>
      </trkpt>
      <trkpt lat="47.32264" lon="-0.66192">
        <ele>22.73</ele>
        <time>2013-05-26T08:56:10Z</time>
      </trkpt>
      <trkpt lat="47.32285" lon="-0.66246">
        <ele>22.25</ele>
        <time>2013-05-26T08:56:19Z</time>
      </trkpt>
      <trkpt lat="47.32306" lon="-0.66304">
        <ele>20.81</ele>
        <time>2013-05-26T08:56:28Z</time>
      </trkpt>
      <trkpt lat="47.32327" lon="-0.66359">
        <ele>20.32</ele>
        <time>2013-05-26T08:56:36Z</time>
      </trkpt>
      <trkpt lat="47.32347" lon="-0.66376">
        <ele>19.84</ele>
        <time>2013-05-26T08:56:40Z</time>
      </trkpt>
      <trkpt lat="47.32385" lon="-0.66383">
        <ele>19.36</ele>
        <time>2013-05-26T08:56:47Z</time>
      </trkpt>
      <trkpt lat="47.324" lon="-0.66386">
        <ele>19.84</ele>
        <time>2013-05-26T08:56:50Z</time>
      </trkpt>
      <trkpt lat="47.32437" lon="-0.66395">
        <ele>20.32</ele>
        <time>2013-05-26T08:56:59Z</time>
      </trkpt>
      <trkpt lat="47.32441" lon="-0.66397">
        <ele>19.84</ele>
        <time>2013-05-26T08:57:00Z</time>
      </trkpt>
      <trkpt lat="47.32457" lon="-0.66409">
        <ele>19.36</ele>
        <time>2013-05-26T08:57:05Z</time>
      </trkpt>
      <trkpt lat="47.32458" lon="-0.66415">
        <ele>19.36</ele>
        <time>2013-05-26T08:57:06Z</time>
      </trkpt>
      <trkpt lat="47.32459" lon="-0.66428">
        <ele>18.88</ele>
        <time>2013-05-26T08:57:08Z</time>
      </trkpt>
      <trkpt lat="47.32467" lon="-0.66477">
        <ele>19.36</ele>
        <time>2013-05-26T08:57:16Z</time>
      </trkpt>
      <trkpt lat="47.32471" lon="-0.66488">
        <ele>19.36</ele>
        <time>2013-05-26T08:57:18Z</time>
      </trkpt>
      <trkpt lat="47.3248" lon="-0.66525">
        <ele>19.36</ele>
        <time>2013-05-26T08:57:24Z</time>
      </trkpt>
      <trkpt lat="47.32479" lon="-0.66544">
        <ele>19.36</ele>
        <time>2013-05-26T08:57:27Z</time>
      </trkpt>
      <trkpt lat="47.32463" lon="-0.66568">
        <ele>17.44</ele>
        <time>2013-05-26T08:57:31Z</time>
      </trkpt>
      <trkpt lat="47.32434" lon="-0.66592">
        <ele>16.96</ele>
        <time>2013-05-26T08:57:37Z</time>
      </trkpt>
      <trkpt lat="47.32428" lon="-0.66605">
        <ele>16.48</ele>
        <time>2013-05-26T08:57:39Z</time>
      </trkpt>
      <trkpt lat="47.3241" lon="-0.66641">
        <ele>16.48</ele>
        <time>2013-05-26T08:57:45Z</time>
      </trkpt>
      <trkpt lat="47.32407" lon="-0.66667">
        <ele>16.48</ele>
        <time>2013-05-26T08:57:49Z</time>
      </trkpt>
      <trkpt lat="47.3241" lon="-0.66672">
        <ele>16.48</ele>
        <time>2013-05-26T08:57:50Z</time>
      </trkpt>
      <trkpt lat="47.32422" lon="-0.66692">
        <ele>16.48</ele>
        <time>2013-05-26T08:57:54Z</time>
      </trkpt>
      <trkpt lat="47.32429" lon="-0.66701">
        <ele>16.48</ele>
        <time>2013-05-26T08:57:56Z</time>
      </trkpt>
      <trkpt lat="47.32447" lon="-0.6673">
        <ele>16.96</ele>
        <time>2013-05-26T08:58:02Z</time>
      </trkpt>
      <trkpt lat="47.32459" lon="-0.66764">
        <ele>16.48</ele>
        <time>2013-05-26T08:58:08Z</time>
      </trkpt>
      <trkpt lat="47.32468" lon="-0.66787">
        <ele>16.48</ele>
        <time>2013-05-26T08:58:12Z</time>
      </trkpt>
      <trkpt lat="47.32486" lon="-0.66802">
        <ele>16</ele>
        <time>2013-05-26T08:58:17Z</time>
      </trkpt>
      <trkpt lat="47.32493" lon="-0.66806">
        <ele>16.48</ele>
        <time>2013-05-26T08:58:19Z</time>
      </trkpt>
      <trkpt lat="47.32508" lon="-0.66825">
        <ele>16.48</ele>
        <time>2013-05-26T08:58:24Z</time>
      </trkpt>
      <trkpt lat="47.3252" lon="-0.66871">
        <ele>16.48</ele>
        <time>2013-05-26T08:58:32Z</time>
      </trkpt>
      <trkpt lat="47.32536" lon="-0.66899">
        <ele>16.48</ele>
        <time>2013-05-26T08:58:38Z</time>
      </trkpt>
      <trkpt lat="47.32555" lon="-0.66915">
        <ele>16.48</ele>
        <time>2013-05-26T08:58:43Z</time>
      </trkpt>
      <trkpt lat="47.32558" lon="-0.66919">
        <ele>16.48</ele>
        <time>2013-05-26T08:58:44Z</time>
      </trkpt>
      <trkpt lat="47.32565" lon="-0.66934">
        <ele>16.48</ele>
        <time>2013-05-26T08:58:47Z</time>
      </trkpt>
      <trkpt lat="47.32583" lon="-0.66966">
        <ele>16.48</ele>
        <time>2013-05-26T08:58:53Z</time>
      </trkpt>
      <trkpt lat="47.32609" lon="-0.67006">
        <ele>16</ele>
        <time>2013-05-26T08:59:01Z</time>
      </trkpt>
      <trkpt lat="47.32612" lon="-0.6701">
        <ele>16.48</ele>
        <time>2013-05-26T08:59:02Z</time>
      </trkpt>
      <trkpt lat="47.32625" lon="-0.67027">
        <ele>16.48</ele>
        <time>2013-05-26T08:59:06Z</time>
      </trkpt>
      <trkpt lat="47.32632" lon="-0.67033">
        <ele>16.48</ele>
        <time>2013-05-26T08:59:08Z</time>
      </trkpt>
      <trkpt lat="47.3266" lon="-0.6705">
        <ele>16</ele>
        <time>2013-05-26T08:59:15Z</time>
      </trkpt>
      <trkpt lat="47.32684" lon="-0.67058">
        <ele>16</ele>
        <time>2013-05-26T08:59:21Z</time>
      </trkpt>
      <trkpt lat="47.32703" lon="-0.67074">
        <ele>16.48</ele>
        <time>2013-05-26T08:59:27Z</time>
      </trkpt>
      <trkpt lat="47.3273" lon="-0.67112">
        <ele>16.48</ele>
        <time>2013-05-26T08:59:35Z</time>
      </trkpt>
      <trkpt lat="47.32733" lon="-0.67117">
        <ele>16</ele>
        <time>2013-05-26T08:59:36Z</time>
      </trkpt>
      <trkpt lat="47.32751" lon="-0.67143">
        <ele>16</ele>
        <time>2013-05-26T08:59:42Z</time>
      </trkpt>
      <trkpt lat="47.32771" lon="-0.67138">
        <ele>16</ele>
        <time>2013-05-26T08:59:48Z</time>
      </trkpt>
      <trkpt lat="47.32781" lon="-0.67151">
        <ele>16.96</ele>
        <time>2013-05-26T08:59:52Z</time>
      </trkpt>
      <trkpt lat="47.32794" lon="-0.6715">
        <ele>16.96</ele>
        <time>2013-05-26T08:59:56Z</time>
      </trkpt>
      <trkpt lat="47.32797" lon="-0.67146">
        <ele>16.96</ele>
        <time>2013-05-26T08:59:58Z</time>
      </trkpt>
      <trkpt lat="47.32806" lon="-0.67143">
        <ele>17.44</ele>
        <time>2013-05-26T09:00:02Z</time>
      </trkpt>
      <trkpt lat="47.32813" lon="-0.67158">
        <ele>16.96</ele>
        <time>2013-05-26T09:00:06Z</time>
      </trkpt>
      <trkpt lat="47.32813" lon="-0.6717">
        <ele>17.44</ele>
        <time>2013-05-26T09:00:08Z</time>
      </trkpt>
      <trkpt lat="47.32824" lon="-0.67187">
        <ele>17.44</ele>
        <time>2013-05-26T09:00:12Z</time>
      </trkpt>
      <trkpt lat="47.32833" lon="-0.67207">
        <ele>17.44</ele>
        <time>2013-05-26T09:00:16Z</time>
      </trkpt>
      <trkpt lat="47.32838" lon="-0.67232">
        <ele>17.44</ele>
        <time>2013-05-26T09:00:20Z</time>
      </trkpt>
      <trkpt lat="47.32845" lon="-0.67279">
        <ele>18.4</ele>
        <time>2013-05-26T09:00:27Z</time>
      </trkpt>
      <trkpt lat="47.32846" lon="-0.67312">
        <ele>17.92</ele>
        <time>2013-05-26T09:00:32Z</time>
      </trkpt>
      <trkpt lat="47.3285" lon="-0.67361">
        <ele>18.4</ele>
        <time>2013-05-26T09:00:40Z</time>
      </trkpt>
      <trkpt lat="47.32851" lon="-0.67394">
        <ele>18.88</ele>
        <time>2013-05-26T09:00:45Z</time>
      </trkpt>
      <trkpt lat="47.32854" lon="-0.67425">
        <ele>19.36</ele>
        <time>2013-05-26T09:00:50Z</time>
      </trkpt>
      <trkpt lat="47.32855" lon="-0.67459">
        <ele>19.36</ele>
        <time>2013-05-26T09:00:56Z</time>
      </trkpt>
      <trkpt lat="47.32854" lon="-0.67468">
        <ele>19.36</ele>
        <time>2013-05-26T09:00:58Z</time>
      </trkpt>
      <trkpt lat="47.32852" lon="-0.67511">
        <ele>20.32</ele>
        <time>2013-05-26T09:01:05Z</time>
      </trkpt>
      <trkpt lat="47.32852" lon="-0.67517">
        <ele>20.32</ele>
        <time>2013-05-26T09:01:06Z</time>
      </trkpt>
      <trkpt lat="47.3285" lon="-0.67562">
        <ele>20.32</ele>
        <time>2013-05-26T09:01:14Z</time>
      </trkpt>
      <trkpt lat="47.3285" lon="-0.67574">
        <ele>20.32</ele>
        <time>2013-05-26T09:01:16Z</time>
      </trkpt>
      <trkpt lat="47.32842" lon="-0.67612">
        <ele>20.81</ele>
        <time>2013-05-26T09:01:23Z</time>
      </trkpt>
      <trkpt lat="47.32837" lon="-0.67646">
        <ele>20.81</ele>
        <time>2013-05-26T09:01:29Z</time>
      </trkpt>
      <trkpt lat="47.32829" lon="-0.67684">
        <ele>21.29</ele>
        <time>2013-05-26T09:01:36Z</time>
      </trkpt>
      <trkpt lat="47.32824" lon="-0.67714">
        <ele>21.29</ele>
        <time>2013-05-26T09:01:42Z</time>
      </trkpt>
      <trkpt lat="47.32828" lon="-0.67733">
        <ele>20.32</ele>
        <time>2013-05-26T09:01:48Z</time>
      </trkpt>
      <trkpt lat="47.3283" lon="-0.67738">
        <ele>19.36</ele>
        <time>2013-05-26T09:01:50Z</time>
      </trkpt>
      <trkpt lat="47.32828" lon="-0.67744">
        <ele>17.92</ele>
        <time>2013-05-26T09:01:55Z</time>
      </trkpt>
      <trkpt lat="47.32828" lon="-0.67746">
        <ele>17.92</ele>
        <time>2013-05-26T09:02:02Z</time>
      </trkpt>
      <trkpt lat="47.32828" lon="-0.67746">
        <ele>17.92</ele>
        <time>2013-05-26T09:02:18Z</time>
      </trkpt>
      <trkpt lat="47.32828" lon="-0.67746">
        <ele>17.44</ele>
        <time>2013-05-26T09:02:32Z</time>
      </trkpt>
      <trkpt lat="47.32828" lon="-0.67746">
        <ele>17.92</ele>
        <time>2013-05-26T09:02:41Z</time>
      </trkpt>
      <trkpt lat="47.32827" lon="-0.67747">
        <ele>17.92</ele>
        <time>2013-05-26T09:02:52Z</time>
      </trkpt>
      <trkpt lat="47.32824" lon="-0.67759">
        <ele>18.88</ele>
        <time>2013-05-26T09:02:57Z</time>
      </trkpt>
      <trkpt lat="47.32821" lon="-0.67761">
        <ele>20.32</ele>
        <time>2013-05-26T09:03:00Z</time>
      </trkpt>
      <trkpt lat="47.32818" lon="-0.67765">
        <ele>20.81</ele>
        <time>2013-05-26T09:03:07Z</time>
      </trkpt>
      <trkpt lat="47.32817" lon="-0.67766">
        <ele>22.25</ele>
        <time>2013-05-26T09:03:13Z</time>
      </trkpt>
      <trkpt lat="47.32816" lon="-0.67776">
        <ele>22.73</ele>
        <time>2013-05-26T09:03:20Z</time>
      </trkpt>
      <trkpt lat="47.32815" lon="-0.67779">
        <ele>24.17</ele>
        <time>2013-05-26T09:03:25Z</time>
      </trkpt>
      <trkpt lat="47.32815" lon="-0.67784">
        <ele>26.09</ele>
        <time>2013-05-26T09:03:32Z</time>
      </trkpt>
      <trkpt lat="47.32813" lon="-0.67789">
        <ele>26.57</ele>
        <time>2013-05-26T09:03:38Z</time>
      </trkpt>
      <trkpt lat="47.32809" lon="-0.67794">
        <ele>28.5</ele>
        <time>2013-05-26T09:03:45Z</time>
      </trkpt>
      <trkpt lat="47.32808" lon="-0.67796">
        <ele>28.5</ele>
        <time>2013-05-26T09:03:52Z</time>
      </trkpt>
      <trkpt lat="47.32809" lon="-0.67797">
        <ele>29.46</ele>
        <time>2013-05-26T09:03:58Z</time>
      </trkpt>
      <trkpt lat="47.32811" lon="-0.678">
        <ele>30.42</ele>
        <time>2013-05-26T09:04:06Z</time>
      </trkpt>
      <trkpt lat="47.32812" lon="-0.67805">
        <ele>31.86</ele>
        <time>2013-05-26T09:04:12Z</time>
      </trkpt>
      <trkpt lat="47.32816" lon="-0.6781">
        <ele>33.3</ele>
        <time>2013-05-26T09:04:19Z</time>
      </trkpt>
      <trkpt lat="47.32815" lon="-0.67819">
        <ele>34.74</ele>
        <time>2013-05-26T09:04:27Z</time>
      </trkpt>
      <trkpt lat="47.32814" lon="-0.67821">
        <ele>34.74</ele>
        <time>2013-05-26T09:04:32Z</time>
      </trkpt>
      <trkpt lat="47.32811" lon="-0.67824">
        <ele>34.74</ele>
        <time>2013-05-26T09:04:38Z</time>
      </trkpt>
      <trkpt lat="47.32811" lon="-0.67825">
        <ele>35.71</ele>
        <time>2013-05-26T09:04:44Z</time>
      </trkpt>
      <trkpt lat="47.32811" lon="-0.67825">
        <ele>35.23</ele>
        <time>2013-05-26T09:05:01Z</time>
      </trkpt>
      <trkpt lat="47.32807" lon="-0.67827">
        <ele>35.23</ele>
        <time>2013-05-26T09:05:08Z</time>
      </trkpt>
      <trkpt lat="47.32806" lon="-0.67829">
        <ele>35.23</ele>
        <time>2013-05-26T09:05:09Z</time>
      </trkpt>
      <trkpt lat="47.32798" lon="-0.67857">
        <ele>35.71</ele>
        <time>2013-05-26T09:05:18Z</time>
      </trkpt>
      <trkpt lat="47.32789" lon="-0.6789">
        <ele>37.15</ele>
        <time>2013-05-26T09:05:26Z</time>
      </trkpt>
      <trkpt lat="47.32779" lon="-0.67925">
        <ele>36.67</ele>
        <time>2013-05-26T09:05:34Z</time>
      </trkpt>
      <trkpt lat="47.32779" lon="-0.67952">
        <ele>37.15</ele>
        <time>2013-05-26T09:05:40Z</time>
      </trkpt>
      <trkpt lat="47.32786" lon="-0.67985">
        <ele>38.59</ele>
        <time>2013-05-26T09:05:48Z</time>
      </trkpt>
      <trkpt lat="47.32788" lon="-0.67996">
        <ele>38.59</ele>
        <time>2013-05-26T09:05:51Z</time>
      </trkpt>
      <trkpt lat="47.32801" lon="-0.67997">
        <ele>39.55</ele>
        <time>2013-05-26T09:05:56Z</time>
      </trkpt>
      <trkpt lat="47.3281" lon="-0.68017">
        <ele>40.99</ele>
        <time>2013-05-26T09:06:03Z</time>
      </trkpt>
      <trkpt lat="47.32811" lon="-0.68021">
        <ele>40.51</ele>
        <time>2013-05-26T09:06:04Z</time>
      </trkpt>
      <trkpt lat="47.32816" lon="-0.68055">
        <ele>41.47</ele>
        <time>2013-05-26T09:06:12Z</time>
      </trkpt>
      <trkpt lat="47.32819" lon="-0.68088">
        <ele>41.95</ele>
        <time>2013-05-26T09:06:19Z</time>
      </trkpt>
      <trkpt lat="47.32821" lon="-0.68125">
        <ele>42.92</ele>
        <time>2013-05-26T09:06:27Z</time>
      </trkpt>
      <trkpt lat="47.32825" lon="-0.68153">
        <ele>43.4</ele>
        <time>2013-05-26T09:06:33Z</time>
      </trkpt>
      <trkpt lat="47.32828" lon="-0.68184">
        <ele>43.88</ele>
        <time>2013-05-26T09:06:40Z</time>
      </trkpt>
      <trkpt lat="47.32838" lon="-0.6822">
        <ele>44.36</ele>
        <time>2013-05-26T09:06:48Z</time>
      </trkpt>
      <trkpt lat="47.32852" lon="-0.68219">
        <ele>44.84</ele>
        <time>2013-05-26T09:06:53Z</time>
      </trkpt>
      <trkpt lat="47.32861" lon="-0.68244">
        <ele>45.32</ele>
        <time>2013-05-26T09:07:00Z</time>
      </trkpt>
      <trkpt lat="47.32868" lon="-0.6828">
        <ele>45.8</ele>
        <time>2013-05-26T09:07:07Z</time>
      </trkpt>
      <trkpt lat="47.32875" lon="-0.68322">
        <ele>44.84</ele>
        <time>2013-05-26T09:07:15Z</time>
      </trkpt>
      <trkpt lat="47.32894" lon="-0.68333">
        <ele>45.8</ele>
        <time>2013-05-26T09:07:22Z</time>
      </trkpt>
      <trkpt lat="47.32911" lon="-0.68329">
        <ele>47.72</ele>
        <time>2013-05-26T09:07:29Z</time>
      </trkpt>
      <trkpt lat="47.32913" lon="-0.68328">
        <ele>48.2</ele>
        <time>2013-05-26T09:07:30Z</time>
      </trkpt>
      <trkpt lat="47.3293" lon="-0.68323">
        <ele>50.61</ele>
        <time>2013-05-26T09:07:39Z</time>
      </trkpt>
      <trkpt lat="47.32942" lon="-0.6832">
        <ele>52.53</ele>
        <time>2013-05-26T09:07:46Z</time>
      </trkpt>
      <trkpt lat="47.32954" lon="-0.68315">
        <ele>54.45</ele>
        <time>2013-05-26T09:07:54Z</time>
      </trkpt>
      <trkpt lat="47.32967" lon="-0.68308">
        <ele>56.37</ele>
        <time>2013-05-26T09:08:03Z</time>
      </trkpt>
      <trkpt lat="47.32981" lon="-0.68305">
        <ele>57.82</ele>
        <time>2013-05-26T09:08:11Z</time>
      </trkpt>
      <trkpt lat="47.32992" lon="-0.68301">
        <ele>58.78</ele>
        <time>2013-05-26T09:08:18Z</time>
      </trkpt>
      <trkpt lat="47.33004" lon="-0.68295">
        <ele>59.74</ele>
        <time>2013-05-26T09:08:26Z</time>
      </trkpt>
      <trkpt lat="47.3302" lon="-0.68289">
        <ele>61.18</ele>
        <time>2013-05-26T09:08:35Z</time>
      </trkpt>
      <trkpt lat="47.33038" lon="-0.68285">
        <ele>61.66</ele>
        <time>2013-05-26T09:08:43Z</time>
      </trkpt>
      <trkpt lat="47.3304" lon="-0.68286">
        <ele>61.66</ele>
        <time>2013-05-26T09:08:44Z</time>
      </trkpt>
      <trkpt lat="47.33061" lon="-0.68276">
        <ele>62.14</ele>
        <time>2013-05-26T09:08:53Z</time>
      </trkpt>
      <trkpt lat="47.3307" lon="-0.68267">
        <ele>62.62</ele>
        <time>2013-05-26T09:08:59Z</time>
      </trkpt>
      <trkpt lat="47.3307" lon="-0.68267">
        <ele>58.78</ele>
        <time>2013-05-26T09:09:07Z</time>
      </trkpt>
      <trkpt lat="47.3307" lon="-0.68267">
        <ele>61.18</ele>
        <time>2013-05-26T09:09:08Z</time>
      </trkpt>
      <trkpt lat="47.3307" lon="-0.68267">
        <ele>63.58</ele>
        <time>2013-05-26T09:09:10Z</time>
      </trkpt>
      <trkpt lat="47.3307" lon="-0.68267">
        <ele>62.62</ele>
        <time>2013-05-26T09:09:25Z</time>
      </trkpt>
      <trkpt lat="47.3307" lon="-0.68267">
        <ele>64.07</ele>
        <time>2013-05-26T09:09:32Z</time>
      </trkpt>
      <trkpt lat="47.3307" lon="-0.68267">
        <ele>62.14</ele>
        <time>2013-05-26T09:09:34Z</time>
      </trkpt>
      <trkpt lat="47.3307" lon="-0.68267">
        <ele>63.1</ele>
        <time>2013-05-26T09:09:57Z</time>
      </trkpt>
      <trkpt lat="47.3307" lon="-0.68267">
        <ele>57.34</ele>
        <time>2013-05-26T09:10:01Z</time>
      </trkpt>
      <trkpt lat="47.3307" lon="-0.68267">
        <ele>69.83</ele>
        <time>2013-05-26T09:10:02Z</time>
      </trkpt>
      <trkpt lat="47.3307" lon="-0.68267">
        <ele>64.07</ele>
        <time>2013-05-26T09:10:03Z</time>
      </trkpt>
      <trkpt lat="47.3307" lon="-0.68267">
        <ele>63.1</ele>
        <time>2013-05-26T09:10:05Z</time>
      </trkpt>
      <trkpt lat="47.33071" lon="-0.68268">
        <ele>63.58</ele>
        <time>2013-05-26T09:10:17Z</time>
      </trkpt>
      <trkpt lat="47.33081" lon="-0.68263">
        <ele>64.07</ele>
        <time>2013-05-26T09:10:22Z</time>
      </trkpt>
      <trkpt lat="47.33105" lon="-0.68251">
        <ele>65.99</ele>
        <time>2013-05-26T09:10:30Z</time>
      </trkpt>
      <trkpt lat="47.33135" lon="-0.68236">
        <ele>67.43</ele>
        <time>2013-05-26T09:10:39Z</time>
      </trkpt>
      <trkpt lat="47.33157" lon="-0.68236">
        <ele>68.39</ele>
        <time>2013-05-26T09:10:46Z</time>
      </trkpt>
      <trkpt lat="47.33177" lon="-0.68253">
        <ele>69.83</ele>
        <time>2013-05-26T09:10:54Z</time>
      </trkpt>
      <trkpt lat="47.33193" lon="-0.68267">
        <ele>70.79</ele>
        <time>2013-05-26T09:11:01Z</time>
      </trkpt>
      <trkpt lat="47.33216" lon="-0.68275">
        <ele>70.31</ele>
        <time>2013-05-26T09:11:08Z</time>
      </trkpt>
      <trkpt lat="47.33224" lon="-0.68272">
        <ele>70.79</ele>
        <time>2013-05-26T09:11:11Z</time>
      </trkpt>
      <trkpt lat="47.33231" lon="-0.68291">
        <ele>70.31</ele>
        <time>2013-05-26T09:11:17Z</time>
      </trkpt>
      <trkpt lat="47.33233" lon="-0.68322">
        <ele>69.83</ele>
        <time>2013-05-26T09:11:25Z</time>
      </trkpt>
      <trkpt lat="47.33232" lon="-0.68357">
        <ele>69.35</ele>
        <time>2013-05-26T09:11:33Z</time>
      </trkpt>
      <trkpt lat="47.33227" lon="-0.68387">
        <ele>67.43</ele>
        <time>2013-05-26T09:11:39Z</time>
      </trkpt>
      <trkpt lat="47.33222" lon="-0.68428">
        <ele>67.43</ele>
        <time>2013-05-26T09:11:47Z</time>
      </trkpt>
      <trkpt lat="47.33217" lon="-0.68474">
        <ele>66.47</ele>
        <time>2013-05-26T09:11:55Z</time>
      </trkpt>
      <trkpt lat="47.33213" lon="-0.68516">
        <ele>65.03</ele>
        <time>2013-05-26T09:12:03Z</time>
      </trkpt>
      <trkpt lat="47.33215" lon="-0.68528">
        <ele>65.51</ele>
        <time>2013-05-26T09:12:06Z</time>
      </trkpt>
      <trkpt lat="47.33223" lon="-0.68527">
        <ele>66.47</ele>
        <time>2013-05-26T09:12:11Z</time>
      </trkpt>
      <trkpt lat="47.33235" lon="-0.68514">
        <ele>68.39</ele>
        <time>2013-05-26T09:12:17Z</time>
      </trkpt>
      <trkpt lat="47.33242" lon="-0.68501">
        <ele>68.87</ele>
        <time>2013-05-26T09:12:21Z</time>
      </trkpt>
      <trkpt lat="47.33259" lon="-0.68488">
        <ele>67.91</ele>
        <time>2013-05-26T09:12:26Z</time>
      </trkpt>
      <trkpt lat="47.33286" lon="-0.68469">
        <ele>67.91</ele>
        <time>2013-05-26T09:12:34Z</time>
      </trkpt>
      <trkpt lat="47.33313" lon="-0.68453">
        <ele>67.91</ele>
        <time>2013-05-26T09:12:42Z</time>
      </trkpt>
      <trkpt lat="47.33336" lon="-0.68445">
        <ele>69.35</ele>
        <time>2013-05-26T09:12:49Z</time>
      </trkpt>
      <trkpt lat="47.33355" lon="-0.68444">
        <ele>70.31</ele>
        <time>2013-05-26T09:12:55Z</time>
      </trkpt>
      <trkpt lat="47.33378" lon="-0.68442">
        <ele>72.72</ele>
        <time>2013-05-26T09:13:04Z</time>
      </trkpt>
      <trkpt lat="47.3339" lon="-0.6844">
        <ele>74.64</ele>
        <time>2013-05-26T09:13:10Z</time>
      </trkpt>
      <trkpt lat="47.33404" lon="-0.68437">
        <ele>75.6</ele>
        <time>2013-05-26T09:13:18Z</time>
      </trkpt>
      <trkpt lat="47.33416" lon="-0.68434">
        <ele>77.52</ele>
        <time>2013-05-26T09:13:25Z</time>
      </trkpt>
      <trkpt lat="47.33421" lon="-0.68433">
        <ele>77.52</ele>
        <time>2013-05-26T09:13:29Z</time>
      </trkpt>
      <trkpt lat="47.33433" lon="-0.68428">
        <ele>79.45</ele>
        <time>2013-05-26T09:13:37Z</time>
      </trkpt>
      <trkpt lat="47.33435" lon="-0.68427">
        <ele>79.93</ele>
        <time>2013-05-26T09:13:38Z</time>
      </trkpt>
      <trkpt lat="47.33441" lon="-0.68424">
        <ele>79.93</ele>
        <time>2013-05-26T09:13:42Z</time>
      </trkpt>
      <trkpt lat="47.33456" lon="-0.68415">
        <ele>81.37</ele>
        <time>2013-05-26T09:13:51Z</time>
      </trkpt>
      <trkpt lat="47.33468" lon="-0.68399">
        <ele>81.85</ele>
        <time>2013-05-26T09:13:58Z</time>
      </trkpt>
      <trkpt lat="47.33476" lon="-0.68381">
        <ele>80.41</ele>
        <time>2013-05-26T09:14:05Z</time>
      </trkpt>
      <trkpt lat="47.33488" lon="-0.6838">
        <ele>80.41</ele>
        <time>2013-05-26T09:14:09Z</time>
      </trkpt>
      <trkpt lat="47.33499" lon="-0.68383">
        <ele>79.93</ele>
        <time>2013-05-26T09:14:12Z</time>
      </trkpt>
      <trkpt lat="47.3353" lon="-0.6839">
        <ele>78.48</ele>
        <time>2013-05-26T09:14:18Z</time>
      </trkpt>
      <trkpt lat="47.33543" lon="-0.68392">
        <ele>78</ele>
        <time>2013-05-26T09:14:20Z</time>
      </trkpt>
      <trkpt lat="47.33587" lon="-0.68411">
        <ele>75.12</ele>
        <time>2013-05-26T09:14:27Z</time>
      </trkpt>
      <trkpt lat="47.33607" lon="-0.68406">
        <ele>75.12</ele>
        <time>2013-05-26T09:14:31Z</time>
      </trkpt>
      <trkpt lat="47.33622" lon="-0.68392">
        <ele>75.6</ele>
        <time>2013-05-26T09:14:37Z</time>
      </trkpt>
      <trkpt lat="47.33644" lon="-0.68378">
        <ele>76.08</ele>
        <time>2013-05-26T09:14:45Z</time>
      </trkpt>
      <trkpt lat="47.33666" lon="-0.68362">
        <ele>77.52</ele>
        <time>2013-05-26T09:14:53Z</time>
      </trkpt>
      <trkpt lat="47.3368" lon="-0.68349">
        <ele>73.68</ele>
        <time>2013-05-26T09:14:59Z</time>
      </trkpt>
      <trkpt lat="47.33682" lon="-0.68347">
        <ele>78.97</ele>
        <time>2013-05-26T09:15:00Z</time>
      </trkpt>
      <trkpt lat="47.33706" lon="-0.68327">
        <ele>74.16</ele>
        <time>2013-05-26T09:15:09Z</time>
      </trkpt>
      <trkpt lat="47.33708" lon="-0.68325">
        <ele>81.37</ele>
        <time>2013-05-26T09:15:10Z</time>
      </trkpt>
      <trkpt lat="47.33718" lon="-0.68316">
        <ele>78</ele>
        <time>2013-05-26T09:15:14Z</time>
      </trkpt>
      <trkpt lat="47.33722" lon="-0.68312">
        <ele>81.85</ele>
        <time>2013-05-26T09:15:16Z</time>
      </trkpt>
      <trkpt lat="47.33727" lon="-0.68308">
        <ele>76.08</ele>
        <time>2013-05-26T09:15:18Z</time>
      </trkpt>
      <trkpt lat="47.33729" lon="-0.68307">
        <ele>80.89</ele>
        <time>2013-05-26T09:15:19Z</time>
      </trkpt>
      <trkpt lat="47.33744" lon="-0.68295">
        <ele>77.04</ele>
        <time>2013-05-26T09:15:25Z</time>
      </trkpt>
      <trkpt lat="47.33746" lon="-0.68294">
        <ele>81.37</ele>
        <time>2013-05-26T09:15:26Z</time>
      </trkpt>
      <trkpt lat="47.33764" lon="-0.68278">
        <ele>82.81</ele>
        <time>2013-05-26T09:15:33Z</time>
      </trkpt>
      <trkpt lat="47.33767" lon="-0.68276">
        <ele>82.81</ele>
        <time>2013-05-26T09:15:34Z</time>
      </trkpt>
      <trkpt lat="47.33778" lon="-0.68267">
        <ele>83.29</ele>
        <time>2013-05-26T09:15:39Z</time>
      </trkpt>
      <trkpt lat="47.33794" lon="-0.68256">
        <ele>84.25</ele>
        <time>2013-05-26T09:15:46Z</time>
      </trkpt>
      <trkpt lat="47.3381" lon="-0.68247">
        <ele>85.21</ele>
        <time>2013-05-26T09:15:53Z</time>
      </trkpt>
      <trkpt lat="47.33828" lon="-0.68234">
        <ele>86.66</ele>
        <time>2013-05-26T09:16:02Z</time>
      </trkpt>
      <trkpt lat="47.33844" lon="-0.68222">
        <ele>88.1</ele>
        <time>2013-05-26T09:16:11Z</time>
      </trkpt>
      <trkpt lat="47.33859" lon="-0.68211">
        <ele>89.54</ele>
        <time>2013-05-26T09:16:20Z</time>
      </trkpt>
      <trkpt lat="47.33873" lon="-0.68199">
        <ele>90.98</ele>
        <time>2013-05-26T09:16:28Z</time>
      </trkpt>
      <trkpt lat="47.33882" lon="-0.68192">
        <ele>91.46</ele>
        <time>2013-05-26T09:16:33Z</time>
      </trkpt>
      <trkpt lat="47.33882" lon="-0.6818">
        <ele>91.94</ele>
        <time>2013-05-26T09:16:38Z</time>
      </trkpt>
      <trkpt lat="47.33875" lon="-0.68163">
        <ele>91.94</ele>
        <time>2013-05-26T09:16:44Z</time>
      </trkpt>
      <trkpt lat="47.33865" lon="-0.68136">
        <ele>91.94</ele>
        <time>2013-05-26T09:16:52Z</time>
      </trkpt>
      <trkpt lat="47.33859" lon="-0.68114">
        <ele>92.42</ele>
        <time>2013-05-26T09:16:57Z</time>
      </trkpt>
      <trkpt lat="47.3387" lon="-0.68096">
        <ele>92.42</ele>
        <time>2013-05-26T09:17:02Z</time>
      </trkpt>
      <trkpt lat="47.33874" lon="-0.6808">
        <ele>91.46</ele>
        <time>2013-05-26T09:17:06Z</time>
      </trkpt>
      <trkpt lat="47.33867" lon="-0.68069">
        <ele>91.46</ele>
        <time>2013-05-26T09:17:09Z</time>
      </trkpt>
      <trkpt lat="47.33843" lon="-0.68032">
        <ele>92.42</ele>
        <time>2013-05-26T09:17:18Z</time>
      </trkpt>
      <trkpt lat="47.33834" lon="-0.68006">
        <ele>92.9</ele>
        <time>2013-05-26T09:17:23Z</time>
      </trkpt>
      <trkpt lat="47.33819" lon="-0.67944">
        <ele>92.42</ele>
        <time>2013-05-26T09:17:33Z</time>
      </trkpt>
      <trkpt lat="47.33816" lon="-0.67931">
        <ele>92.42</ele>
        <time>2013-05-26T09:17:35Z</time>
      </trkpt>
      <trkpt lat="47.33811" lon="-0.67912">
        <ele>92.9</ele>
        <time>2013-05-26T09:17:38Z</time>
      </trkpt>
      <trkpt lat="47.33786" lon="-0.67857">
        <ele>92.42</ele>
        <time>2013-05-26T09:17:48Z</time>
      </trkpt>
      <trkpt lat="47.33775" lon="-0.67834">
        <ele>91.94</ele>
        <time>2013-05-26T09:17:52Z</time>
      </trkpt>
      <trkpt lat="47.33765" lon="-0.6781">
        <ele>92.42</ele>
        <time>2013-05-26T09:17:56Z</time>
      </trkpt>
      <trkpt lat="47.33752" lon="-0.67778">
        <ele>91.46</ele>
        <time>2013-05-26T09:18:01Z</time>
      </trkpt>
      <trkpt lat="47.33741" lon="-0.67755">
        <ele>90.98</ele>
        <time>2013-05-26T09:18:05Z</time>
      </trkpt>
      <trkpt lat="47.33734" lon="-0.67744">
        <ele>90.98</ele>
        <time>2013-05-26T09:18:07Z</time>
      </trkpt>
      <trkpt lat="47.33718" lon="-0.67717">
        <ele>91.46</ele>
        <time>2013-05-26T09:18:12Z</time>
      </trkpt>
      <trkpt lat="47.33702" lon="-0.67688">
        <ele>90.5</ele>
        <time>2013-05-26T09:18:17Z</time>
      </trkpt>
      <trkpt lat="47.33688" lon="-0.67667">
        <ele>90.02</ele>
        <time>2013-05-26T09:18:21Z</time>
      </trkpt>
      <trkpt lat="47.33674" lon="-0.67645">
        <ele>89.54</ele>
        <time>2013-05-26T09:18:25Z</time>
      </trkpt>
      <trkpt lat="47.33661" lon="-0.67615">
        <ele>90.02</ele>
        <time>2013-05-26T09:18:30Z</time>
      </trkpt>
      <trkpt lat="47.33652" lon="-0.67597">
        <ele>89.54</ele>
        <time>2013-05-26T09:18:33Z</time>
      </trkpt>
      <trkpt lat="47.3364" lon="-0.67572">
        <ele>87.62</ele>
        <time>2013-05-26T09:18:37Z</time>
      </trkpt>
      <trkpt lat="47.33616" lon="-0.6753">
        <ele>89.06</ele>
        <time>2013-05-26T09:18:46Z</time>
      </trkpt>
      <trkpt lat="47.33601" lon="-0.67505">
        <ele>90.5</ele>
        <time>2013-05-26T09:18:52Z</time>
      </trkpt>
      <trkpt lat="47.33586" lon="-0.67469">
        <ele>92.42</ele>
        <time>2013-05-26T09:19:00Z</time>
      </trkpt>
      <trkpt lat="47.33575" lon="-0.67436">
        <ele>93.39</ele>
        <time>2013-05-26T09:19:08Z</time>
      </trkpt>
      <trkpt lat="47.33565" lon="-0.67404">
        <ele>94.35</ele>
        <time>2013-05-26T09:19:16Z</time>
      </trkpt>
      <trkpt lat="47.33556" lon="-0.67367">
        <ele>95.31</ele>
        <time>2013-05-26T09:19:24Z</time>
      </trkpt>
      <trkpt lat="47.33549" lon="-0.67353">
        <ele>94.83</ele>
        <time>2013-05-26T09:19:28Z</time>
      </trkpt>
      <trkpt lat="47.3353" lon="-0.67346">
        <ele>96.27</ele>
        <time>2013-05-26T09:19:35Z</time>
      </trkpt>
      <trkpt lat="47.33518" lon="-0.67333">
        <ele>95.79</ele>
        <time>2013-05-26T09:19:40Z</time>
      </trkpt>
      <trkpt lat="47.33504" lon="-0.67304">
        <ele>97.23</ele>
        <time>2013-05-26T09:19:49Z</time>
      </trkpt>
      <trkpt lat="47.33492" lon="-0.67276">
        <ele>96.27</ele>
        <time>2013-05-26T09:19:56Z</time>
      </trkpt>
      <trkpt lat="47.33478" lon="-0.67244">
        <ele>96.27</ele>
        <time>2013-05-26T09:20:03Z</time>
      </trkpt>
      <trkpt lat="47.33476" lon="-0.67239">
        <ele>95.79</ele>
        <time>2013-05-26T09:20:04Z</time>
      </trkpt>
      <trkpt lat="47.33447" lon="-0.67183">
        <ele>94.35</ele>
        <time>2013-05-26T09:20:14Z</time>
      </trkpt>
      <trkpt lat="47.33425" lon="-0.67131">
        <ele>93.87</ele>
        <time>2013-05-26T09:20:23Z</time>
      </trkpt>
      <trkpt lat="47.33415" lon="-0.67107">
        <ele>93.39</ele>
        <time>2013-05-26T09:20:28Z</time>
      </trkpt>
      <trkpt lat="47.33393" lon="-0.67045">
        <ele>94.83</ele>
        <time>2013-05-26T09:20:40Z</time>
      </trkpt>
      <trkpt lat="47.33377" lon="-0.66996">
        <ele>94.35</ele>
        <time>2013-05-26T09:20:49Z</time>
      </trkpt>
      <trkpt lat="47.3336" lon="-0.66936">
        <ele>93.87</ele>
        <time>2013-05-26T09:20:59Z</time>
      </trkpt>
      <trkpt lat="47.33341" lon="-0.66874">
        <ele>92.9</ele>
        <time>2013-05-26T09:21:09Z</time>
      </trkpt>
      <trkpt lat="47.33331" lon="-0.6684">
        <ele>92.42</ele>
        <time>2013-05-26T09:21:14Z</time>
      </trkpt>
      <trkpt lat="47.33323" lon="-0.66806">
        <ele>90.98</ele>
        <time>2013-05-26T09:21:19Z</time>
      </trkpt>
      <trkpt lat="47.33329" lon="-0.66777">
        <ele>90.02</ele>
        <time>2013-05-26T09:21:24Z</time>
      </trkpt>
      <trkpt lat="47.33343" lon="-0.66767">
        <ele>89.54</ele>
        <time>2013-05-26T09:21:27Z</time>
      </trkpt>
      <trkpt lat="47.33377" lon="-0.66744">
        <ele>89.06</ele>
        <time>2013-05-26T09:21:35Z</time>
      </trkpt>
      <trkpt lat="47.3339" lon="-0.66737">
        <ele>88.58</ele>
        <time>2013-05-26T09:21:38Z</time>
      </trkpt>
      <trkpt lat="47.3341" lon="-0.6671">
        <ele>87.14</ele>
        <time>2013-05-26T09:21:44Z</time>
      </trkpt>
      <trkpt lat="47.33425" lon="-0.66685">
        <ele>86.18</ele>
        <time>2013-05-26T09:21:49Z</time>
      </trkpt>
      <trkpt lat="47.33446" lon="-0.66663">
        <ele>85.69</ele>
        <time>2013-05-26T09:21:54Z</time>
      </trkpt>
      <trkpt lat="47.33459" lon="-0.66652">
        <ele>85.69</ele>
        <time>2013-05-26T09:21:57Z</time>
      </trkpt>
      <trkpt lat="47.33473" lon="-0.66634">
        <ele>85.21</ele>
        <time>2013-05-26T09:22:01Z</time>
      </trkpt>
      <trkpt lat="47.33495" lon="-0.66608">
        <ele>84.73</ele>
        <time>2013-05-26T09:22:08Z</time>
      </trkpt>
      <trkpt lat="47.33501" lon="-0.666">
        <ele>84.25</ele>
        <time>2013-05-26T09:22:10Z</time>
      </trkpt>
      <trkpt lat="47.33516" lon="-0.66603">
        <ele>84.73</ele>
        <time>2013-05-26T09:22:15Z</time>
      </trkpt>
      <trkpt lat="47.33524" lon="-0.66614">
        <ele>84.73</ele>
        <time>2013-05-26T09:22:18Z</time>
      </trkpt>
      <trkpt lat="47.33538" lon="-0.66637">
        <ele>85.21</ele>
        <time>2013-05-26T09:22:24Z</time>
      </trkpt>
      <trkpt lat="47.33557" lon="-0.66646">
        <ele>84.73</ele>
        <time>2013-05-26T09:22:29Z</time>
      </trkpt>
      <trkpt lat="47.33561" lon="-0.66647">
        <ele>84.73</ele>
        <time>2013-05-26T09:22:30Z</time>
      </trkpt>
      <trkpt lat="47.33583" lon="-0.66651">
        <ele>84.25</ele>
        <time>2013-05-26T09:22:36Z</time>
      </trkpt>
      <trkpt lat="47.33606" lon="-0.6664">
        <ele>83.77</ele>
        <time>2013-05-26T09:22:42Z</time>
      </trkpt>
      <trkpt lat="47.33621" lon="-0.6662">
        <ele>82.33</ele>
        <time>2013-05-26T09:22:47Z</time>
      </trkpt>
      <trkpt lat="47.33624" lon="-0.66617">
        <ele>82.81</ele>
        <time>2013-05-26T09:22:48Z</time>
      </trkpt>
      <trkpt lat="47.33648" lon="-0.66592">
        <ele>80.89</ele>
        <time>2013-05-26T09:22:56Z</time>
      </trkpt>
      <trkpt lat="47.3366" lon="-0.666">
        <ele>81.37</ele>
        <time>2013-05-26T09:23:01Z</time>
      </trkpt>
      <trkpt lat="47.3366" lon="-0.66604">
        <ele>81.37</ele>
        <time>2013-05-26T09:23:02Z</time>
      </trkpt>
      <trkpt lat="47.33659" lon="-0.66623">
        <ele>81.85</ele>
        <time>2013-05-26T09:23:09Z</time>
      </trkpt>
      <trkpt lat="47.33655" lon="-0.66639">
        <ele>82.81</ele>
        <time>2013-05-26T09:23:15Z</time>
      </trkpt>
      <trkpt lat="47.33652" lon="-0.66654">
        <ele>83.29</ele>
        <time>2013-05-26T09:23:21Z</time>
      </trkpt>
      <trkpt lat="47.33648" lon="-0.66665">
        <ele>83.77</ele>
        <time>2013-05-26T09:23:26Z</time>
      </trkpt>
      <trkpt lat="47.33646" lon="-0.66691">
        <ele>84.25</ele>
        <time>2013-05-26T09:23:35Z</time>
      </trkpt>
      <trkpt lat="47.33648" lon="-0.66718">
        <ele>85.21</ele>
        <time>2013-05-26T09:23:44Z</time>
      </trkpt>
      <trkpt lat="47.3365" lon="-0.66745">
        <ele>85.69</ele>
        <time>2013-05-26T09:23:53Z</time>
      </trkpt>
      <trkpt lat="47.33654" lon="-0.66766">
        <ele>86.18</ele>
        <time>2013-05-26T09:24:00Z</time>
      </trkpt>
      <trkpt lat="47.33655" lon="-0.66785">
        <ele>85.69</ele>
        <time>2013-05-26T09:24:06Z</time>
      </trkpt>
      <trkpt lat="47.33646" lon="-0.66802">
        <ele>85.69</ele>
        <time>2013-05-26T09:24:12Z</time>
      </trkpt>
      <trkpt lat="47.33647" lon="-0.66817">
        <ele>85.69</ele>
        <time>2013-05-26T09:24:16Z</time>
      </trkpt>
      <trkpt lat="47.33656" lon="-0.66845">
        <ele>86.18</ele>
        <time>2013-05-26T09:24:24Z</time>
      </trkpt>
      <trkpt lat="47.33669" lon="-0.66874">
        <ele>87.14</ele>
        <time>2013-05-26T09:24:32Z</time>
      </trkpt>
      <trkpt lat="47.33678" lon="-0.66893">
        <ele>86.66</ele>
        <time>2013-05-26T09:24:38Z</time>
      </trkpt>
      <trkpt lat="47.3369" lon="-0.66918">
        <ele>86.66</ele>
        <time>2013-05-26T09:24:46Z</time>
      </trkpt>
      <trkpt lat="47.337" lon="-0.66938">
        <ele>87.62</ele>
        <time>2013-05-26T09:24:53Z</time>
      </trkpt>
      <trkpt lat="47.33716" lon="-0.66933">
        <ele>88.1</ele>
        <time>2013-05-26T09:25:01Z</time>
      </trkpt>
      <trkpt lat="47.33739" lon="-0.66926">
        <ele>88.1</ele>
        <time>2013-05-26T09:25:10Z</time>
      </trkpt>
      <trkpt lat="47.33754" lon="-0.66921">
        <ele>88.58</ele>
        <time>2013-05-26T09:25:16Z</time>
      </trkpt>
      <trkpt lat="47.33771" lon="-0.66913">
        <ele>89.06</ele>
        <time>2013-05-26T09:25:23Z</time>
      </trkpt>
      <trkpt lat="47.33785" lon="-0.66906">
        <ele>89.54</ele>
        <time>2013-05-26T09:25:29Z</time>
      </trkpt>
      <trkpt lat="47.33797" lon="-0.669">
        <ele>90.5</ele>
        <time>2013-05-26T09:25:34Z</time>
      </trkpt>
      <trkpt lat="47.33804" lon="-0.66899">
        <ele>90.02</ele>
        <time>2013-05-26T09:25:37Z</time>
      </trkpt>
      <trkpt lat="47.33818" lon="-0.66902">
        <ele>90.02</ele>
        <time>2013-05-26T09:25:43Z</time>
      </trkpt>
      <trkpt lat="47.33829" lon="-0.66891">
        <ele>90.5</ele>
        <time>2013-05-26T09:25:49Z</time>
      </trkpt>
      <trkpt lat="47.33847" lon="-0.66871">
        <ele>90.98</ele>
        <time>2013-05-26T09:25:57Z</time>
      </trkpt>
      <trkpt lat="47.33864" lon="-0.66851">
        <ele>90.98</ele>
        <time>2013-05-26T09:26:05Z</time>
      </trkpt>
      <trkpt lat="47.33878" lon="-0.66832">
        <ele>91.46</ele>
        <time>2013-05-26T09:26:12Z</time>
      </trkpt>
      <trkpt lat="47.33897" lon="-0.66813">
        <ele>91.46</ele>
        <time>2013-05-26T09:26:20Z</time>
      </trkpt>
      <trkpt lat="47.33918" lon="-0.66791">
        <ele>91.94</ele>
        <time>2013-05-26T09:26:29Z</time>
      </trkpt>
      <trkpt lat="47.33939" lon="-0.6677">
        <ele>91.94</ele>
        <time>2013-05-26T09:26:37Z</time>
      </trkpt>
      <trkpt lat="47.33966" lon="-0.66744">
        <ele>92.42</ele>
        <time>2013-05-26T09:26:47Z</time>
      </trkpt>
      <trkpt lat="47.33986" lon="-0.66728">
        <ele>92.9</ele>
        <time>2013-05-26T09:26:55Z</time>
      </trkpt>
      <trkpt lat="47.34007" lon="-0.66712">
        <ele>93.39</ele>
        <time>2013-05-26T09:27:02Z</time>
      </trkpt>
      <trkpt lat="47.34035" lon="-0.66697">
        <ele>93.39</ele>
        <time>2013-05-26T09:27:10Z</time>
      </trkpt>
      <trkpt lat="47.34057" lon="-0.66697">
        <ele>92.9</ele>
        <time>2013-05-26T09:27:17Z</time>
      </trkpt>
      <trkpt lat="47.34088" lon="-0.66692">
        <ele>92.42</ele>
        <time>2013-05-26T09:27:27Z</time>
      </trkpt>
      <trkpt lat="47.34115" lon="-0.66679">
        <ele>91.46</ele>
        <time>2013-05-26T09:27:35Z</time>
      </trkpt>
      <trkpt lat="47.34127" lon="-0.66661">
        <ele>91.46</ele>
        <time>2013-05-26T09:27:40Z</time>
      </trkpt>
      <trkpt lat="47.3414" lon="-0.6664">
        <ele>90.5</ele>
        <time>2013-05-26T09:27:45Z</time>
      </trkpt>
      <trkpt lat="47.34167" lon="-0.66617">
        <ele>89.54</ele>
        <time>2013-05-26T09:27:52Z</time>
      </trkpt>
      <trkpt lat="47.34191" lon="-0.66607">
        <ele>89.06</ele>
        <time>2013-05-26T09:27:57Z</time>
      </trkpt>
      <trkpt lat="47.34216" lon="-0.666">
        <ele>88.58</ele>
        <time>2013-05-26T09:28:02Z</time>
      </trkpt>
      <trkpt lat="47.34237" lon="-0.66593">
        <ele>87.62</ele>
        <time>2013-05-26T09:28:06Z</time>
      </trkpt>
      <trkpt lat="47.34247" lon="-0.6659">
        <ele>87.14</ele>
        <time>2013-05-26T09:28:08Z</time>
      </trkpt>
      <trkpt lat="47.34291" lon="-0.66577">
        <ele>85.21</ele>
        <time>2013-05-26T09:28:16Z</time>
      </trkpt>
      <trkpt lat="47.34323" lon="-0.66568">
        <ele>84.73</ele>
        <time>2013-05-26T09:28:22Z</time>
      </trkpt>
      <trkpt lat="47.34361" lon="-0.66555">
        <ele>82.81</ele>
        <time>2013-05-26T09:28:29Z</time>
      </trkpt>
      <trkpt lat="47.34386" lon="-0.66549">
        <ele>80.89</ele>
        <time>2013-05-26T09:28:33Z</time>
      </trkpt>
      <trkpt lat="47.3441" lon="-0.66545">
        <ele>77.52</ele>
        <time>2013-05-26T09:28:37Z</time>
      </trkpt>
      <trkpt lat="47.34417" lon="-0.66542">
        <ele>77.04</ele>
        <time>2013-05-26T09:28:38Z</time>
      </trkpt>
      <trkpt lat="47.34435" lon="-0.66534">
        <ele>74.64</ele>
        <time>2013-05-26T09:28:41Z</time>
      </trkpt>
      <trkpt lat="47.34445" lon="-0.6653">
        <ele>73.68</ele>
        <time>2013-05-26T09:28:43Z</time>
      </trkpt>
      <trkpt lat="47.34467" lon="-0.66521">
        <ele>69.35</ele>
        <time>2013-05-26T09:28:47Z</time>
      </trkpt>
      <trkpt lat="47.34485" lon="-0.66513">
        <ele>66.47</ele>
        <time>2013-05-26T09:28:50Z</time>
      </trkpt>
      <trkpt lat="47.34505" lon="-0.66503">
        <ele>62.14</ele>
        <time>2013-05-26T09:28:53Z</time>
      </trkpt>
      <trkpt lat="47.34528" lon="-0.66494">
        <ele>58.78</ele>
        <time>2013-05-26T09:28:56Z</time>
      </trkpt>
      <trkpt lat="47.34552" lon="-0.66483">
        <ele>56.37</ele>
        <time>2013-05-26T09:28:59Z</time>
      </trkpt>
      <trkpt lat="47.34577" lon="-0.6647">
        <ele>54.45</ele>
        <time>2013-05-26T09:29:03Z</time>
      </trkpt>
      <trkpt lat="47.3459" lon="-0.66463">
        <ele>53.49</ele>
        <time>2013-05-26T09:29:05Z</time>
      </trkpt>
      <trkpt lat="47.34607" lon="-0.66467">
        <ele>53.49</ele>
        <time>2013-05-26T09:29:09Z</time>
      </trkpt>
      <trkpt lat="47.34614" lon="-0.66486">
        <ele>52.05</ele>
        <time>2013-05-26T09:29:12Z</time>
      </trkpt>
      <trkpt lat="47.34624" lon="-0.66533">
        <ele>48.68</ele>
        <time>2013-05-26T09:29:17Z</time>
      </trkpt>
      <trkpt lat="47.34627" lon="-0.66545">
        <ele>47.72</ele>
        <time>2013-05-26T09:29:18Z</time>
      </trkpt>
      <trkpt lat="47.34637" lon="-0.66601">
        <ele>43.88</ele>
        <time>2013-05-26T09:29:22Z</time>
      </trkpt>
      <trkpt lat="47.34641" lon="-0.66627">
        <ele>43.88</ele>
        <time>2013-05-26T09:29:24Z</time>
      </trkpt>
      <trkpt lat="47.34642" lon="-0.66648">
        <ele>44.84</ele>
        <time>2013-05-26T09:29:26Z</time>
      </trkpt>
      <trkpt lat="47.34651" lon="-0.66667">
        <ele>45.32</ele>
        <time>2013-05-26T09:29:30Z</time>
      </trkpt>
      <trkpt lat="47.34669" lon="-0.6667">
        <ele>43.4</ele>
        <time>2013-05-26T09:29:34Z</time>
      </trkpt>
      <trkpt lat="47.34709" lon="-0.66675">
        <ele>40.03</ele>
        <time>2013-05-26T09:29:40Z</time>
      </trkpt>
      <trkpt lat="47.34752" lon="-0.6668">
        <ele>36.67</ele>
        <time>2013-05-26T09:29:45Z</time>
      </trkpt>
      <trkpt lat="47.34794" lon="-0.66685">
        <ele>33.3</ele>
        <time>2013-05-26T09:29:50Z</time>
      </trkpt>
      <trkpt lat="47.34828" lon="-0.66688">
        <ele>31.38</ele>
        <time>2013-05-26T09:29:54Z</time>
      </trkpt>
      <trkpt lat="47.34848" lon="-0.6669">
        <ele>29.94</ele>
        <time>2013-05-26T09:29:58Z</time>
      </trkpt>
      <trkpt lat="47.34874" lon="-0.66694">
        <ele>28.98</ele>
        <time>2013-05-26T09:30:03Z</time>
      </trkpt>
      <trkpt lat="47.34904" lon="-0.667">
        <ele>27.53</ele>
        <time>2013-05-26T09:30:09Z</time>
      </trkpt>
      <trkpt lat="47.34911" lon="-0.66687">
        <ele>25.61</ele>
        <time>2013-05-26T09:30:13Z</time>
      </trkpt>
      <trkpt lat="47.34911" lon="-0.66679">
        <ele>27.53</ele>
        <time>2013-05-26T09:30:15Z</time>
      </trkpt>
      <trkpt lat="47.34911" lon="-0.66675">
        <ele>27.53</ele>
        <time>2013-05-26T09:30:16Z</time>
      </trkpt>
      <trkpt lat="47.34912" lon="-0.66671">
        <ele>21.29</ele>
        <time>2013-05-26T09:30:17Z</time>
      </trkpt>
      <trkpt lat="47.34911" lon="-0.66668">
        <ele>28.98</ele>
        <time>2013-05-26T09:30:18Z</time>
      </trkpt>
      <trkpt lat="47.34915" lon="-0.66628">
        <ele>28.02</ele>
        <time>2013-05-26T09:30:26Z</time>
      </trkpt>
      <trkpt lat="47.34919" lon="-0.66618">
        <ele>28.02</ele>
        <time>2013-05-26T09:30:28Z</time>
      </trkpt>
      <trkpt lat="47.34923" lon="-0.66586">
        <ele>27.53</ele>
        <time>2013-05-26T09:30:34Z</time>
      </trkpt>
      <trkpt lat="47.34922" lon="-0.66557">
        <ele>27.53</ele>
        <time>2013-05-26T09:30:40Z</time>
      </trkpt>
      <trkpt lat="47.34922" lon="-0.66521">
        <ele>27.53</ele>
        <time>2013-05-26T09:30:47Z</time>
      </trkpt>
      <trkpt lat="47.34924" lon="-0.66512">
        <ele>27.53</ele>
        <time>2013-05-26T09:30:49Z</time>
      </trkpt>
      <trkpt lat="47.34941" lon="-0.66508">
        <ele>27.53</ele>
        <time>2013-05-26T09:30:54Z</time>
      </trkpt>
      <trkpt lat="47.3497" lon="-0.66513">
        <ele>26.09</ele>
        <time>2013-05-26T09:31:02Z</time>
      </trkpt>
      <trkpt lat="47.35006" lon="-0.66515">
        <ele>25.13</ele>
        <time>2013-05-26T09:31:11Z</time>
      </trkpt>
      <trkpt lat="47.35035" lon="-0.66518">
        <ele>24.17</ele>
        <time>2013-05-26T09:31:18Z</time>
      </trkpt>
      <trkpt lat="47.35043" lon="-0.66519">
        <ele>24.17</ele>
        <time>2013-05-26T09:31:20Z</time>
      </trkpt>
      <trkpt lat="47.35059" lon="-0.66497">
        <ele>23.69</ele>
        <time>2013-05-26T09:31:26Z</time>
      </trkpt>
      <trkpt lat="47.35062" lon="-0.66466">
        <ele>23.69</ele>
        <time>2013-05-26T09:31:32Z</time>
      </trkpt>
      <trkpt lat="47.35064" lon="-0.6644">
        <ele>22.73</ele>
        <time>2013-05-26T09:31:38Z</time>
      </trkpt>
      <trkpt lat="47.35056" lon="-0.66408">
        <ele>22.73</ele>
        <time>2013-05-26T09:31:46Z</time>
      </trkpt>
      <trkpt lat="47.35053" lon="-0.66391">
        <ele>23.21</ele>
        <time>2013-05-26T09:31:50Z</time>
      </trkpt>
      <trkpt lat="47.35059" lon="-0.66381">
        <ele>22.73</ele>
        <time>2013-05-26T09:31:54Z</time>
      </trkpt>
      <trkpt lat="47.3509" lon="-0.66365">
        <ele>23.21</ele>
        <time>2013-05-26T09:32:04Z</time>
      </trkpt>
      <trkpt lat="47.35116" lon="-0.6636">
        <ele>23.21</ele>
        <time>2013-05-26T09:32:12Z</time>
      </trkpt>
      <trkpt lat="47.3514" lon="-0.66365">
        <ele>24.17</ele>
        <time>2013-05-26T09:32:19Z</time>
      </trkpt>
      <trkpt lat="47.35165" lon="-0.66375">
        <ele>25.61</ele>
        <time>2013-05-26T09:32:27Z</time>
      </trkpt>
      <trkpt lat="47.35188" lon="-0.66387">
        <ele>26.57</ele>
        <time>2013-05-26T09:32:34Z</time>
      </trkpt>
      <trkpt lat="47.35214" lon="-0.66408">
        <ele>26.57</ele>
        <time>2013-05-26T09:32:42Z</time>
      </trkpt>
      <trkpt lat="47.3524" lon="-0.66429">
        <ele>25.61</ele>
        <time>2013-05-26T09:32:50Z</time>
      </trkpt>
      <trkpt lat="47.35251" lon="-0.66438">
        <ele>25.61</ele>
        <time>2013-05-26T09:32:53Z</time>
      </trkpt>
      <trkpt lat="47.35284" lon="-0.66466">
        <ele>23.69</ele>
        <time>2013-05-26T09:33:01Z</time>
      </trkpt>
      <trkpt lat="47.35305" lon="-0.66467">
        <ele>22.73</ele>
        <time>2013-05-26T09:33:07Z</time>
      </trkpt>
      <trkpt lat="47.35327" lon="-0.66443">
        <ele>22.25</ele>
        <time>2013-05-26T09:33:14Z</time>
      </trkpt>
      <trkpt lat="47.35353" lon="-0.66421">
        <ele>22.25</ele>
        <time>2013-05-26T09:33:22Z</time>
      </trkpt>
      <trkpt lat="47.35387" lon="-0.664">
        <ele>22.25</ele>
        <time>2013-05-26T09:33:32Z</time>
      </trkpt>
      <trkpt lat="47.35402" lon="-0.66391">
        <ele>21.29</ele>
        <time>2013-05-26T09:33:37Z</time>
      </trkpt>
      <trkpt lat="47.35408" lon="-0.66403">
        <ele>21.77</ele>
        <time>2013-05-26T09:33:41Z</time>
      </trkpt>
      <trkpt lat="47.35405" lon="-0.66414">
        <ele>21.77</ele>
        <time>2013-05-26T09:33:44Z</time>
      </trkpt>
      <trkpt lat="47.35398" lon="-0.66436">
        <ele>21.77</ele>
        <time>2013-05-26T09:33:51Z</time>
      </trkpt>
      <trkpt lat="47.35401" lon="-0.66447">
        <ele>21.29</ele>
        <time>2013-05-26T09:33:58Z</time>
      </trkpt>
      <trkpt lat="47.35401" lon="-0.66447">
        <ele>21.29</ele>
        <time>2013-05-26T09:34:11Z</time>
      </trkpt>
      <trkpt lat="47.35402" lon="-0.66446">
        <ele>20.81</ele>
        <time>2013-05-26T09:34:16Z</time>
      </trkpt>
      <trkpt lat="47.35402" lon="-0.66446">
        <ele>20.81</ele>
        <time>2013-05-26T09:34:24Z</time>
      </trkpt>
      <trkpt lat="47.35402" lon="-0.66446">
        <ele>20.81</ele>
        <time>2013-05-26T09:34:38Z</time>
      </trkpt>
      <trkpt lat="47.35402" lon="-0.66446">
        <ele>21.29</ele>
        <time>2013-05-26T09:34:55Z</time>
      </trkpt>
      <trkpt lat="47.35402" lon="-0.66446">
        <ele>20.32</ele>
        <time>2013-05-26T09:35:12Z</time>
      </trkpt>
      <trkpt lat="47.35402" lon="-0.66446">
        <ele>21.29</ele>
        <time>2013-05-26T09:35:28Z</time>
      </trkpt>
      <trkpt lat="47.35402" lon="-0.66447">
        <ele>21.29</ele>
        <time>2013-05-26T09:35:41Z</time>
      </trkpt>
      <trkpt lat="47.35402" lon="-0.66447">
        <ele>21.77</ele>
        <time>2013-05-26T09:35:58Z</time>
      </trkpt>
      <trkpt lat="47.35402" lon="-0.66446">
        <ele>21.29</ele>
        <time>2013-05-26T09:36:13Z</time>
      </trkpt>
    </trkseg>
  </trk>
</gpx>